EW1734 Weather Reports


Display with metric or nautical units.
time (UTC)temp
F
wind
direction
speed
MPH
gust
MPH
rain 1hr
in
rain 24hr
in
rain mn
in
humidity
%
barometer
mb
20260901071738 63 356 1.0 2.0 0.00 0.00 0.00 61 1013.9
20260901071724 63 72 1.0 0.0 0.00 0.00 0.00 61 1013.9
20260901071720 63 72 1.0 0.0 0.00 0.00 0.00 61 1013.9
20260901071637 63 72 1.0 0.0 0.00 0.00 0.00 61 1013.9
20260901071631 63 76 0.0 2.0 0.00 0.00 0.00 61 1015.0
20260901071606 63 72 1.0 0.0 0.00 0.00 0.00 62 1013.9
20260901071507 63 72 1.0 0.0 0.00 0.00 0.00 61 1013.9
20260901071412 63 72 1.0 0.0 0.00 0.00 0.00 61 1013.9
20260901071400 63 72 1.0 0.0 0.00 0.00 0.00 62 1013.9
20260901071207 63 72 1.0 0.0 0.00 0.00 0.00 61 1013.9
20260901071137 63 72 1.0 0.0 0.00 0.00 0.00 61 1013.9
20260901071130 63 39 0.0 2.0 0.00 0.00 0.00 61 1014.9
20260901071106 63 72 1.0 0.0 0.00 0.00 0.00 61 1013.9
20260901071036 63 72 1.0 0.0 0.00 0.00 0.00 62 1013.9
20260901071008 63 72 1.0 0.0 0.00 0.00 0.00 61 1013.9
20260901070950 63 72 1.0 0.0 0.00 0.00 0.00 62 1013.9
20260901070906 63 72 1.0 0.0 0.00 0.00 0.00 62 1013.9
20260901070848 63 76 0.0 0.0 0.00 0.00 0.00 62 1013.9
20260901070807 63 72 1.0 0.0 0.00 0.00 0.00 62 1013.9
20260901070739 63 72 1.0 1.0 0.00 0.00 0.00 62 1013.9
20260901070707 63 76 0.0 0.0 0.00 0.00 0.00 61 1013.9
20260901070624 63 56 1.0 2.0 0.00 0.00 0.00 61 1014.9
20260901070606 63 76 0.0 0.0 0.00 0.00 0.00 61 1013.9
20260901070557 63 76 0.0 0.0 0.00 0.00 0.00 62 1013.9
20260901070522 63 76 0.0 0.0 0.00 0.00 0.00 62 1013.9
20260901070349 63 76 0.0 0.0 0.00 0.00 0.00 62 1013.9
20260901070306 63 76 0.0 0.0 0.00 0.00 0.00 62 1013.9
20260901070237 63 76 0.0 0.0 0.00 0.00 0.00 62 1013.9
20260901070206 63 76 0.0 0.0 0.00 0.00 0.00 62 1013.9
20260901070150 63 76 0.0 0.0 0.00 0.00 0.00 62 1013.9
20260901070121 63 52 1.0 3.0 0.00 0.00 0.00 62 1015.1
20260901070019 63 76 0.0 0.0 0.00 0.00 0.00 62 1013.9
20260901065950 64 25 0.0 0.0 0.00 0.00 0.00 63 1013.5
20260901065907 63 76 0.0 0.0 0.00 0.00 0.00 62 1013.9
20260901065837 63 76 0.0 0.0 0.00 0.00 0.00 63 1013.9
20260901065809 63 76 0.0 0.0 0.00 0.00 0.00 62 1013.9
20260901065739 63 76 0.0 1.0 0.00 0.00 0.00 62 1013.9
20260901065706 63 34 1.0 0.0 0.00 0.00 0.00 62 1013.6
20260901065642 64 34 1.0 0.0 0.00 0.00 0.00 62 1013.6
20260901065626 63 34 1.0 0.0 0.00 0.00 0.00 62 1013.6
20260901065616 63 34 1.0 0.0 0.00 0.00 0.00 63 1013.6
20260901065606 64 34 1.0 0.0 0.00 0.00 0.00 62 1013.6
20260901065437 64 34 1.0 0.0 0.00 0.00 0.00 62 1013.6
20260901065406 64 34 1.0 0.0 0.00 0.00 0.00 62 1013.6
20260901065336 64 34 1.0 0.0 0.00 0.00 0.00 62 1013.6
20260901065314 64 34 1.0 0.0 0.00 0.00 0.00 63 1013.6
20260901065306 64 34 1.0 0.0 0.00 0.00 0.00 62 1013.6
20260901065255 64 34 1.0 0.0 0.00 0.00 0.00 63 1013.6
20260901065246 64 34 1.0 0.0 0.00 0.00 0.00 63 1013.6
20260901065236 64 34 1.0 0.0 0.00 0.00 0.00 62 1013.6
20260901065114 64 44 0.0 2.0 0.00 0.00 0.00 63 1014.8
20260901065006 64 34 1.0 0.0 0.00 0.00 0.00 62 1013.6
20260901064907 64 34 1.0 0.0 0.00 0.00 0.00 62 1013.6
20260901064819 64 25 0.0 0.0 0.00 0.00 0.00 63 1013.5
20260901064807 64 34 1.0 0.0 0.00 0.00 0.00 62 1013.6
20260901064738 64 34 1.0 1.0 0.00 0.00 0.00 63 1013.6
20260901064708 64 25 0.0 0.0 0.00 0.00 0.00 63 1013.5
20260901064645 64 25 0.0 0.0 0.00 0.00 0.00 62 1013.5
20260901064634 64 25 0.0 0.0 0.00 0.00 0.00 63 1013.5
20260901064612 64 46 1.0 2.0 0.00 0.00 0.00 62 1014.5
20260901064449 64 25 0.0 0.0 0.00 0.00 0.00 63 1013.5
20260901064312 64 50 0.0 0.0 0.00 0.00 0.00 64 1013.4
20260901064307 64 25 0.0 0.0 0.00 0.00 0.00 63 1013.5
20260901064251 64 25 0.0 0.0 0.00 0.00 0.00 63 1013.5
20260901064241 64 25 0.0 0.0 0.00 0.00 0.00 64 1013.5
20260901064108 64 38 0.0 1.0 0.00 0.00 0.00 62 1014.5
20260901064039 64 25 0.0 0.0 0.00 0.00 0.00 62 1013.5
20260901064006 64 25 0.0 0.0 0.00 0.00 0.00 62 1013.5
20260901063944 64 50 0.0 0.0 0.00 0.00 0.00 63 1013.4
20260901063907 64 25 0.0 0.0 0.00 0.00 0.00 62 1013.5
20260901063822 64 50 0.0 0.0 0.00 0.00 0.00 63 1013.4
20260901063811 64 25 0.0 0.0 0.00 0.00 0.00 62 1013.5
20260901063800 64 25 0.0 1.0 0.00 0.00 0.00 62 1013.5
20260901063748 64 50 0.0 0.0 0.00 0.00 0.00 62 1013.4
20260901063740 64 50 0.0 0.0 0.00 0.00 0.00 62 1013.4
20260901063625 64 50 0.0 0.0 0.00 0.00 0.00 62 1013.4
20260901063617 64 50 0.0 0.0 0.00 0.00 0.00 62 1013.4
20260901063604 64 28 0.0 3.0 0.00 0.00 0.00 62 1014.7
20260901063447 64 50 0.0 0.0 0.00 0.00 0.00 63 1013.4
20260901063307 64 50 0.0 0.0 0.00 0.00 0.00 63 1013.4
20260901063237 64 50 0.0 0.0 0.00 0.00 0.00 64 1013.4
20260901063206 64 50 0.0 0.0 0.00 0.00 0.00 64 1013.4
20260901063154 64 56 1.0 0.0 0.00 0.00 0.00 64 1013.2
20260901063147 64 50 0.0 0.0 0.00 0.00 0.00 64 1013.4
20260901063100 64 54 1.0 2.0 0.00 0.00 0.00 64 1014.5
20260901063007 64 50 0.0 0.0 0.00 0.00 0.00 64 1013.4
20260901062937 64 50 0.0 0.0 0.00 0.00 0.00 64 1013.4
20260901062906 64 50 0.0 0.0 0.00 0.00 0.00 64 1013.4
20260901062806 64 50 0.0 0.0 0.00 0.00 0.00 64 1013.4
20260901062738 64 50 0.0 1.0 0.00 0.00 0.00 64 1013.4
20260901062724 64 56 1.0 0.0 0.00 0.00 0.00 64 1013.2
20260901062556 64 70 0.0 1.0 0.00 0.00 0.00 64 1014.4
20260901062510 64 56 1.0 0.0 0.00 0.00 0.00 64 1013.2
20260901062408 64 56 1.0 0.0 0.00 0.00 0.00 64 1013.2
20260901062310 64 56 1.0 0.0 0.00 0.00 0.00 64 1013.2
20260901062208 64 56 1.0 0.0 0.00 0.00 0.00 64 1013.2
20260901062107 64 56 1.0 0.0 0.00 0.00 0.00 64 1013.2
20260901062051 64 24 1.0 2.0 0.00 0.00 0.00 64 1014.5
20260901062007 64 56 1.0 0.0 0.00 0.00 0.00 64 1013.2
20260901061936 64 56 1.0 0.0 0.00 0.00 0.00 64 1013.2
20260901061919 64 56 1.0 0.0 0.00 0.00 0.00 65 1013.2
20260901061856 64 56 1.0 0.0 0.00 0.00 0.00 64 1013.2
20260901061822 64 56 1.0 0.0 0.00 0.00 0.00 64 1013.2
20260901061758 64 55 0.0 0.0 0.00 0.00 0.00 64 1013.5
20260901061740 64 56 1.0 2.0 0.00 0.00 0.00 64 1013.2
20260901061707 64 55 0.0 0.0 0.00 0.00 0.00 64 1013.5
20260901061638 64 55 0.0 0.0 0.00 0.00 0.00 64 1013.5
20260901061606 64 55 0.0 0.0 0.00 0.00 0.00 64 1013.5
20260901061548 64 81 0.0 2.0 0.00 0.00 0.00 64 1014.4
20260901061525 64 55 0.0 0.0 0.00 0.00 0.00 64 1013.5
20260901061507 64 55 0.0 0.0 0.00 0.00 0.00 64 1013.5
20260901061440 64 55 0.0 0.0 0.00 0.00 0.00 64 1013.5
20260901061423 64 55 0.0 0.0 0.00 0.00 0.00 64 1013.5
20260901061244 64 55 0.0 0.0 0.00 0.00 0.00 64 1013.5
20260901061212 64 6 0.0 0.0 0.00 0.00 0.00 64 1013.5
20260901061208 64 55 0.0 0.0 0.00 0.00 0.00 64 1013.5
20260901061158 64 6 0.0 0.0 0.00 0.00 0.00 64 1013.5
20260901061151 64 55 0.0 0.0 0.00 0.00 0.00 64 1013.5
20260901061048 64 53 0.0 1.0 0.00 0.00 0.00 64 1014.4
20260901060737 64 55 0.0 0.0 0.00 0.00 0.00 64 1013.5
20260901060706 64 6 0.0 0.0 0.00 0.00 0.00 64 1013.5
20260901060647 65 6 0.0 0.0 0.00 0.00 0.00 64 1013.5
20260901060619 65 6 0.0 0.0 0.00 0.00 0.00 65 1013.5
20260901060615 64 6 0.0 0.0 0.00 0.00 0.00 64 1013.5
20260901060602 64 6 0.0 0.0 0.00 0.00 0.00 64 1013.5
20260901060542 64 55 0.0 1.0 0.00 0.00 0.00 64 1014.3
20260901060306 64 6 0.0 0.0 0.00 0.00 0.00 64 1013.5
20260901060253 64 6 0.0 0.0 0.00 0.00 0.00 64 1013.5
20260901060245 64 6 0.0 0.0 0.00 0.00 0.00 64 1013.5
20260901060037 65 29 0.0 1.0 0.00 0.00 0.00 65 1014.3
20260901055936 65 6 0.0 0.0 0.00 0.00 0.00 64 1013.5
20260901055913 65 63 0.0 0.0 0.00 0.00 0.00 64 1013.2
20260901055906 65 6 0.0 0.0 0.00 0.00 0.00 64 1013.5
20260901055836 65 6 0.0 0.0 0.00 0.00 0.00 64 1013.5
20260901055806 65 6 0.0 0.0 0.00 0.00 0.00 64 1013.5
20260901055738 65 6 0.0 0.0 0.00 0.00 0.00 64 1013.5
20260901055706 65 63 0.0 0.0 0.00 0.00 0.00 64 1013.2
20260901055636 65 63 0.0 0.0 0.00 0.00 0.00 64 1013.2
20260901055556 65 63 0.0 0.0 0.00 0.00 0.00 65 1013.2
20260901055546 65 63 0.0 0.0 0.00 0.00 0.00 65 1013.2
20260901055533 65 38 0.0 0.0 0.00 0.00 0.00 65 1014.2
20260901055407 65 63 0.0 0.0 0.00 0.00 0.00 64 1013.2
20260901055336 65 63 0.0 0.0 0.00 0.00 0.00 64 1013.2
20260901055306 65 63 0.0 0.0 0.00 0.00 0.00 64 1013.2
20260901055235 65 63 0.0 0.0 0.00 0.00 0.00 64 1013.2
20260901055206 65 63 0.0 0.0 0.00 0.00 0.00 64 1013.2
20260901055135 65 63 0.0 0.0 0.00 0.00 0.00 64 1013.2
20260901055036 65 63 0.0 0.0 0.00 0.00 0.00 64 1013.2
20260901055030 65 37 0.0 1.0 0.00 0.00 0.00 64 1014.1
20260901054936 65 63 0.0 0.0 0.00 0.00 0.00 64 1013.2
20260901054906 65 63 0.0 0.0 0.00 0.00 0.00 64 1013.2
20260901054835 65 63 0.0 0.0 0.00 0.00 0.00 63 1013.2
20260901054806 65 63 0.0 0.0 0.00 0.00 0.00 64 1013.2
20260901054737 65 63 0.0 0.0 0.00 0.00 0.00 64 1013.2
20260901054706 65 55 0.0 0.0 0.00 0.00 0.00 64 1013.3
20260901054635 65 55 0.0 0.0 0.00 0.00 0.00 64 1013.3
20260901054604 65 55 0.0 0.0 0.00 0.00 0.00 65 1013.3
20260901054535 65 55 0.0 0.0 0.00 0.00 0.00 64 1013.3
20260901054526 65 66 0.0 0.0 0.00 0.00 0.00 64 1014.3
20260901054506 65 55 0.0 0.0 0.00 0.00 0.00 64 1013.3
20260901054435 65 55 0.0 0.0 0.00 0.00 0.00 64 1013.3
20260901054335 65 55 0.0 0.0 0.00 0.00 0.00 64 1013.3
20260901054235 65 55 0.0 0.0 0.00 0.00 0.00 63 1013.3
20260901054206 65 55 0.0 0.0 0.00 0.00 0.00 63 1013.3
20260901054135 65 55 0.0 0.0 0.00 0.00 0.00 63 1013.3
20260901054108 65 55 0.0 0.0 0.00 0.00 0.00 63 1013.3
20260901054047 66 50 0.0 0.0 0.00 0.00 0.00 63 1013.2
20260901054035 65 55 0.0 0.0 0.00 0.00 0.00 63 1013.3
20260901054022 66 77 0.0 0.0 0.00 0.00 0.00 63 1014.4
20260901054006 65 55 0.0 0.0 0.00 0.00 0.00 63 1013.3
20260901053936 66 55 0.0 0.0 0.00 0.00 0.00 63 1013.3
20260901053926 66 50 0.0 0.0 0.00 0.00 0.00 63 1013.2
20260901053906 66 55 0.0 0.0 0.00 0.00 0.00 63 1013.3
20260901053835 66 55 0.0 0.0 0.00 0.00 0.00 63 1013.3
20260901053805 66 55 0.0 0.0 0.00 0.00 0.00 63 1013.3
20260901053736 66 55 0.0 0.0 0.00 0.00 0.00 63 1013.3
20260901053717 66 50 0.0 0.0 0.00 0.00 0.00 63 1013.2
20260901053710 66 50 0.0 0.0 0.00 0.00 0.00 63 1013.2
20260901053518 66 47 0.0 1.0 0.00 0.00 0.00 63 1014.3
20260901053335 66 50 0.0 0.0 0.00 0.00 0.00 63 1013.2
20260901053238 66 50 0.0 0.0 0.00 0.00 0.00 63 1013.2
20260901053146 66 45 1.0 0.0 0.00 0.00 0.00 62 1013.4
20260901053142 66 50 0.0 0.0 0.00 0.00 0.00 63 1013.2
20260901053132 66 50 0.0 0.0 0.00 0.00 0.00 63 1013.2
20260901053121 66 50 0.0 0.0 0.00 0.00 0.00 64 1013.2
20260901053014 66 19 0.0 1.0 0.00 0.00 0.00 63 1014.1
20260901052941 66 45 1.0 0.0 0.00 0.00 0.00 62 1013.4
20260901052936 66 50 0.0 0.0 0.00 0.00 0.00 63 1013.2
20260901052905 66 50 0.0 0.0 0.00 0.00 0.00 63 1013.2
20260901052836 66 50 0.0 0.0 0.00 0.00 0.00 62 1013.2
20260901052805 66 50 0.0 0.0 0.00 0.00 0.00 62 1013.2
20260901052753 66 50 0.0 1.0 0.00 0.00 0.00 62 1013.2
20260901052623 67 45 1.0 0.0 0.00 0.00 0.00 61 1013.4
20260901052616 66 45 1.0 0.0 0.00 0.00 0.00 62 1013.4
20260901052509 66 33 2.0 2.0 0.00 0.00 0.00 62 1014.0
20260901052438 66 45 1.0 0.0 0.00 0.00 0.00 62 1013.4
20260901052428 67 37 0.0 0.0 0.00 0.00 0.00 62 1013.3
20260901052336 67 45 1.0 0.0 0.00 0.00 0.00 63 1013.4
20260901052315 67 45 1.0 0.0 0.00 0.00 0.00 62 1013.4
20260901052307 67 45 1.0 0.0 0.00 0.00 0.00 63 1013.4
20260901052253 67 37 0.0 0.0 0.00 0.00 0.00 62 1013.3
20260901052240 67 45 1.0 0.0 0.00 0.00 0.00 62 1013.4
20260901052227 67 45 1.0 0.0 0.00 0.00 0.00 61 1013.4
20260901052211 67 45 1.0 0.0 0.00 0.00 0.00 61 1013.4
20260901052008 67 44 1.0 2.0 0.00 0.00 0.00 61 1014.3
20260901051947 67 45 1.0 0.0 0.00 0.00 0.00 61 1013.4
20260901051935 67 45 1.0 0.0 0.00 0.00 0.00 61 1013.4
20260901051808 67 45 1.0 1.0 0.00 0.00 0.00 62 1013.4
20260901051605 67 37 0.0 0.0 0.00 0.00 0.00 63 1013.3
20260901051536 67 37 0.0 0.0 0.00 0.00 0.00 61 1013.3
20260901051509 67 37 0.0 0.0 0.00 0.00 0.00 62 1013.3
20260901051504 67 357 0.0 2.0 0.00 0.00 0.00 61 1014.2
20260901051455 67 37 0.0 0.0 0.00 0.00 0.00 61 1013.3
20260901051447 67 37 0.0 0.0 0.00 0.00 0.00 61 1013.3
20260901051306 67 37 0.0 0.0 0.00 0.00 0.00 62 1013.3
20260901051235 67 37 0.0 0.0 0.00 0.00 0.00 62 1013.3
20260901051203 67 37 0.0 0.0 0.00 0.00 0.00 62 1013.3
20260901051019 67 37 0.0 0.0 0.00 0.00 0.00 62 1013.3
20260901051002 67 53 0.0 1.0 0.00 0.00 0.00 62 1014.1
20260901050935 67 37 0.0 0.0 0.00 0.00 0.00 62 1013.3
20260901050923 67 50 0.0 0.0 0.00 0.00 0.00 61 1013.1
20260901050907 67 37 0.0 0.0 0.00 0.00 0.00 62 1013.3
20260901050836 67 37 0.0 0.0 0.00 0.00 0.00 63 1013.3
20260901050805 67 37 0.0 0.0 0.00 0.00 0.00 62 1013.3
20260901050750 67 37 0.0 0.0 0.00 0.00 0.00 62 1013.3
20260901050722 67 50 0.0 0.0 0.00 0.00 0.00 62 1013.1
20260901050711 67 50 0.0 0.0 0.00 0.00 0.00 62 1013.1
20260901050639 67 50 0.0 0.0 0.00 0.00 0.00 61 1013.1
20260901050551 67 50 0.0 0.0 0.00 0.00 0.00 61 1013.1
20260901050458 67 37 0.0 1.0 0.00 0.00 0.00 61 1014.4
20260901050406 67 50 0.0 0.0 0.00 0.00 0.00 62 1013.1
20260901050352 67 50 0.0 0.0 0.00 0.00 0.00 63 1013.1
20260901050207 67 50 0.0 0.0 0.00 0.00 0.00 62 1013.1
20260901050136 67 50 0.0 0.0 0.00 0.00 0.00 62 1013.1
20260901050111 67 50 0.0 0.0 0.00 0.00 0.00 61 1013.1
20260901050036 67 50 0.0 0.0 0.00 0.00 0.00 61 1013.1
20260901050025 67 49 0.0 0.0 0.00 0.00 0.00 62 1013.1
20260901045958 67 310 0.0 1.0 0.00 0.00 0.00 61 1014.2
20260901045936 67 50 0.0 0.0 0.00 0.00 0.00 61 1013.1
20260901045841 67 50 0.0 0.0 0.00 0.00 0.00 61 1013.1
20260901045830 67 49 0.0 0.0 0.00 0.00 0.00 65 1013.1
20260901045807 67 50 0.0 0.0 0.00 0.00 0.00 61 1013.1
20260901045737 67 50 0.0 0.0 0.00 0.00 0.00 61 1013.1
20260901045712 67 49 0.0 0.0 0.00 0.00 0.00 61 1013.1
20260901045657 67 49 0.0 0.0 0.00 0.00 0.00 62 1013.1
20260901045649 67 49 0.0 0.0 0.00 0.00 0.00 61 1013.1
20260901045634 67 49 0.0 0.0 0.00 0.00 0.00 61 1013.1
20260901045508 67 49 0.0 0.0 0.00 0.00 0.00 61 1013.1
20260901045500 67 49 0.0 0.0 0.00 0.00 0.00 61 1013.1
20260901045453 67 55 0.0 2.0 0.00 0.00 0.00 61 1014.2
20260901045345 67 49 0.0 0.0 0.00 0.00 0.00 61 1013.1
20260901045332 67 49 0.0 0.0 0.00 0.00 0.00 61 1013.1
20260901045322 67 49 0.0 0.0 0.00 0.00 0.00 61 1013.1
20260901045312 67 49 0.0 0.0 0.00 0.00 0.00 62 1013.1
20260901044948 67 55 0.0 1.0 0.00 0.00 0.00 62 1014.1
20260901044912 68 50 0.0 0.0 0.00 0.00 0.00 64 1013.1
20260901044908 67 49 0.0 0.0 0.00 0.00 0.00 62 1013.1
20260901044858 67 49 0.0 0.0 0.00 0.00 0.00 63 1013.1
20260901044848 67 49 0.0 0.0 0.00 0.00 0.00 64 1013.1
20260901044636 67 50 0.0 0.0 0.00 0.00 0.00 64 1013.1
20260901044606 67 50 0.0 0.0 0.00 0.00 0.00 66 1013.1
20260901044544 68 50 0.0 0.0 0.00 0.00 0.00 61 1013.1
20260901044538 67 50 0.0 0.0 0.00 0.00 0.00 65 1013.1
20260901044527 67 50 0.0 0.0 0.00 0.00 0.00 64 1013.1
20260901044517 68 50 0.0 0.0 0.00 0.00 0.00 64 1013.1
20260901044443 68 44 0.0 0.0 0.00 0.00 0.00 64 1014.1
20260901044337 68 50 0.0 0.0 0.00 0.00 0.00 64 1013.1
20260901044307 68 50 0.0 0.0 0.00 0.00 0.00 64 1013.1
20260901044236 68 50 0.0 0.0 0.00 0.00 0.00 65 1013.1
20260901044214 68 50 0.0 0.0 0.00 0.00 0.00 62 1013.1
20260901044205 68 50 0.0 0.0 0.00 0.00 0.00 63 1013.1
20260901044155 68 50 0.0 0.0 0.00 0.00 0.00 62 1013.1
20260901043949 68 37 0.0 0.0 0.00 0.00 0.00 63 1013.0
20260901043939 68 66 0.0 0.0 0.00 0.00 0.00 62 1014.0
20260901043935 68 50 0.0 0.0 0.00 0.00 0.00 61 1013.1
20260901043855 68 50 0.0 0.0 0.00 0.00 0.00 62 1013.1
20260901043847 68 50 0.0 0.0 0.00 0.00 0.00 62 1013.1
20260901043706 68 37 0.0 0.0 0.00 0.00 0.00 62 1013.0
20260901043656 68 37 0.0 0.0 0.00 0.00 0.00 62 1013.0
20260901043650 68 37 0.0 0.0 0.00 0.00 0.00 63 1013.0
20260901043639 68 37 0.0 0.0 0.00 0.00 0.00 63 1013.0
20260901043616 68 37 0.0 0.0 0.00 0.00 0.00 62 1013.0
20260901043450 68 37 0.0 0.0 0.00 0.00 0.00 62 1013.0
20260901043436 68 37 0.0 0.0 0.00 0.00 0.00 63 1013.0
20260901043420 68 37 0.0 0.0 0.00 0.00 0.00 62 1013.0
20260901043341 68 37 0.0 0.0 0.00 0.00 0.00 62 1013.0
20260901043337 68 37 0.0 0.0 0.00 0.00 0.00 62 1013.0
20260901043327 68 37 0.0 0.0 0.00 0.00 0.00 63 1013.0
20260901043317 68 37 0.0 0.0 0.00 0.00 0.00 62 1013.0
20260901043143 68 37 0.0 0.0 0.00 0.00 0.00 62 1013.0
20260901043121 68 44 0.0 0.0 0.00 0.00 0.00 62 1012.9
20260901043117 68 37 0.0 0.0 0.00 0.00 0.00 62 1013.0
20260901042953 68 44 0.0 0.0 0.00 0.00 0.00 62 1012.9
20260901042949 68 37 0.0 0.0 0.00 0.00 0.00 62 1013.0
20260901042935 68 19 0.0 2.0 0.00 0.00 0.00 62 1014.0
20260901042806 68 37 0.0 0.0 0.00 0.00 0.00 62 1013.0
20260901042753 68 37 0.0 0.0 0.00 0.00 0.00 62 1013.0
20260901042605 68 44 0.0 0.0 0.00 0.00 0.00 62 1012.9
20260901042535 68 44 0.0 0.0 0.00 0.00 0.00 63 1012.9
20260901042515 68 44 0.0 0.0 0.00 0.00 0.00 62 1012.9
20260901042435 68 38 1.0 1.0 0.00 0.00 0.00 63 1013.8
20260901042335 68 44 0.0 0.0 0.00 0.00 0.00 63 1012.9
20260901042236 68 44 0.0 0.0 0.00 0.00 0.00 63 1012.9
20260901042223 69 44 0.0 0.0 0.00 0.00 0.00 65 1012.9
20260901042206 68 44 0.0 0.0 0.00 0.00 0.00 63 1012.9
20260901042138 69 44 0.0 0.0 0.00 0.00 0.00 63 1012.9
20260901042106 69 44 0.0 0.0 0.00 0.00 0.00 62 1012.9
20260901042045 69 78 0.0 0.0 0.00 0.00 0.00 64 1012.7
20260901042035 69 44 0.0 0.0 0.00 0.00 0.00 63 1012.9
20260901042007 69 44 0.0 0.0 0.00 0.00 0.00 63 1012.9
20260901041936 69 44 0.0 0.0 0.00 0.00 0.00 63 1012.9
20260901041930 69 34 0.0 1.0 0.00 0.00 0.00 64 1013.7
20260901041911 69 78 0.0 0.0 0.00 0.00 0.00 64 1012.7
20260901041901 69 44 0.0 0.0 0.00 0.00 0.00 63 1012.9
20260901041851 69 44 0.0 0.0 0.00 0.00 0.00 64 1012.9
20260901041729 69 78 0.0 0.0 0.00 0.00 0.00 63 1012.7
20260901041720 69 78 0.0 0.0 0.00 0.00 0.00 64 1012.7
20260901041536 69 78 0.0 0.0 0.00 0.00 0.00 64 1012.7
20260901041505 69 78 0.0 0.0 0.00 0.00 0.00 64 1012.7
20260901041446 69 78 0.0 0.0 0.00 0.00 0.00 64 1012.7
20260901041435 69 78 0.0 0.0 0.00 0.00 0.00 63 1012.7
20260901041425 69 52 1.0 2.0 0.00 0.00 0.00 64 1013.8
20260901041418 69 78 0.0 0.0 0.00 0.00 0.00 64 1012.7
20260901041336 69 78 0.0 0.0 0.00 0.00 0.00 64 1012.7
20260901041322 69 78 0.0 1.0 0.00 0.00 0.00 65 1012.7
20260901041315 69 78 0.0 0.0 0.00 0.00 0.00 64 1012.7
20260901041142 69 78 0.0 0.0 0.00 0.00 0.00 64 1012.7
20260901041129 69 78 0.0 0.0 0.00 0.00 0.00 64 1012.7
20260901040935 69 78 0.0 0.0 0.00 0.00 0.00 64 1012.7
20260901040925 69 39 0.0 2.0 0.00 0.00 0.00 64 1013.6
20260901040855 69 78 0.0 0.0 0.00 0.00 0.00 64 1012.7
20260901040846 69 78 0.0 0.0 0.00 0.00 0.00 64 1012.7
20260901040635 69 30 0.0 0.0 0.00 0.00 0.00 64 1012.6
20260901040615 69 30 0.0 0.0 0.00 0.00 0.00 65 1012.6
20260901040536 69 30 0.0 0.0 0.00 0.00 0.00 64 1012.6
20260901040436 69 30 0.0 0.0 0.00 0.00 0.00 64 1012.6
20260901040425 69 30 0.0 0.0 0.00 0.00 0.00 65 1012.6
20260901040420 69 27 0.0 2.0 0.00 0.00 0.00 65 1013.5
20260901040418 69 30 0.0 0.0 0.00 0.00 0.00 65 1012.6
20260901040336 69 30 0.0 0.0 0.00 0.00 0.00 65 1012.6
20260901040251 69 30 0.0 0.0 0.00 0.00 0.00 65 1012.6
20260901035913 69 8 0.0 1.0 0.00 0.00 0.00 65 1013.4
20260901035906 69 30 0.0 0.0 0.00 0.00 0.00 65 1012.6
20260901035841 70 15 0.0 0.0 0.00 0.00 0.00 65 1012.6
20260901035836 69 30 0.0 0.0 0.00 0.00 0.00 65 1012.6
20260901035806 69 30 0.0 0.0 0.00 0.00 0.00 65 1012.6
20260901035737 69 30 0.0 1.0 0.00 0.00 0.00 65 1012.6
20260901035705 69 15 0.0 0.0 0.00 0.00 0.00 65 1012.6
20260901035636 70 15 0.0 0.0 0.00 0.00 0.00 65 1012.6
20260901035618 70 15 0.0 0.0 0.00 0.00 0.00 65 1012.6
20260901035537 70 15 0.0 0.0 0.00 0.00 0.00 65 1012.6
20260901035523 70 15 0.0 0.0 0.00 0.00 0.00 65 1012.6
20260901035516 70 15 0.0 0.0 0.00 0.00 0.00 65 1012.6
20260901035412 70 329 0.0 0.0 0.00 0.00 0.00 65 1013.5
20260901035337 70 15 0.0 0.0 0.00 0.00 0.00 65 1012.6
20260901035236 70 15 0.0 0.0 0.00 0.00 0.00 65 1012.6
20260901035153 70 15 0.0 0.0 0.00 0.00 0.00 65 1012.6
20260901035005 70 15 0.0 0.0 0.00 0.00 0.00 65 1012.6
20260901034942 70 50 0.0 0.0 0.00 0.00 0.00 65 1012.4
20260901034935 70 15 0.0 0.0 0.00 0.00 0.00 65 1012.6
20260901034910 70 0 0.0 1.0 0.00 0.00 0.00 65 1013.6
20260901034835 70 15 0.0 0.0 0.00 0.00 0.00 65 1012.6
20260901034806 70 15 0.0 0.0 0.00 0.00 0.00 65 1012.6
20260901034738 70 15 0.0 0.0 0.00 0.00 0.00 65 1012.6
20260901034705 70 50 0.0 0.0 0.00 0.00 0.00 65 1012.4
20260901034635 70 50 0.0 0.0 0.00 0.00 0.00 65 1012.4
20260901034623 70 50 0.0 0.0 0.00 0.00 0.00 65 1012.4
20260901034615 70 50 0.0 0.0 0.00 0.00 0.00 65 1012.4
20260901034436 70 50 0.0 0.0 0.00 0.00 0.00 65 1012.4
20260901034406 70 50 0.0 0.0 0.00 0.00 0.00 65 1012.4
20260901034336 70 50 0.0 0.0 0.00 0.00 0.00 65 1012.4
20260901034304 70 50 0.0 0.0 0.00 0.00 0.00 65 1012.4
20260901034113 70 44 0.0 0.0 0.00 0.00 0.00 64 1012.1
20260901034035 70 50 0.0 0.0 0.00 0.00 0.00 65 1012.4
20260901034007 70 50 0.0 0.0 0.00 0.00 0.00 65 1012.4
20260901033935 70 50 0.0 0.0 0.00 0.00 0.00 65 1012.4
20260901033905 70 50 0.0 0.0 0.00 0.00 0.00 65 1012.4
20260901033900 70 60 0.0 0.0 0.00 0.00 0.00 65 1013.4
20260901033849 70 44 0.0 0.0 0.00 0.00 0.00 65 1012.1
20260901033835 70 50 0.0 0.0 0.00 0.00 0.00 64 1012.4
20260901033805 70 50 0.0 0.0 0.00 0.00 0.00 64 1012.4
20260901033752 70 50 0.0 0.0 0.00 0.00 0.00 64 1012.4
20260901033536 70 44 0.0 0.0 0.00 0.00 0.00 64 1012.1
20260901033513 70 44 0.0 0.0 0.00 0.00 0.00 64 1012.1
20260901033504 70 44 0.0 0.0 0.00 0.00 0.00 64 1012.1
20260901033400 70 37 0.0 0.0 0.00 0.00 0.00 64 1013.0
20260901033335 70 44 0.0 0.0 0.00 0.00 0.00 64 1012.1
20260901033306 70 44 0.0 0.0 0.00 0.00 0.00 64 1012.1
20260901033242 70 44 0.0 0.0 0.00 0.00 0.00 65 1012.1
20260901033236 70 44 0.0 0.0 0.00 0.00 0.00 65 1012.1
20260901033205 70 44 0.0 0.0 0.00 0.00 0.00 64 1012.1
20260901033135 70 44 0.0 0.0 0.00 0.00 0.00 65 1012.1
20260901033114 70 44 0.0 0.0 0.00 0.00 0.00 64 1012.2
20260901033102 70 44 0.0 0.0 0.00 0.00 0.00 64 1012.1
20260901033054 70 44 0.0 0.0 0.00 0.00 0.00 64 1012.1
20260901033031 70 44 0.0 0.0 0.00 0.00 0.00 65 1012.1
20260901032858 70 44 0.0 0.0 0.00 0.00 0.00 65 1013.1
20260901032737 70 44 0.0 0.0 0.00 0.00 0.00 65 1012.1
20260901032716 70 44 0.0 0.0 0.00 0.00 0.00 65 1012.2
20260901032536 70 44 0.0 0.0 0.00 0.00 0.00 64 1012.2
20260901032436 70 44 0.0 0.0 0.00 0.00 0.00 64 1012.2
20260901032406 70 44 0.0 0.0 0.00 0.00 0.00 64 1012.2
20260901032353 70 44 0.0 0.0 0.00 0.00 0.00 64 1012.9
20260901032339 71 44 0.0 0.0 0.00 0.00 0.00 65 1012.2
20260901032335 70 44 0.0 0.0 0.00 0.00 0.00 64 1012.2
20260901032307 70 44 0.0 0.0 0.00 0.00 0.00 64 1012.2
20260901032236 71 44 0.0 0.0 0.00 0.00 0.00 64 1012.2
20260901032136 71 44 0.0 0.0 0.00 0.00 0.00 64 1012.2
20260901032106 71 44 0.0 0.0 0.00 0.00 0.00 64 1012.2
20260901032041 71 37 0.0 0.0 0.00 0.00 0.00 64 1012.1
20260901032036 71 44 0.0 0.0 0.00 0.00 0.00 64 1012.2
20260901032015 71 44 0.0 0.0 0.00 0.00 0.00 64 1012.2
20260901031848 71 55 0.0 0.0 0.00 0.00 0.00 64 1013.0
20260901031835 71 44 0.0 0.0 0.00 0.00 0.00 64 1012.2
20260901031809 71 37 0.0 0.0 0.00 0.00 0.00 63 1012.1
20260901031805 71 44 0.0 0.0 0.00 0.00 0.00 64 1012.2
20260901031742 71 37 0.0 0.0 0.00 0.00 0.00 64 1012.1
20260901031738 71 44 0.0 0.0 0.00 0.00 0.00 64 1012.2
20260901031726 71 37 0.0 0.0 0.00 0.00 0.00 64 1012.1
20260901031716 71 37 0.0 0.0 0.00 0.00 0.00 63 1012.1
20260901031536 71 37 0.0 0.0 0.00 0.00 0.00 64 1012.1
20260901031443 71 37 0.0 0.0 0.00 0.00 0.00 64 1012.1
20260901031430 71 37 0.0 0.0 0.00 0.00 0.00 63 1012.1
20260901031344 71 37 0.0 1.0 0.00 0.00 0.00 63 1012.9
20260901031136 71 37 0.0 0.0 0.00 0.00 0.00 64 1012.1
20260901031036 71 37 0.0 0.0 0.00 0.00 0.00 64 1012.1
20260901030937 71 37 0.0 0.0 0.00 0.00 0.00 64 1012.1
20260901030853 71 31 0.0 0.0 0.00 0.00 0.00 65 1012.1
20260901030843 71 57 0.0 0.0 0.00 0.00 0.00 64 1013.1
20260901030836 71 37 0.0 0.0 0.00 0.00 0.00 64 1012.1
20260901030814 71 31 0.0 0.0 0.00 0.00 0.00 63 1012.1
20260901030806 71 37 0.0 0.0 0.00 0.00 0.00 64 1012.1
20260901030751 71 37 0.0 0.0 0.00 0.00 0.00 64 1012.1
20260901030638 71 31 0.0 0.0 0.00 0.00 0.00 63 1012.1
20260901030615 72 10 0.0 0.0 0.00 0.00 0.00 62 1012.1
20260901030605 71 31 0.0 0.0 0.00 0.00 0.00 63 1012.1
20260901030551 71 31 0.0 0.0 0.00 0.00 0.00 64 1012.1
20260901030542 71 31 0.0 0.0 0.00 0.00 0.00 64 1012.1
20260901030531 71 31 0.0 0.0 0.00 0.00 0.00 65 1012.1
20260901030339 71 55 1.0 1.0 0.00 0.00 0.00 64 1013.1
20260901030242 72 31 0.0 0.0 0.00 0.00 0.00 63 1012.1
20260901030236 71 31 0.0 0.0 0.00 0.00 0.00 63 1012.1
20260901030143 72 10 0.0 0.0 0.00 0.00 0.00 63 1012.1
20260901030139 71 31 0.0 0.0 0.00 0.00 0.00 63 1012.1
20260901030128 71 31 0.0 0.0 0.00 0.00 0.00 63 1012.1
20260901030120 71 31 0.0 0.0 0.00 0.00 0.00 64 1012.1
20260901030108 71 31 0.0 0.0 0.00 0.00 0.00 63 1012.1
20260901025944 72 10 0.0 0.0 0.00 0.00 0.00 62 1012.1
20260901025938 71 31 0.0 0.0 0.00 0.00 0.00 63 1012.1
20260901025927 71 31 0.0 0.0 0.00 0.00 0.00 63 1012.1
20260901025917 72 31 0.0 0.0 0.00 0.00 0.00 63 1012.1
20260901025837 72 37 0.0 1.0 0.00 0.00 0.00 63 1012.9
20260901025749 72 31 0.0 0.0 0.00 0.00 0.00 63 1012.1
20260901025733 72 10 0.0 0.0 0.00 0.00 0.00 63 1012.1
20260901025456 72 10 0.0 0.0 0.00 0.00 0.00 63 1012.1
20260901025448 72 10 0.0 0.0 0.00 0.00 0.00 63 1012.1
20260901025332 72 48 0.0 2.0 0.00 0.00 0.00 62 1013.0
20260901025319 72 10 0.0 0.0 0.00 0.00 0.00 62 1012.1
20260901025306 72 10 0.0 0.0 0.00 0.00 0.00 62 1012.1
20260901025235 72 10 0.0 0.0 0.00 0.00 0.00 62 1012.1
20260901025136 72 10 0.0 0.0 0.00 0.00 0.00 62 1012.1
20260901025105 72 10 0.0 0.0 0.00 0.00 0.00 62 1012.1
20260901025043 72 15 0.0 0.0 0.00 0.00 0.00 62 1011.9
20260901025035 72 10 0.0 0.0 0.00 0.00 0.00 62 1012.1
20260901024950 72 10 0.0 0.0 0.00 0.00 0.00 62 1012.1
20260901024827 72 60 0.0 2.0 0.00 0.00 0.00 62 1013.2
20260901024809 72 10 0.0 0.0 0.00 0.00 0.00 62 1012.1
20260901024757 73 15 0.0 0.0 0.00 0.00 0.00 62 1011.9
20260901024737 72 10 0.0 0.0 0.00 0.00 0.00 62 1012.1
20260901024722 72 15 0.0 0.0 0.00 0.00 0.00 62 1011.9
20260901024535 72 15 0.0 0.0 0.00 0.00 0.00 62 1011.9
20260901024437 72 15 0.0 0.0 0.00 0.00 0.00 62 1011.9
20260901024426 72 15 0.0 0.0 0.00 0.00 0.00 62 1011.9
20260901024416 73 15 0.0 0.0 0.00 0.00 0.00 62 1011.9
20260901024326 73 27 0.0 2.0 0.00 0.00 0.00 62 1013.1
20260901024236 73 15 0.0 0.0 0.00 0.00 0.00 62 1011.9
20260901024222 73 49 0.0 0.0 0.00 0.00 0.00 61 1012.1
20260901024135 73 15 0.0 0.0 0.00 0.00 0.00 61 1011.9
20260901024117 73 49 0.0 0.0 0.00 0.00 0.00 62 1012.1
20260901024106 73 15 0.0 0.0 0.00 0.00 0.00 61 1011.9
20260901024035 73 15 0.0 0.0 0.00 0.00 0.00 61 1011.9
20260901023951 73 49 0.0 0.0 0.00 0.00 0.00 61 1012.1
20260901023942 74 345 0.0 0.0 0.00 0.00 0.00 60 1012.1
20260901023936 73 15 0.0 0.0 0.00 0.00 0.00 61 1011.9
20260901023918 73 15 0.0 0.0 0.00 0.00 0.00 61 1011.9
20260901023908 73 15 0.0 0.0 0.00 0.00 0.00 61 1011.9
20260901023858 73 15 0.0 0.0 0.00 0.00 0.00 61 1011.9
20260901023824 73 79 0.0 1.0 0.00 0.00 0.00 61 1013.1
20260901023611 73 49 0.0 0.0 0.00 0.00 0.00 61 1012.1
20260901023552 74 345 0.0 0.0 0.00 0.00 0.00 60 1012.1
20260901023538 73 49 0.0 0.0 0.00 0.00 0.00 61 1012.1
20260901023525 73 49 0.0 0.0 0.00 0.00 0.00 61 1012.1
20260901023357 73 49 0.0 0.0 0.00 0.00 0.00 60 1012.1
20260901023347 73 49 0.0 0.0 0.00 0.00 0.00 61 1012.1
20260901023334 73 49 0.0 0.0 0.00 0.00 0.00 61 1012.1
20260901023319 73 341 1.0 2.0 0.00 0.00 0.00 61 1012.9
20260901023214 73 49 0.0 0.0 0.00 0.00 0.00 61 1012.1
20260901023206 73 49 0.0 0.0 0.00 0.00 0.00 61 1012.1
20260901023051 73 49 0.0 0.0 0.00 0.00 0.00 61 1012.1
20260901023037 73 49 0.0 0.0 0.00 0.00 0.00 61 1012.1
20260901022916 73 49 0.0 0.0 0.00 0.00 0.00 60 1012.1
20260901022815 73 326 0.0 1.0 0.00 0.00 0.00 60 1013.0
20260901022741 73 49 0.0 0.0 0.00 0.00 0.00 60 1012.1
20260901022729 73 345 0.0 0.0 0.00 0.00 0.00 60 1012.1
20260901022719 74 345 0.0 0.0 0.00 0.00 0.00 60 1012.1
20260901022548 74 345 0.0 0.0 0.00 0.00 0.00 60 1012.1
20260901022520 74 345 0.0 0.0 0.00 0.00 0.00 60 1012.1
20260901022451 74 345 0.0 0.0 0.00 0.00 0.00 60 1012.1
20260901022311 74 8 0.0 1.0 0.00 0.00 0.00 59 1013.1
20260901022300 74 345 0.0 0.0 0.00 0.00 0.00 59 1012.1
20260901022236 74 345 0.0 0.0 0.00 0.00 0.00 59 1012.1
20260901022204 74 345 0.0 0.0 0.00 0.00 0.00 59 1012.1
20260901022010 75 264 1.0 0.0 0.00 0.00 0.00 59 1011.9
20260901021936 74 345 0.0 0.0 0.00 0.00 0.00 59 1012.1
20260901021916 74 345 0.0 0.0 0.00 0.00 0.00 59 1012.1
20260901021806 74 345 0.0 2.0 0.00 0.00 0.00 59 1012.9
20260901021750 74 345 0.0 2.0 0.00 0.00 0.00 59 1012.1
20260901021642 74 264 1.0 0.0 0.00 0.00 0.00 59 1011.9
20260901021629 74 264 1.0 0.0 0.00 0.00 0.00 59 1011.9
20260901021436 75 264 1.0 0.0 0.00 0.00 0.00 59 1011.9
20260901021405 75 264 1.0 0.0 0.00 0.00 0.00 59 1011.9
20260901021335 75 264 1.0 0.0 0.00 0.00 0.00 59 1011.9
20260901021310 75 264 1.0 0.0 0.00 0.00 0.00 58 1011.9
20260901021302 75 300 1.0 2.0 0.00 0.00 0.00 59 1012.7
20260901021248 75 264 1.0 0.0 0.00 0.00 0.00 59 1011.9
20260901021218 75 264 1.0 0.0 0.00 0.00 0.00 59 1011.9
20260901021150 75 350 0.0 0.0 0.00 0.00 0.00 58 1011.7
20260901021136 75 264 1.0 0.0 0.00 0.00 0.00 59 1011.9
20260901021105 75 264 1.0 0.0 0.00 0.00 0.00 59 1011.9
20260901021038 75 264 1.0 0.0 0.00 0.00 0.00 58 1011.9
20260901020956 76 350 0.0 0.0 0.00 0.00 0.00 58 1011.7
20260901020952 75 264 1.0 0.0 0.00 0.00 0.00 58 1011.9
20260901020940 75 264 1.0 0.0 0.00 0.00 0.00 59 1011.9
20260901020819 75 264 1.0 2.0 0.00 0.00 0.00 58 1011.9
20260901020801 75 264 1.0 2.0 0.00 0.00 0.00 58 1012.6
20260901020636 76 350 0.0 0.0 0.00 0.00 0.00 58 1011.7
20260901020618 76 350 0.0 0.0 0.00 0.00 0.00 58 1011.7
20260901020536 76 350 0.0 0.0 0.00 0.00 0.00 58 1011.7
20260901020505 76 350 0.0 0.0 0.00 0.00 0.00 58 1011.7
20260901020435 76 350 0.0 0.0 0.00 0.00 0.00 58 1011.7
20260901020351 76 350 0.0 0.0 0.00 0.00 0.00 58 1011.7
20260901020258 76 326 0.0 1.0 0.00 0.00 0.00 58 1012.7
20260901020207 76 350 0.0 0.0 0.00 0.00 0.00 59 1011.7
20260901020138 76 350 0.0 0.0 0.00 0.00 0.00 58 1011.7
20260901020107 76 350 0.0 0.0 0.00 0.00 0.00 58 1011.7
20260901020036 76 350 0.0 0.0 0.00 0.00 0.00 58 1011.7
20260901020006 76 350 0.0 0.0 0.00 0.00 0.00 58 1011.7
20260901015943 76 10 0.0 0.0 0.00 0.00 0.00 58 1011.7
20260901015935 76 350 0.0 0.0 0.00 0.00 0.00 58 1011.7
20260901015906 76 350 0.0 0.0 0.00 0.00 0.00 58 1011.7
20260901015836 76 350 0.0 0.0 0.00 0.00 0.00 58 1011.7
20260901015806 76 350 0.0 0.0 0.00 0.00 0.00 58 1011.7
20260901015757 76 280 0.0 2.0 0.00 0.00 0.00 58 1012.5
20260901015737 76 350 0.0 2.0 0.00 0.00 0.00 58 1011.7
20260901015719 77 10 0.0 0.0 0.00 0.00 0.00 57 1011.7
20260901015707 76 10 0.0 0.0 0.00 0.00 0.00 58 1011.7
20260901015640 77 10 0.0 0.0 0.00 0.00 0.00 58 1011.7
20260901015636 76 10 0.0 0.0 0.00 0.00 0.00 58 1011.7
20260901015625 76 10 0.0 0.0 0.00 0.00 0.00 58 1011.7
20260901015615 76 10 0.0 0.0 0.00 0.00 0.00 57 1011.7
20260901015435 77 10 0.0 0.0 0.00 0.00 0.00 57 1011.7
20260901015423 77 10 0.0 0.0 0.00 0.00 0.00 57 1011.7
20260901015419 77 10 0.0 0.0 0.00 0.00 0.00 57 1011.7
20260901015357 77 10 0.0 0.0 0.00 0.00 0.00 58 1011.7
20260901015347 77 10 0.0 0.0 0.00 0.00 0.00 58 1011.7
20260901015254 77 2 1.0 1.0 0.00 0.00 0.00 58 1012.7
20260901015159 77 0 1.0 0.0 0.00 0.00 0.00 57 1011.7
20260901015155 77 10 0.0 0.0 0.00 0.00 0.00 57 1011.7
20260901015147 77 10 0.0 0.0 0.00 0.00 0.00 57 1011.7
20260901015016 77 10 0.0 0.0 0.00 0.00 0.00 57 1011.7
20260901014835 77 10 0.0 0.0 0.00 0.00 0.00 57 1011.7
20260901014818 78 0 1.0 0.0 0.00 0.00 0.00 57 1011.7
20260901014806 77 10 0.0 0.0 0.00 0.00 0.00 57 1011.7
20260901014753 77 113 0.0 2.0 0.00 0.00 0.00 57 1012.7
20260901014745 77 10 0.0 1.0 0.00 0.00 0.00 57 1011.7
20260901014733 77 0 1.0 0.0 0.00 0.00 0.00 57 1011.7
20260901014724 77 0 1.0 0.0 0.00 0.00 0.00 56 1011.7
20260901014535 77 0 1.0 0.0 0.00 0.00 0.00 57 1011.7
20260901014450 78 0 1.0 0.0 0.00 0.00 0.00 57 1011.7
20260901014249 78 343 0.0 2.0 0.00 0.00 0.00 56 1012.6
20260901014236 78 0 1.0 0.0 0.00 0.00 0.00 56 1011.7
20260901014157 78 289 2.0 0.0 0.00 0.00 0.00 56 1011.7
20260901014146 78 0 1.0 0.0 0.00 0.00 0.00 56 1011.7
20260901014109 78 0 1.0 0.0 0.00 0.00 0.00 56 1011.7
20260901014035 78 0 1.0 0.0 0.00 0.00 0.00 56 1011.7
20260901014006 78 0 1.0 0.0 0.00 0.00 0.00 56 1011.7
20260901013935 78 0 1.0 0.0 0.00 0.00 0.00 56 1011.7
20260901013841 79 289 2.0 0.0 0.00 0.00 0.00 55 1011.7
20260901013837 78 0 1.0 0.0 0.00 0.00 0.00 56 1011.7
20260901013827 78 0 1.0 0.0 0.00 0.00 0.00 56 1011.7
20260901013817 78 0 1.0 2.0 0.00 0.00 0.00 56 1011.7
20260901013744 78 11 0.0 3.0 0.00 0.00 0.00 56 1012.5
20260901013636 78 289 2.0 0.0 0.00 0.00 0.00 56 1011.7
20260901013536 78 289 2.0 0.0 0.00 0.00 0.00 56 1011.7
20260901013452 78 289 2.0 0.0 0.00 0.00 0.00 55 1011.7
20260901013240 79 327 0.0 2.0 0.00 0.00 0.00 55 1012.5
20260901013236 79 289 2.0 0.0 0.00 0.00 0.00 55 1011.7
20260901013206 79 289 2.0 0.0 0.00 0.00 0.00 55 1011.7
20260901013140 79 332 0.0 0.0 0.00 0.00 0.00 54 1011.8
20260901013136 79 289 2.0 0.0 0.00 0.00 0.00 55 1011.7
20260901013105 79 289 2.0 0.0 0.00 0.00 0.00 55 1011.7
20260901013036 79 289 2.0 0.0 0.00 0.00 0.00 54 1011.7
20260901013024 79 332 0.0 0.0 0.00 0.00 0.00 54 1011.8
20260901013018 79 289 2.0 0.0 0.00 0.00 0.00 54 1011.7
20260901012935 79 289 2.0 0.0 0.00 0.00 0.00 54 1011.7
20260901012849 79 332 0.0 0.0 0.00 0.00 0.00 54 1011.8
20260901012843 79 289 2.0 0.0 0.00 0.00 0.00 54 1011.7
20260901012833 79 289 2.0 0.0 0.00 0.00 0.00 54 1011.7
20260901012823 79 289 2.0 2.0 0.00 0.00 0.00 54 1011.7
20260901012735 79 357 0.0 2.0 0.00 0.00 0.00 54 1012.3
20260901012517 80 287 0.0 0.0 0.00 0.00 0.00 52 1011.6
20260901012506 79 332 0.0 0.0 0.00 0.00 0.00 53 1011.8
20260901012450 79 332 0.0 0.0 0.00 0.00 0.00 54 1011.8
20260901012306 79 332 0.0 0.0 0.00 0.00 0.00 53 1011.8
20260901012236 80 332 0.0 0.0 0.00 0.00 0.00 53 1011.8
20260901012203 80 332 0.0 0.0 0.00 0.00 0.00 53 1011.8
20260901012135 80 332 0.0 0.0 0.00 0.00 0.00 53 1011.8
20260901011937 80 332 0.0 0.0 0.00 0.00 0.00 53 1011.8
20260901011909 80 332 0.0 0.0 0.00 0.00 0.00 53 1011.8
20260901011842 80 287 0.0 0.0 0.00 0.00 0.00 52 1011.6
20260901011835 80 332 0.0 0.0 0.00 0.00 0.00 53 1011.8
20260901011805 80 332 0.0 0.0 0.00 0.00 0.00 53 1011.8
20260901011746 80 287 0.0 0.0 0.00 0.00 0.00 52 1011.6
20260901011740 80 332 0.0 3.0 0.00 0.00 0.00 52 1011.8
20260901011731 80 315 0.0 3.0 0.00 0.00 0.00 53 1012.6
20260901011714 80 287 0.0 0.0 0.00 0.00 0.00 53 1011.6
20260901011704 80 287 0.0 0.0 0.00 0.00 0.00 52 1011.6
20260901011513 80 287 0.0 0.0 0.00 0.00 0.00 52 1011.6
20260901011506 80 287 0.0 0.0 0.00 0.00 0.00 53 1011.6
20260901011226 80 297 0.0 2.0 0.00 0.00 0.00 52 1012.2
20260901011137 80 287 0.0 0.0 0.00 0.00 0.00 52 1011.6
20260901011041 80 287 0.0 0.0 0.00 0.00 0.00 52 1011.6
20260901011029 80 287 0.0 0.0 0.00 0.00 0.00 52 1011.6
20260901010836 80 287 0.0 0.0 0.00 0.00 0.00 52 1011.6
20260901010806 80 287 0.0 0.0 0.00 0.00 0.00 52 1011.6
20260901010737 80 287 0.0 1.0 0.00 0.00 0.00 52 1011.6
20260901010720 81 35 1.0 6.0 0.00 0.00 0.00 52 1012.3
20260901010649 81 322 0.0 0.0 0.00 0.00 0.00 52 1011.6
20260901010645 81 322 0.0 0.0 0.00 0.00 0.00 52 1011.6
20260901010619 81 322 0.0 0.0 0.00 0.00 0.00 52 1011.6
20260901010536 81 322 0.0 0.0 0.00 0.00 0.00 52 1011.6
20260901010520 81 322 0.0 0.0 0.00 0.00 0.00 52 1011.6
20260901010457 81 322 0.0 0.0 0.00 0.00 0.00 52 1011.6
20260901010437 81 322 0.0 0.0 0.00 0.00 0.00 52 1011.6
20260901010350 81 322 0.0 0.0 0.00 0.00 0.00 52 1011.6
20260901010315 81 322 0.0 0.0 0.00 0.00 0.00 52 1011.6
20260901010215 81 339 0.0 2.0 0.00 0.00 0.00 52 1012.4
20260901010143 81 322 0.0 0.0 0.00 0.00 0.00 52 1011.6
20260901010117 81 322 0.0 0.0 0.00 0.00 0.00 52 1011.6
20260901005935 81 322 0.0 0.0 0.00 0.00 0.00 51 1011.6
20260901005905 81 322 0.0 0.0 0.00 0.00 0.00 52 1011.6
20260901005847 82 339 0.0 0.0 0.00 0.00 0.00 52 1011.6
20260901005836 81 322 0.0 0.0 0.00 0.00 0.00 51 1011.6
20260901005806 81 322 0.0 0.0 0.00 0.00 0.00 51 1011.6
20260901005738 81 322 0.0 2.0 0.00 0.00 0.00 51 1011.6
20260901005722 82 339 0.0 0.0 0.00 0.00 0.00 51 1011.6
20260901005713 82 202 0.0 2.0 0.00 0.00 0.00 51 1012.4
20260901005636 81 339 0.0 0.0 0.00 0.00 0.00 51 1011.6
20260901005606 82 339 0.0 0.0 0.00 0.00 0.00 51 1011.6
20260901005542 82 28 0.0 0.0 0.00 0.00 0.00 51 1011.5
20260901005536 82 339 0.0 0.0 0.00 0.00 0.00 52 1011.6
20260901005517 82 339 0.0 0.0 0.00 0.00 0.00 52 1011.6
20260901005354 82 339 0.0 0.0 0.00 0.00 0.00 52 1011.6
20260901005346 82 339 0.0 0.0 0.00 0.00 0.00 52 1011.6
20260901005209 82 195 0.0 2.0 0.00 0.00 0.00 52 1012.4
20260901005207 82 339 0.0 0.0 0.00 0.00 0.00 51 1011.6
20260901005137 82 339 0.0 0.0 0.00 0.00 0.00 52 1011.6
20260901005120 82 28 0.0 0.0 0.00 0.00 0.00 51 1011.5
20260901005116 82 339 0.0 0.0 0.00 0.00 0.00 52 1011.6
20260901005035 82 339 0.0 0.0 0.00 0.00 0.00 52 1011.6
20260901005020 82 339 0.0 0.0 0.00 0.00 0.00 53 1011.6
20260901004945 82 339 0.0 0.0 0.00 0.00 0.00 52 1011.6
20260901004928 82 339 0.0 0.0 0.00 0.00 0.00 51 1011.6
20260901004814 82 28 0.0 0.0 0.00 0.00 0.00 51 1011.5
20260901004810 82 339 0.0 0.0 0.00 0.00 0.00 52 1011.6
20260901004800 82 339 0.0 1.0 0.00 0.00 0.00 52 1011.6
20260901004748 82 28 0.0 0.0 0.00 0.00 0.00 52 1011.5
20260901004709 82 187 0.0 2.0 0.00 0.00 0.00 51 1012.3
20260901004616 82 28 0.0 0.0 0.00 0.00 0.00 51 1011.5
20260901004536 82 28 0.0 0.0 0.00 0.00 0.00 52 1011.5
20260901004455 83 28 0.0 0.0 0.00 0.00 0.00 51 1011.5
20260901004451 82 28 0.0 0.0 0.00 0.00 0.00 51 1011.5
20260901004325 83 333 0.0 0.0 0.00 0.00 0.00 50 1011.5
20260901004315 82 28 0.0 0.0 0.00 0.00 0.00 51 1011.5
20260901004204 83 339 1.0 3.0 0.00 0.00 0.00 51 1012.4
20260901004142 83 333 0.0 0.0 0.00 0.00 0.00 50 1011.5
20260901004136 82 28 0.0 0.0 0.00 0.00 0.00 51 1011.5
20260901004125 83 333 0.0 0.0 0.00 0.00 0.00 50 1011.5
20260901004113 84 333 0.0 0.0 0.00 0.00 0.00 49 1011.5
20260901004102 83 28 0.0 0.0 0.00 0.00 0.00 51 1011.5
20260901004047 83 28 0.0 0.0 0.00 0.00 0.00 51 1011.5
20260901003928 83 28 0.0 0.0 0.00 0.00 0.00 50 1011.5
20260901003918 83 28 0.0 0.0 0.00 0.00 0.00 51 1011.5
20260901003905 83 28 0.0 1.0 0.00 0.00 0.00 51 1011.5
20260901003854 83 333 0.0 0.0 0.00 0.00 0.00 51 1011.5
20260901003703 83 2 1.0 2.0 0.00 0.00 0.00 51 1012.5
20260901003437 83 333 0.0 0.0 0.00 0.00 0.00 50 1011.5
20260901003406 83 333 0.0 0.0 0.00 0.00 0.00 50 1011.5
20260901003335 84 333 0.0 0.0 0.00 0.00 0.00 50 1011.5
20260901003306 84 333 0.0 0.0 0.00 0.00 0.00 49 1011.5
20260901003236 84 333 0.0 0.0 0.00 0.00 0.00 49 1011.5
20260901003207 84 333 0.0 0.0 0.00 0.00 0.00 49 1011.5
20260901003158 84 232 0.0 3.0 0.00 0.00 0.00 49 1012.2
20260901003156 84 333 0.0 0.0 0.00 0.00 0.00 50 1011.5
20260901003146 84 333 0.0 0.0 0.00 0.00 0.00 50 1011.5
20260901002935 84 333 0.0 0.0 0.00 0.00 0.00 49 1011.5
20260901002907 84 333 0.0 0.0 0.00 0.00 0.00 49 1011.5
20260901002835 84 333 0.0 0.0 0.00 0.00 0.00 49 1011.5
20260901002825 85 6 0.0 0.0 0.00 0.00 0.00 49 1011.6
20260901002808 84 333 0.0 0.0 0.00 0.00 0.00 49 1011.5
20260901002737 84 333 0.0 0.0 0.00 0.00 0.00 49 1011.5
20260901002657 84 209 0.0 3.0 0.00 0.00 0.00 49 1012.3
20260901002636 84 6 0.0 0.0 0.00 0.00 0.00 49 1011.6
20260901002606 84 6 0.0 0.0 0.00 0.00 0.00 49 1011.6
20260901002543 85 6 0.0 0.0 0.00 0.00 0.00 48 1011.6
20260901002536 85 6 0.0 0.0 0.00 0.00 0.00 49 1011.6
20260901002513 85 6 0.0 0.0 0.00 0.00 0.00 48 1011.6
20260901002505 85 6 0.0 0.0 0.00 0.00 0.00 49 1011.6
20260901002306 85 6 0.0 0.0 0.00 0.00 0.00 49 1011.6
20260901002252 86 6 0.0 0.0 0.00 0.00 0.00 48 1011.6
20260901002235 85 6 0.0 0.0 0.00 0.00 0.00 48 1011.6
20260901002219 86 239 0.0 0.0 0.00 0.00 0.00 47 1011.7
20260901002213 85 6 0.0 0.0 0.00 0.00 0.00 49 1011.6
20260901002152 85 178 0.0 3.0 0.00 0.00 0.00 49 1012.4
20260901001926 85 6 0.0 0.0 0.00 0.00 0.00 48 1011.6
20260901001916 86 6 0.0 0.0 0.00 0.00 0.00 48 1011.6
20260901001736 86 6 0.0 0.0 0.00 0.00 0.00 48 1011.6
20260901001652 86 239 0.0 0.0 0.00 0.00 0.00 47 1011.7
20260901001647 86 345 0.0 3.0 0.00 0.00 0.00 48 1012.5
20260901001444 88 239 0.0 0.0 0.00 0.00 0.00 46 1011.7
20260901001436 86 239 0.0 0.0 0.00 0.00 0.00 47 1011.7
20260901001406 86 239 0.0 0.0 0.00 0.00 0.00 47 1011.7
20260901001335 86 239 0.0 0.0 0.00 0.00 0.00 47 1011.7
20260901001236 87 239 0.0 0.0 0.00 0.00 0.00 47 1011.7
20260901001214 89 239 0.0 2.0 0.00 0.00 0.00 45 1011.7
20260901001142 87 312 1.0 2.0 0.00 0.00 0.00 46 1012.3
20260901001137 87 239 0.0 0.0 0.00 0.00 0.00 46 1011.7
20260901001126 87 239 0.0 0.0 0.00 0.00 0.00 46 1011.7
20260901001116 88 239 0.0 0.0 0.00 0.00 0.00 46 1011.7
20260901000938 88 239 0.0 0.0 0.00 0.00 0.00 45 1011.7
20260901000925 90 322 0.0 0.0 0.00 0.00 0.00 44 1011.3
20260901000921 88 239 0.0 0.0 0.00 0.00 0.00 45 1011.7
20260901000857 89 239 0.0 0.0 0.00 0.00 0.00 45 1011.7
20260901000847 89 239 0.0 0.0 0.00 0.00 0.00 44 1011.7
20260901000645 90 322 0.0 0.0 0.00 0.00 0.00 44 1011.3
20260901000638 89 309 0.0 2.0 0.00 0.00 0.00 44 1012.5
20260901000636 89 322 0.0 0.0 0.00 0.00 0.00 44 1011.3
20260901000606 89 322 0.0 0.0 0.00 0.00 0.00 44 1011.3
20260901000535 89 322 0.0 0.0 0.00 0.00 0.00 44 1011.3
20260901000506 89 322 0.0 0.0 0.00 0.00 0.00 44 1011.3
20260901000444 90 322 0.0 0.0 0.00 0.00 0.00 44 1011.3
20260901000430 90 322 0.0 0.0 0.00 0.00 0.00 44 1011.3
20260901000137 90 322 0.0 0.0 0.00 0.00 0.00 43 1011.3
20260901000134 90 271 1.0 2.0 0.00 0.00 0.00 43 1012.3
20260901000115 91 231 0.0 0.0 0.00 0.00 0.00 43 1011.5
20260901000107 90 322 0.0 0.0 0.00 0.00 0.00 43 1011.3
20260901000035 90 322 0.0 0.0 0.00 0.00 0.00 43 1011.3
20260901000007 90 322 0.0 0.0 0.00 0.00 0.00 43 1011.3
20260831235936 90 322 0.0 0.0 0.00 0.00 0.00 43 1011.3
20260831235912 91 231 0.0 0.0 0.00 0.00 0.00 42 1011.5
20260831235905 90 322 0.0 0.0 0.00 0.00 0.00 43 1011.3
20260831235835 91 322 0.0 0.0 0.00 0.00 0.00 43 1011.3
20260831235813 91 231 0.0 0.0 0.00 0.00 0.00 43 1011.5
20260831235806 91 322 0.0 0.0 0.00 0.00 0.00 42 1011.3
20260831235753 91 322 0.0 1.0 0.00 0.00 0.00 43 1011.3
20260831235632 91 308 2.0 3.0 0.00 0.00 0.00 43 1012.3
20260831235557 91 231 0.0 0.0 0.00 0.00 0.00 40 1011.5
20260831235553 91 231 0.0 0.0 0.00 0.00 0.00 43 1011.5
20260831235427 91 231 0.0 0.0 0.00 0.00 0.00 43 1011.5
20260831235417 91 231 0.0 0.0 0.00 0.00 0.00 42 1011.5
20260831235236 91 231 0.0 0.0 0.00 0.00 0.00 43 1011.5
20260831235206 91 231 0.0 0.0 0.00 0.00 0.00 42 1011.5
20260831235135 91 231 0.0 0.0 0.00 0.00 0.00 42 1011.5
20260831235128 91 293 1.0 2.0 0.00 0.00 0.00 42 1012.3
20260831235057 91 231 0.0 0.0 0.00 0.00 0.00 42 1011.5
20260831235046 91 231 0.0 0.0 0.00 0.00 0.00 41 1011.5
20260831234906 92 231 0.0 0.0 0.00 0.00 0.00 41 1011.5
20260831234836 92 231 0.0 0.0 0.00 0.00 0.00 41 1011.5
20260831234806 92 231 0.0 0.0 0.00 0.00 0.00 41 1011.5
20260831234740 91 249 0.0 0.0 0.00 0.00 0.00 42 1011.2
20260831234736 91 231 0.0 2.0 0.00 0.00 0.00 41 1011.5
20260831234707 91 249 0.0 0.0 0.00 0.00 0.00 41 1011.2
20260831234637 91 249 0.0 0.0 0.00 0.00 0.00 42 1011.2
20260831234627 91 304 1.0 2.0 0.00 0.00 0.00 42 1012.3
20260831234536 91 249 0.0 0.0 0.00 0.00 0.00 42 1011.2
20260831234505 91 249 0.0 0.0 0.00 0.00 0.00 42 1011.2
20260831234440 91 249 0.0 0.0 0.00 0.00 0.00 43 1011.2
20260831234436 91 249 0.0 0.0 0.00 0.00 0.00 43 1011.2
20260831234426 91 249 0.0 0.0 0.00 0.00 0.00 43 1011.2
20260831234416 91 249 0.0 0.0 0.00 0.00 0.00 42 1011.2
20260831234235 91 249 0.0 0.0 0.00 0.00 0.00 41 1011.2
20260831234209 91 249 0.0 0.0 0.00 0.00 0.00 41 1011.2
20260831234159 91 276 1.0 0.0 0.00 0.00 0.00 43 1011.3
20260831234135 91 249 0.0 0.0 0.00 0.00 0.00 40 1011.2
20260831234122 91 300 1.0 2.0 0.00 0.00 0.00 40 1012.0
20260831234105 91 249 0.0 0.0 0.00 0.00 0.00 40 1011.2
20260831234035 91 249 0.0 0.0 0.00 0.00 0.00 41 1011.2
20260831234014 91 249 0.0 0.0 0.00 0.00 0.00 41 1011.2
20260831234000 91 249 0.0 0.0 0.00 0.00 0.00 42 1011.2
20260831233950 91 249 0.0 0.0 0.00 0.00 0.00 42 1011.2
20260831233637 90 276 1.0 0.0 0.00 0.00 0.00 43 1011.3
20260831233618 90 255 2.0 3.0 0.00 0.00 0.00 43 1012.1
20260831233613 91 276 1.0 0.0 0.00 0.00 0.00 43 1011.3
20260831233605 90 276 1.0 0.0 0.00 0.00 0.00 43 1011.3
20260831233509 90 276 1.0 0.0 0.00 0.00 0.00 43 1011.3
20260831233449 91 276 1.0 0.0 0.00 0.00 0.00 42 1011.3
20260831233436 90 276 1.0 0.0 0.00 0.00 0.00 43 1011.3
20260831233419 91 276 1.0 0.0 0.00 0.00 0.00 43 1011.3
20260831233407 90 276 1.0 0.0 0.00 0.00 0.00 44 1011.3
20260831233113 91 322 0.0 3.0 0.00 0.00 0.00 43 1012.0
20260831233111 91 276 1.0 0.0 0.00 0.00 0.00 43 1011.3
20260831233101 91 276 1.0 0.0 0.00 0.00 0.00 43 1011.3
20260831232939 91 276 1.0 0.0 0.00 0.00 0.00 42 1011.3
20260831232929 91 276 1.0 0.0 0.00 0.00 0.00 43 1011.3
20260831232749 91 253 0.0 0.0 0.00 0.00 0.00 42 1011.3
20260831232737 91 276 1.0 2.0 0.00 0.00 0.00 43 1011.3
20260831232706 91 253 0.0 0.0 0.00 0.00 0.00 43 1011.3
20260831232635 91 253 0.0 0.0 0.00 0.00 0.00 43 1011.3
20260831232608 91 298 1.0 2.0 0.00 0.00 0.00 44 1012.0
20260831232605 91 253 0.0 0.0 0.00 0.00 0.00 43 1011.3
20260831232535 91 253 0.0 0.0 0.00 0.00 0.00 43 1011.3
20260831232438 91 253 0.0 0.0 0.00 0.00 0.00 43 1011.3
20260831232424 91 253 0.0 0.0 0.00 0.00 0.00 43 1011.3
20260831232417 90 253 0.0 0.0 0.00 0.00 0.00 43 1011.3
20260831232236 91 253 0.0 0.0 0.00 0.00 0.00 42 1011.3
20260831232136 91 253 0.0 0.0 0.00 0.00 0.00 42 1011.3
20260831232112 91 283 1.0 0.0 0.00 0.00 0.00 44 1011.3
20260831232104 91 273 1.0 2.0 0.00 0.00 0.00 43 1012.2
20260831232036 91 253 0.0 0.0 0.00 0.00 0.00 43 1011.3
20260831232022 91 283 1.0 0.0 0.00 0.00 0.00 43 1011.3
20260831232015 91 253 0.0 0.0 0.00 0.00 0.00 43 1011.3
20260831231835 91 253 0.0 0.0 0.00 0.00 0.00 43 1011.3
20260831231813 92 283 1.0 0.0 0.00 0.00 0.00 43 1011.3
20260831231808 91 253 0.0 0.0 0.00 0.00 0.00 43 1011.3
20260831231758 91 253 0.0 3.0 0.00 0.00 0.00 43 1011.3
20260831231747 91 283 1.0 0.0 0.00 0.00 0.00 43 1011.3
20260831231608 91 283 1.0 0.0 0.00 0.00 0.00 43 1011.3
20260831231600 91 68 0.0 4.0 0.00 0.00 0.00 44 1012.2
20260831231558 91 283 1.0 0.0 0.00 0.00 0.00 44 1011.3
20260831231548 91 283 1.0 0.0 0.00 0.00 0.00 44 1011.3
20260831231413 92 283 1.0 0.0 0.00 0.00 0.00 42 1011.3
20260831231341 92 283 1.0 2.0 0.00 0.00 0.00 43 1011.3
20260831231336 91 283 1.0 0.0 0.00 0.00 0.00 44 1011.3
20260831231326 91 283 1.0 0.0 0.00 0.00 0.00 44 1011.3
20260831231316 91 283 1.0 0.0 0.00 0.00 0.00 43 1011.3
20260831231132 92 283 1.0 0.0 0.00 0.00 0.00 42 1011.3
20260831231105 93 283 1.0 0.0 0.00 0.00 0.00 41 1011.3
20260831231056 93 214 1.0 2.0 0.00 0.00 0.00 42 1012.2
20260831231051 92 283 1.0 0.0 0.00 0.00 0.00 42 1011.3
20260831230908 92 283 1.0 0.0 0.00 0.00 0.00 42 1011.3
20260831230858 92 283 1.0 0.0 0.00 0.00 0.00 43 1011.3
20260831230848 92 283 1.0 0.0 0.00 0.00 0.00 42 1011.3
20260831230709 91 237 2.0 0.0 0.00 0.00 0.00 44 1011.5
20260831230635 92 237 2.0 0.0 0.00 0.00 0.00 42 1011.5
20260831230605 92 237 2.0 0.0 0.00 0.00 0.00 42 1011.5
20260831230552 91 258 0.0 3.0 0.00 0.00 0.00 42 1012.3
20260831230546 90 237 2.0 0.0 0.00 0.00 0.00 44 1011.5
20260831230536 91 237 2.0 0.0 0.00 0.00 0.00 42 1011.5
20260831230507 91 237 2.0 0.0 0.00 0.00 0.00 42 1011.5
20260831230439 92 237 2.0 0.0 0.00 0.00 0.00 41 1011.5
20260831230408 92 237 2.0 0.0 0.00 0.00 0.00 42 1011.5
20260831230358 91 237 2.0 0.0 0.00 0.00 0.00 43 1011.5
20260831230348 91 237 2.0 0.0 0.00 0.00 0.00 43 1011.5
20260831230225 92 207 0.0 0.0 0.00 0.00 0.00 42 1011.2
20260831230216 90 237 2.0 0.0 0.00 0.00 0.00 44 1011.5
20260831230051 90 275 2.0 6.0 0.00 0.00 0.00 45 1012.3
20260831230036 90 237 2.0 0.0 0.00 0.00 0.00 45 1011.5
20260831230006 90 237 2.0 0.0 0.00 0.00 0.00 45 1011.5
20260831225936 90 237 2.0 0.0 0.00 0.00 0.00 45 1011.5
20260831225905 90 237 2.0 0.0 0.00 0.00 0.00 44 1011.5
20260831225847 93 207 0.0 0.0 0.00 0.00 0.00 39 1011.2
20260831225836 91 237 2.0 0.0 0.00 0.00 0.00 44 1011.5
20260831225813 93 207 0.0 0.0 0.00 0.00 0.00 40 1011.2
20260831225809 91 237 2.0 0.0 0.00 0.00 0.00 44 1011.5
20260831225758 91 237 2.0 4.0 0.00 0.00 0.00 43 1011.5
20260831225747 92 207 0.0 0.0 0.00 0.00 0.00 43 1011.2
20260831225547 92 304 0.0 4.0 0.00 0.00 0.00 41 1012.2
20260831225535 92 207 0.0 0.0 0.00 0.00 0.00 41 1011.2
20260831225513 92 207 0.0 0.0 0.00 0.00 0.00 41 1011.2
20260831225503 92 207 0.0 0.0 0.00 0.00 0.00 41 1011.2
20260831225220 92 207 0.0 0.0 0.00 0.00 0.00 43 1011.2
20260831225206 93 207 0.0 0.0 0.00 0.00 0.00 40 1011.2
20260831225135 93 207 0.0 0.0 0.00 0.00 0.00 41 1011.2
20260831225105 93 207 0.0 0.0 0.00 0.00 0.00 41 1011.2
20260831225041 92 279 0.0 2.0 0.00 0.00 0.00 42 1012.3
20260831225036 92 207 0.0 0.0 0.00 0.00 0.00 42 1011.2
20260831225019 92 353 0.0 0.0 0.00 0.00 0.00 42 1011.3
20260831225006 92 207 0.0 0.0 0.00 0.00 0.00 42 1011.2
20260831224936 92 207 0.0 0.0 0.00 0.00 0.00 42 1011.2
20260831224908 92 207 0.0 0.0 0.00 0.00 0.00 42 1011.2
20260831224857 92 207 0.0 0.0 0.00 0.00 0.00 43 1011.2
20260831224847 92 207 0.0 0.0 0.00 0.00 0.00 43 1011.2
20260831224716 92 353 0.0 0.0 0.00 0.00 0.00 42 1011.3
20260831224707 91 353 0.0 0.0 0.00 0.00 0.00 43 1011.3
20260831224658 92 353 0.0 0.0 0.00 0.00 0.00 41 1011.3
20260831224653 92 353 0.0 0.0 0.00 0.00 0.00 43 1011.3
20260831224536 93 306 0.0 2.0 0.00 0.00 0.00 43 1012.3
20260831224506 92 353 0.0 0.0 0.00 0.00 0.00 43 1011.3
20260831224435 93 353 0.0 0.0 0.00 0.00 0.00 42 1011.3
20260831224357 92 211 3.0 0.0 0.00 0.00 0.00 42 1011.6
20260831224351 93 353 0.0 0.0 0.00 0.00 0.00 42 1011.3
20260831224216 92 353 0.0 0.0 0.00 0.00 0.00 41 1011.3
20260831224035 92 353 0.0 0.0 0.00 0.00 0.00 41 1011.3
20260831224032 92 253 0.0 2.0 0.00 0.00 0.00 41 1012.4
20260831224013 92 211 3.0 0.0 0.00 0.00 0.00 42 1011.6
20260831224005 92 353 0.0 0.0 0.00 0.00 0.00 41 1011.3
20260831223935 92 353 0.0 0.0 0.00 0.00 0.00 42 1011.3
20260831223906 92 353 0.0 0.0 0.00 0.00 0.00 41 1011.3
20260831223844 92 353 0.0 0.0 0.00 0.00 0.00 42 1011.3
20260831223835 92 353 0.0 0.0 0.00 0.00 0.00 42 1011.3
20260831223824 92 353 0.0 2.0 0.00 0.00 0.00 41 1011.3
20260831223704 92 211 3.0 0.0 0.00 0.00 0.00 41 1011.6
20260831223650 92 211 3.0 0.0 0.00 0.00 0.00 42 1011.6
20260831223527 92 238 3.0 4.0 0.00 0.00 0.00 41 1012.3
20260831223451 90 211 3.0 0.0 0.00 0.00 0.00 44 1011.6
20260831223441 92 211 3.0 0.0 0.00 0.00 0.00 41 1011.6
20260831223351 92 211 3.0 0.0 0.00 0.00 0.00 42 1011.6
20260831223206 92 211 3.0 0.0 0.00 0.00 0.00 42 1011.6
20260831223134 91 211 3.0 0.0 0.00 0.00 0.00 42 1011.6
20260831223115 91 211 3.0 0.0 0.00 0.00 0.00 43 1011.6
20260831223023 90 269 0.0 2.0 0.00 0.00 0.00 44 1012.2
20260831222934 90 211 3.0 0.0 0.00 0.00 0.00 44 1011.6
20260831222905 90 211 3.0 0.0 0.00 0.00 0.00 45 1011.6
20260831222834 90 211 3.0 0.0 0.00 0.00 0.00 44 1011.6
20260831222806 89 211 3.0 0.0 0.00 0.00 0.00 44 1011.6
20260831222736 90 211 3.0 4.0 0.00 0.00 0.00 44 1011.6
20260831222704 90 283 1.0 0.0 0.00 0.00 0.00 44 1011.8
20260831222635 91 283 1.0 0.0 0.00 0.00 0.00 44 1011.8
20260831222605 91 283 1.0 0.0 0.00 0.00 0.00 43 1011.8
20260831222534 91 283 1.0 0.0 0.00 0.00 0.00 42 1011.8
20260831222519 91 260 2.0 5.0 0.00 0.00 0.00 43 1012.3
20260831222505 91 283 1.0 0.0 0.00 0.00 0.00 43 1011.8
20260831222444 91 283 1.0 0.0 0.00 0.00 0.00 40 1011.8
20260831222435 90 283 1.0 0.0 0.00 0.00 0.00 43 1011.8
20260831222417 90 283 1.0 0.0 0.00 0.00 0.00 43 1011.8
20260831222334 91 283 1.0 0.0 0.00 0.00 0.00 42 1011.8
20260831222306 91 283 1.0 0.0 0.00 0.00 0.00 41 1011.8
20260831222247 91 283 1.0 0.0 0.00 0.00 0.00 41 1011.8
20260831222234 91 283 1.0 0.0 0.00 0.00 0.00 41 1011.8
20260831222205 91 283 1.0 0.0 0.00 0.00 0.00 40 1011.8
20260831222137 91 283 1.0 0.0 0.00 0.00 0.00 41 1011.8
20260831222126 91 283 1.0 0.0 0.00 0.00 0.00 39 1011.8
20260831222117 91 283 1.0 0.0 0.00 0.00 0.00 38 1011.8
20260831222019 91 272 0.0 3.0 0.00 0.00 0.00 40 1012.5
20260831221935 91 283 1.0 0.0 0.00 0.00 0.00 40 1011.8
20260831221924 91 283 1.0 0.0 0.00 0.00 0.00 39 1011.8
20260831221914 91 283 1.0 0.0 0.00 0.00 0.00 40 1011.8
20260831221736 91 283 1.0 2.0 0.00 0.00 0.00 41 1011.8
20260831221706 91 180 1.0 0.0 0.00 0.00 0.00 41 1011.7
20260831221656 91 180 1.0 0.0 0.00 0.00 0.00 39 1011.7
20260831221635 91 180 1.0 0.0 0.00 0.00 0.00 42 1011.7
20260831221607 91 180 1.0 0.0 0.00 0.00 0.00 43 1011.7
20260831221534 91 180 1.0 0.0 0.00 0.00 0.00 43 1011.7
20260831221517 91 180 1.0 0.0 0.00 0.00 0.00 32 1011.7
20260831221515 91 275 1.0 4.0 0.00 0.00 0.00 43 1012.6
20260831221435 91 180 1.0 0.0 0.00 0.00 0.00 43 1011.7
20260831221405 91 180 1.0 0.0 0.00 0.00 0.00 43 1011.7
20260831221347 91 180 1.0 0.0 0.00 0.00 0.00 42 1011.7
20260831221338 91 180 1.0 0.0 0.00 0.00 0.00 42 1011.7
20260831221327 91 180 1.0 0.0 0.00 0.00 0.00 41 1011.7
20260831221150 91 180 1.0 0.0 0.00 0.00 0.00 38 1011.7
20260831221009 91 290 1.0 6.0 0.00 0.00 0.00 40 1012.7
20260831221005 91 180 1.0 0.0 0.00 0.00 0.00 36 1011.7
20260831220944 89 196 2.0 0.0 0.00 0.00 0.00 33 1011.7
20260831220934 91 180 1.0 0.0 0.00 0.00 0.00 40 1011.7
20260831220905 90 180 1.0 0.0 0.00 0.00 0.00 39 1011.7
20260831220835 90 180 1.0 0.0 0.00 0.00 0.00 32 1011.7
20260831220804 90 180 1.0 0.0 0.00 0.00 0.00 31 1011.7
20260831220736 91 180 1.0 6.0 0.00 0.00 0.00 31 1011.7
20260831220635 90 196 2.0 0.0 0.00 0.00 0.00 33 1011.7
20260831220616 90 196 2.0 0.0 0.00 0.00 0.00 33 1011.7
20260831220505 89 242 4.0 6.0 0.00 0.00 0.00 33 1012.5
20260831220435 89 196 2.0 0.0 0.00 0.00 0.00 33 1011.7
20260831220404 89 196 2.0 0.0 0.00 0.00 0.00 33 1011.7
20260831220337 89 196 2.0 0.0 0.00 0.00 0.00 34 1011.7
20260831220312 89 196 2.0 0.0 0.00 0.00 0.00 37 1011.7
20260831220236 89 196 2.0 0.0 0.00 0.00 0.00 33 1011.7
20260831220135 90 196 2.0 0.0 0.00 0.00 0.00 34 1011.7
20260831220108 90 196 2.0 0.0 0.00 0.00 0.00 35 1011.7
20260831220035 90 196 2.0 0.0 0.00 0.00 0.00 37 1011.7
20260831220000 89 140 3.0 8.0 0.00 0.00 0.00 37 1012.5
20260831215952 89 196 2.0 0.0 0.00 0.00 0.00 37 1011.7
20260831215804 89 196 2.0 0.0 0.00 0.00 0.00 37 1011.7
20260831215737 89 196 2.0 2.0 0.00 0.00 0.00 38 1011.7
20260831215726 89 126 1.0 0.0 0.00 0.00 0.00 38 1012.1
20260831215706 89 126 1.0 0.0 0.00 0.00 0.00 38 1012.1
20260831215635 89 126 1.0 0.0 0.00 0.00 0.00 38 1012.1
20260831215625 89 126 1.0 0.0 0.00 0.00 0.00 38 1012.1
20260831215605 89 126 1.0 0.0 0.00 0.00 0.00 38 1012.1
20260831215534 89 126 1.0 0.0 0.00 0.00 0.00 38 1012.1
20260831215506 88 126 1.0 0.0 0.00 0.00 0.00 38 1012.1
20260831215455 89 234 2.0 11.0 0.00 0.00 0.00 38 1013.0
20260831215434 89 126 1.0 0.0 0.00 0.00 0.00 38 1012.1
20260831215414 88 110 3.0 0.0 0.00 0.00 0.00 39 1012.0
20260831215408 89 126 1.0 0.0 0.00 0.00 0.00 38 1012.1
20260831215036 90 126 1.0 0.0 0.00 0.00 0.00 38 1012.1
20260831214951 89 191 0.0 4.0 0.00 0.00 0.00 38 1013.0
20260831214935 89 126 1.0 0.0 0.00 0.00 0.00 38 1012.1
20260831214840 89 126 1.0 0.0 0.00 0.00 0.00 38 1012.1
20260831214827 88 126 1.0 0.0 0.00 0.00 0.00 39 1012.1
20260831214817 88 126 1.0 4.0 0.00 0.00 0.00 38 1012.1
20260831214634 89 110 3.0 0.0 0.00 0.00 0.00 38 1012.0
20260831214534 89 110 3.0 0.0 0.00 0.00 0.00 38 1012.0
20260831214518 88 110 3.0 0.0 0.00 0.00 0.00 39 1012.0
20260831214449 89 132 0.0 4.0 0.00 0.00 0.00 39 1012.7
20260831214434 89 110 3.0 0.0 0.00 0.00 0.00 38 1012.0
20260831214404 89 110 3.0 0.0 0.00 0.00 0.00 39 1012.0
20260831214334 89 110 3.0 0.0 0.00 0.00 0.00 39 1012.0
20260831214306 89 110 3.0 0.0 0.00 0.00 0.00 39 1012.0
20260831214234 89 110 3.0 0.0 0.00 0.00 0.00 39 1012.0
20260831214156 87 128 3.0 0.0 0.00 0.00 0.00 39 1012.0
20260831214152 88 110 3.0 0.0 0.00 0.00 0.00 39 1012.0
20260831214005 87 110 3.0 0.0 0.00 0.00 0.00 40 1012.0
20260831213944 87 69 4.0 15.0 0.00 0.00 0.00 40 1013.1
20260831213935 87 110 3.0 0.0 0.00 0.00 0.00 40 1012.0
20260831213856 89 128 3.0 0.0 0.00 0.00 0.00 39 1012.0
20260831213852 87 110 3.0 0.0 0.00 0.00 0.00 40 1012.0
20260831213840 87 110 3.0 0.0 0.00 0.00 0.00 40 1012.0
20260831213818 87 110 3.0 10.0 0.00 0.00 0.00 40 1012.0
20260831213635 87 128 3.0 0.0 0.00 0.00 0.00 39 1012.0
20260831213604 88 128 3.0 0.0 0.00 0.00 0.00 39 1012.0
20260831213534 88 128 3.0 0.0 0.00 0.00 0.00 39 1012.0
20260831213441 88 213 8.0 8.0 0.00 0.00 0.00 39 1013.0
20260831213436 88 128 3.0 0.0 0.00 0.00 0.00 39 1012.0
20260831213426 88 128 3.0 0.0 0.00 0.00 0.00 39 1012.0
20260831213351 88 128 3.0 0.0 0.00 0.00 0.00 39 1012.0
20260831213135 89 128 3.0 0.0 0.00 0.00 0.00 39 1012.0
20260831213108 87 156 4.0 0.0 0.00 0.00 0.00 40 1012.3
20260831213050 88 128 3.0 0.0 0.00 0.00 0.00 39 1012.0
20260831212940 88 131 2.0 6.0 0.00 0.00 0.00 40 1013.1
20260831212904 88 128 3.0 0.0 0.00 0.00 0.00 39 1012.0
20260831212854 87 156 4.0 0.0 0.00 0.00 0.00 40 1012.3
20260831212834 88 128 3.0 0.0 0.00 0.00 0.00 40 1012.0
20260831212820 87 218 8.0 0.0 0.00 0.00 0.00 40 1012.2
20260831212810 88 128 3.0 0.0 0.00 0.00 0.00 39 1012.0
20260831212757 88 128 3.0 4.0 0.00 0.00 0.00 40 1012.0
20260831212558 88 156 4.0 0.0 0.00 0.00 0.00 39 1012.3
20260831212549 87 156 4.0 0.0 0.00 0.00 0.00 40 1012.3
20260831212544 87 156 4.0 0.0 0.00 0.00 0.00 40 1012.3
20260831212526 87 156 4.0 0.0 0.00 0.00 0.00 40 1012.3
20260831212437 88 114 1.0 7.0 0.00 0.00 0.00 40 1013.0
20260831212351 88 156 4.0 0.0 0.00 0.00 0.00 40 1012.3
20260831212340 87 156 4.0 0.0 0.00 0.00 0.00 40 1012.3
20260831212330 88 156 4.0 0.0 0.00 0.00 0.00 40 1012.3
20260831212208 88 156 4.0 0.0 0.00 0.00 0.00 39 1012.3
20260831212156 88 156 4.0 0.0 0.00 0.00 0.00 39 1012.3
20260831211937 87 158 0.0 9.0 0.00 0.00 0.00 40 1013.2
20260831211738 87 156 4.0 9.0 0.00 0.00 0.00 39 1012.3
20260831211718 87 218 8.0 0.0 0.00 0.00 0.00 40 1012.2
20260831211634 87 218 8.0 0.0 0.00 0.00 0.00 40 1012.2
20260831211536 87 218 8.0 0.0 0.00 0.00 0.00 40 1012.2
20260831211525 87 218 8.0 0.0 0.00 0.00 0.00 39 1012.2
20260831211515 87 218 8.0 0.0 0.00 0.00 0.00 40 1012.2
20260831211432 87 129 7.0 9.0 0.00 0.00 0.00 40 1013.1
20260831211334 87 218 8.0 0.0 0.00 0.00 0.00 40 1012.2
20260831211306 87 218 8.0 0.0 0.00 0.00 0.00 40 1012.2
20260831211235 87 218 8.0 0.0 0.00 0.00 0.00 40 1012.2
20260831211135 87 218 8.0 0.0 0.00 0.00 0.00 40 1012.2
20260831211036 87 218 8.0 0.0 0.00 0.00 0.00 40 1012.2
20260831211009 87 218 8.0 0.0 0.00 0.00 0.00 41 1012.2
20260831210934 87 218 8.0 0.0 0.00 0.00 0.00 40 1012.2
20260831210931 87 203 3.0 9.0 0.00 0.00 0.00 40 1013.3
20260831210834 87 218 8.0 0.0 0.00 0.00 0.00 40 1012.2
20260831210810 89 174 2.0 0.0 0.00 0.00 0.00 39 1012.2
20260831210804 88 218 8.0 0.0 0.00 0.00 0.00 40 1012.2
20260831210736 88 218 8.0 9.0 0.00 0.00 0.00 39 1012.2
20260831210706 88 174 2.0 0.0 0.00 0.00 0.00 39 1012.2
20260831210635 88 174 2.0 0.0 0.00 0.00 0.00 40 1012.2
20260831210617 88 174 2.0 0.0 0.00 0.00 0.00 40 1012.2
20260831210534 88 174 2.0 0.0 0.00 0.00 0.00 40 1012.2
20260831210454 88 174 2.0 0.0 0.00 0.00 0.00 40 1012.2
20260831210445 88 174 2.0 0.0 0.00 0.00 0.00 40 1012.2
20260831210426 89 147 7.0 11.0 0.00 0.00 0.00 39 1013.2
20260831210306 89 174 2.0 0.0 0.00 0.00 0.00 40 1012.2
20260831210234 88 174 2.0 0.0 0.00 0.00 0.00 40 1012.2
20260831210204 88 174 2.0 0.0 0.00 0.00 0.00 41 1012.2
20260831210134 88 174 2.0 0.0 0.00 0.00 0.00 40 1012.2
20260831210116 88 174 2.0 0.0 0.00 0.00 0.00 41 1012.2
20260831210034 87 174 2.0 0.0 0.00 0.00 0.00 40 1012.2
20260831210006 88 174 2.0 0.0 0.00 0.00 0.00 41 1012.2
20260831205936 88 174 2.0 0.0 0.00 0.00 0.00 40 1012.2
20260831205922 88 171 2.0 7.0 0.00 0.00 0.00 40 1013.2
20260831205917 88 174 2.0 0.0 0.00 0.00 0.00 40 1012.2
20260831205834 88 174 2.0 0.0 0.00 0.00 0.00 40 1012.2
20260831205805 88 174 2.0 0.0 0.00 0.00 0.00 40 1012.2
20260831205736 88 174 2.0 2.0 0.00 0.00 0.00 41 1012.2
20260831205708 88 208 2.0 0.0 0.00 0.00 0.00 42 1012.2
20260831205634 87 208 2.0 0.0 0.00 0.00 0.00 43 1012.2
20260831205612 87 208 2.0 0.0 0.00 0.00 0.00 44 1012.2
20260831205536 87 208 2.0 0.0 0.00 0.00 0.00 43 1012.2
20260831205511 87 208 2.0 0.0 0.00 0.00 0.00 44 1012.2
20260831205435 88 208 2.0 0.0 0.00 0.00 0.00 43 1012.2
20260831205418 87 265 0.0 4.0 0.00 0.00 0.00 44 1013.1
20260831205405 87 208 2.0 0.0 0.00 0.00 0.00 43 1012.2
20260831205335 87 208 2.0 0.0 0.00 0.00 0.00 44 1012.2
20260831205325 87 208 2.0 0.0 0.00 0.00 0.00 44 1012.2
20260831205315 87 208 2.0 3.0 0.00 0.00 0.00 44 1012.2
20260831205258 87 208 2.0 0.0 0.00 0.00 0.00 44 1012.2
20260831205241 87 208 2.0 0.0 0.00 0.00 0.00 44 1012.2
20260831204957 87 208 2.0 0.0 0.00 0.00 0.00 44 1012.2
20260831204918 87 150 4.0 6.0 0.00 0.00 0.00 44 1013.3
20260831204713 88 220 3.0 0.0 0.00 0.00 0.00 44 1012.4
20260831204635 87 220 3.0 0.0 0.00 0.00 0.00 45 1012.4
20260831204604 87 220 3.0 0.0 0.00 0.00 0.00 45 1012.4
20260831204534 87 220 3.0 0.0 0.00 0.00 0.00 45 1012.4
20260831204505 87 220 3.0 0.0 0.00 0.00 0.00 44 1012.4
20260831204436 88 220 3.0 0.0 0.00 0.00 0.00 44 1012.4
20260831204418 88 182 2.0 5.0 0.00 0.00 0.00 44 1013.2
20260831204356 87 220 3.0 0.0 0.00 0.00 0.00 45 1012.4
20260831204352 87 220 3.0 0.0 0.00 0.00 0.00 44 1012.4
20260831204205 88 220 3.0 0.0 0.00 0.00 0.00 44 1012.4
20260831204134 87 220 3.0 0.0 0.00 0.00 0.00 44 1012.4
20260831204034 87 220 3.0 0.0 0.00 0.00 0.00 44 1012.4
20260831203955 87 220 3.0 0.0 0.00 0.00 0.00 45 1012.4
20260831203945 87 220 3.0 0.0 0.00 0.00 0.00 46 1012.4
20260831203917 87 296 0.0 4.0 0.00 0.00 0.00 46 1013.3
20260831203818 87 220 3.0 0.0 0.00 0.00 0.00 46 1012.4
20260831203737 87 220 3.0 4.0 0.00 0.00 0.00 45 1012.4
20260831203711 88 266 0.0 0.0 0.00 0.00 0.00 44 1012.6
20260831203635 87 123 0.0 0.0 0.00 0.00 0.00 46 1012.4
20260831203535 87 123 0.0 0.0 0.00 0.00 0.00 45 1012.4
20260831203519 88 123 0.0 0.0 0.00 0.00 0.00 45 1012.4
20260831203504 87 123 0.0 0.0 0.00 0.00 0.00 45 1012.4
20260831203434 87 123 0.0 0.0 0.00 0.00 0.00 46 1012.4
20260831203413 87 123 0.0 0.0 0.00 0.00 0.00 46 1012.4
20260831203353 88 266 0.0 0.0 0.00 0.00 0.00 45 1012.6
20260831203347 87 123 0.0 0.0 0.00 0.00 0.00 46 1012.4
20260831203334 87 123 0.0 0.0 0.00 0.00 0.00 46 1012.4
20260831203205 87 123 0.0 0.0 0.00 0.00 0.00 45 1012.4
20260831203157 87 123 0.0 0.0 0.00 0.00 0.00 45 1012.4
20260831203147 88 123 0.0 0.0 0.00 0.00 0.00 45 1012.4
20260831203022 87 123 0.0 0.0 0.00 0.00 0.00 45 1012.4
20260831203013 87 123 0.0 0.0 0.00 0.00 0.00 45 1012.4
20260831202910 87 195 2.0 5.0 0.00 0.00 0.00 45 1013.5
20260831202851 88 123 0.0 0.0 0.00 0.00 0.00 45 1012.4
20260831202841 88 123 0.0 5.0 0.00 0.00 0.00 45 1012.4
20260831202535 88 266 0.0 0.0 0.00 0.00 0.00 44 1012.6
20260831202434 88 266 0.0 0.0 0.00 0.00 0.00 43 1012.6
20260831202406 88 61 1.0 2.0 0.00 0.00 0.00 43 1013.6
20260831202335 88 266 0.0 0.0 0.00 0.00 0.00 44 1012.6
20260831202306 88 266 0.0 0.0 0.00 0.00 0.00 43 1012.6
20260831202242 87 266 0.0 0.0 0.00 0.00 0.00 45 1012.6
20260831202234 88 266 0.0 0.0 0.00 0.00 0.00 43 1012.6
20260831202205 87 266 0.0 0.0 0.00 0.00 0.00 44 1012.6
20260831202135 87 266 0.0 0.0 0.00 0.00 0.00 45 1012.6
20260831202105 87 266 0.0 0.0 0.00 0.00 0.00 45 1012.6
20260831202034 87 266 0.0 0.0 0.00 0.00 0.00 44 1012.6
20260831202005 87 266 0.0 0.0 0.00 0.00 0.00 45 1012.6
20260831201935 87 266 0.0 0.0 0.00 0.00 0.00 45 1012.6
20260831201923 85 239 0.0 0.0 0.00 0.00 0.00 47 1012.7
20260831201916 87 266 0.0 0.0 0.00 0.00 0.00 45 1012.6
20260831201905 87 10 3.0 3.0 0.00 0.00 0.00 45 1013.5
20260831201736 86 266 0.0 2.0 0.00 0.00 0.00 45 1012.6
20260831201705 86 239 0.0 0.0 0.00 0.00 0.00 47 1012.7
20260831201635 85 239 0.0 0.0 0.00 0.00 0.00 47 1012.7
20260831201604 85 239 0.0 0.0 0.00 0.00 0.00 47 1012.7
20260831201535 85 239 0.0 0.0 0.00 0.00 0.00 46 1012.7
20260831201526 86 239 0.0 0.0 0.00 0.00 0.00 46 1012.7
20260831201516 86 239 0.0 0.0 0.00 0.00 0.00 47 1012.7
20260831201404 85 140 3.0 9.0 0.00 0.00 0.00 47 1013.5
20260831201334 85 239 0.0 0.0 0.00 0.00 0.00 47 1012.7
20260831201307 85 239 0.0 0.0 0.00 0.00 0.00 47 1012.7
20260831201234 86 239 0.0 0.0 0.00 0.00 0.00 46 1012.7
20260831201135 85 239 0.0 0.0 0.00 0.00 0.00 47 1012.7
20260831201109 86 250 0.0 0.0 0.00 0.00 0.00 47 1012.8
20260831201105 85 239 0.0 0.0 0.00 0.00 0.00 45 1012.7
20260831201037 85 239 0.0 0.0 0.00 0.00 0.00 46 1012.7
20260831201005 86 239 0.0 0.0 0.00 0.00 0.00 46 1012.7
20260831200934 86 239 0.0 0.0 0.00 0.00 0.00 46 1012.7
20260831200913 85 250 0.0 0.0 0.00 0.00 0.00 48 1012.8
20260831200904 86 239 0.0 0.0 0.00 0.00 0.00 46 1012.7
20260831200900 87 206 8.0 8.0 0.00 0.00 0.00 46 1013.6
20260831200837 87 239 0.0 0.0 0.00 0.00 0.00 46 1012.7
20260831200822 85 250 0.0 0.0 0.00 0.00 0.00 48 1012.8
20260831200814 85 250 0.0 0.0 0.00 0.00 0.00 48 1012.8
20260831200804 87 239 0.0 0.0 0.00 0.00 0.00 46 1012.7
20260831200753 85 250 0.0 1.0 0.00 0.00 0.00 47 1012.8
20260831200749 87 239 0.0 2.0 0.00 0.00 0.00 46 1012.7
20260831200737 87 250 0.0 0.0 0.00 0.00 0.00 46 1012.8
20260831200727 87 250 0.0 0.0 0.00 0.00 0.00 47 1012.8
20260831200717 86 250 0.0 0.0 0.00 0.00 0.00 46 1012.8
20260831200551 86 250 0.0 0.0 0.00 0.00 0.00 47 1012.8
20260831200541 86 250 0.0 0.0 0.00 0.00 0.00 47 1012.8
20260831200355 86 311 0.0 1.0 0.00 0.00 0.00 48 1013.7
20260831200134 85 250 0.0 0.0 0.00 0.00 0.00 48 1012.8
20260831200111 85 250 0.0 0.0 0.00 0.00 0.00 48 1012.8
20260831200035 85 250 0.0 0.0 0.00 0.00 0.00 47 1012.8
20260831200006 85 250 0.0 0.0 0.00 0.00 0.00 47 1012.8
20260831195935 86 250 0.0 0.0 0.00 0.00 0.00 47 1012.8
20260831195857 86 250 0.0 0.0 0.00 0.00 0.00 47 1012.8
20260831195855 86 221 2.0 5.0 0.00 0.00 0.00 47 1013.5
20260831195846 85 250 0.0 0.0 0.00 0.00 0.00 47 1012.8
20260831195705 85 132 0.0 0.0 0.00 0.00 0.00 48 1012.9
20260831195635 86 132 0.0 0.0 0.00 0.00 0.00 47 1012.9
20260831195606 86 132 0.0 0.0 0.00 0.00 0.00 48 1012.9
20260831195534 85 132 0.0 0.0 0.00 0.00 0.00 48 1012.9
20260831195436 85 132 0.0 0.0 0.00 0.00 0.00 48 1012.9
20260831195406 84 132 0.0 0.0 0.00 0.00 0.00 48 1012.9
20260831195351 84 91 1.0 5.0 0.00 0.00 0.00 48 1013.8
20260831195334 84 132 0.0 0.0 0.00 0.00 0.00 49 1012.9
20260831195306 84 132 0.0 0.0 0.00 0.00 0.00 49 1012.9
20260831195235 84 132 0.0 0.0 0.00 0.00 0.00 48 1012.9
20260831195137 84 132 0.0 0.0 0.00 0.00 0.00 48 1012.9
20260831195127 85 348 2.0 0.0 0.00 0.00 0.00 45 1013.0
20260831195104 85 132 0.0 0.0 0.00 0.00 0.00 48 1012.9
20260831195034 85 132 0.0 0.0 0.00 0.00 0.00 47 1012.9
20260831195004 85 132 0.0 0.0 0.00 0.00 0.00 48 1012.9
20260831194947 85 348 2.0 0.0 0.00 0.00 0.00 45 1013.0
20260831194934 85 132 0.0 0.0 0.00 0.00 0.00 47 1012.9
20260831194905 86 132 0.0 0.0 0.00 0.00 0.00 47 1012.9
20260831194852 84 348 2.0 2.0 0.00 0.00 0.00 47 1013.0
20260831194847 86 193 2.0 3.0 0.00 0.00 0.00 45 1013.8
20260831194835 86 132 0.0 0.0 0.00 0.00 0.00 46 1012.9
20260831194821 85 348 2.0 0.0 0.00 0.00 0.00 45 1013.0
20260831194809 86 132 0.0 0.0 0.00 0.00 0.00 45 1012.9
20260831194759 86 132 0.0 0.0 0.00 0.00 0.00 45 1012.9
20260831194748 86 348 2.0 0.0 0.00 0.00 0.00 45 1013.0
20260831194623 85 348 2.0 0.0 0.00 0.00 0.00 45 1013.0
20260831194459 85 348 2.0 0.0 0.00 0.00 0.00 46 1013.0
20260831194450 85 348 2.0 0.0 0.00 0.00 0.00 45 1013.0
20260831194342 85 119 0.0 4.0 0.00 0.00 0.00 47 1013.8
20260831194336 85 348 2.0 0.0 0.00 0.00 0.00 46 1013.0
20260831194326 85 348 2.0 0.0 0.00 0.00 0.00 47 1013.0
20260831194315 85 348 2.0 0.0 0.00 0.00 0.00 46 1013.0
20260831194135 85 348 2.0 0.0 0.00 0.00 0.00 45 1013.0
20260831194104 85 348 2.0 0.0 0.00 0.00 0.00 45 1013.0
20260831194034 85 348 2.0 0.0 0.00 0.00 0.00 45 1013.0
20260831194021 84 209 6.0 0.0 0.00 0.00 0.00 45 1013.2
20260831194005 85 348 2.0 0.0 0.00 0.00 0.00 46 1013.0
20260831193935 84 348 2.0 0.0 0.00 0.00 0.00 47 1013.0
20260831193923 84 209 6.0 0.0 0.00 0.00 0.00 46 1013.2
20260831193911 83 209 6.0 0.0 0.00 0.00 0.00 45 1013.2
20260831193900 84 348 2.0 0.0 0.00 0.00 0.00 47 1013.0
20260831193850 84 348 2.0 0.0 0.00 0.00 0.00 46 1013.0
20260831193841 84 50 2.0 3.0 0.00 0.00 0.00 46 1014.0
20260831193726 84 209 6.0 0.0 0.00 0.00 0.00 46 1013.2
20260831193717 84 209 6.0 0.0 0.00 0.00 0.00 45 1013.2
20260831193705 84 209 6.0 0.0 0.00 0.00 0.00 46 1013.2
20260831193655 84 209 6.0 0.0 0.00 0.00 0.00 45 1013.2
20260831193405 84 209 6.0 0.0 0.00 0.00 0.00 46 1013.2
20260831193337 84 126 0.0 6.0 0.00 0.00 0.00 47 1014.1
20260831193334 84 209 6.0 0.0 0.00 0.00 0.00 47 1013.2
20260831193313 84 209 6.0 0.0 0.00 0.00 0.00 41 1013.2
20260831193304 84 209 6.0 0.0 0.00 0.00 0.00 47 1013.2
20260831193234 83 209 6.0 0.0 0.00 0.00 0.00 47 1013.2
20260831193154 83 209 6.0 0.0 0.00 0.00 0.00 46 1013.2
20260831193146 83 209 6.0 0.0 0.00 0.00 0.00 46 1013.2
20260831193007 83 209 6.0 0.0 0.00 0.00 0.00 44 1013.2
20260831192957 84 209 6.0 0.0 0.00 0.00 0.00 43 1013.2
20260831192947 84 209 6.0 0.0 0.00 0.00 0.00 42 1013.2
20260831192832 84 201 5.0 6.0 0.00 0.00 0.00 40 1014.1
20260831192806 84 209 6.0 0.0 0.00 0.00 0.00 40 1013.2
20260831192736 84 209 6.0 6.0 0.00 0.00 0.00 40 1013.2
20260831192705 85 175 0.0 0.0 0.00 0.00 0.00 42 1013.4
20260831192635 85 175 0.0 0.0 0.00 0.00 0.00 42 1013.4
20260831192605 85 175 0.0 0.0 0.00 0.00 0.00 41 1013.4
20260831192534 85 175 0.0 0.0 0.00 0.00 0.00 41 1013.4
20260831192506 85 175 0.0 0.0 0.00 0.00 0.00 43 1013.4
20260831192435 85 175 0.0 0.0 0.00 0.00 0.00 42 1013.4
20260831192405 84 175 0.0 0.0 0.00 0.00 0.00 43 1013.4
20260831192335 84 175 0.0 0.0 0.00 0.00 0.00 42 1013.4
20260831192331 84 222 2.0 3.0 0.00 0.00 0.00 42 1014.2
20260831192306 84 175 0.0 0.0 0.00 0.00 0.00 42 1013.4
20260831192234 83 175 0.0 0.0 0.00 0.00 0.00 42 1013.4
20260831192204 83 175 0.0 0.0 0.00 0.00 0.00 44 1013.4
20260831192150 82 87 4.0 0.0 0.00 0.00 0.00 46 1013.3
20260831192137 83 175 0.0 0.0 0.00 0.00 0.00 45 1013.4
20260831192105 83 175 0.0 0.0 0.00 0.00 0.00 45 1013.4
20260831192034 82 175 0.0 0.0 0.00 0.00 0.00 45 1013.4
20260831192013 82 87 4.0 0.0 0.00 0.00 0.00 47 1013.3
20260831192005 82 175 0.0 0.0 0.00 0.00 0.00 45 1013.4
20260831191934 82 175 0.0 0.0 0.00 0.00 0.00 45 1013.4
20260831191905 83 175 0.0 0.0 0.00 0.00 0.00 44 1013.4
20260831191846 83 87 4.0 0.0 0.00 0.00 0.00 48 1013.3
20260831191838 82 175 0.0 0.0 0.00 0.00 0.00 44 1013.4
20260831191827 82 175 0.0 6.0 0.00 0.00 0.00 45 1014.3
20260831191817 82 175 0.0 1.0 0.00 0.00 0.00 45 1013.4
20260831191655 82 87 4.0 0.0 0.00 0.00 0.00 44 1013.3
20260831191646 82 87 4.0 0.0 0.00 0.00 0.00 44 1013.3
20260831191508 82 87 4.0 0.0 0.00 0.00 0.00 47 1013.3
20260831191456 82 87 4.0 0.0 0.00 0.00 0.00 48 1013.3
20260831191446 82 87 4.0 0.0 0.00 0.00 0.00 48 1013.3
20260831191324 83 190 3.0 8.0 0.00 0.00 0.00 51 1014.3
20260831191317 83 87 4.0 0.0 0.00 0.00 0.00 49 1013.3
20260831191235 83 87 4.0 0.0 0.00 0.00 0.00 51 1013.3
20260831191205 83 87 4.0 0.0 0.00 0.00 0.00 52 1013.3
20260831191134 83 87 4.0 0.0 0.00 0.00 0.00 53 1013.3
20260831191121 82 87 4.0 0.0 0.00 0.00 0.00 55 1013.3
20260831191050 84 163 1.0 0.0 0.00 0.00 0.00 54 1013.3
20260831191037 82 87 4.0 0.0 0.00 0.00 0.00 55 1013.3
20260831190936 82 87 4.0 0.0 0.00 0.00 0.00 55 1013.3
20260831190905 82 87 4.0 0.0 0.00 0.00 0.00 55 1013.3
20260831190834 82 87 4.0 0.0 0.00 0.00 0.00 55 1013.3
20260831190819 83 87 4.0 5.0 0.00 0.00 0.00 54 1014.5
20260831190805 83 87 4.0 0.0 0.00 0.00 0.00 55 1013.3
20260831190737 83 87 4.0 5.0 0.00 0.00 0.00 54 1013.3
20260831190724 83 163 1.0 0.0 0.00 0.00 0.00 54 1013.3
20260831190714 84 163 1.0 0.0 0.00 0.00 0.00 54 1013.3
20260831190536 84 163 1.0 0.0 0.00 0.00 0.00 54 1013.3
20260831190522 83 141 0.0 0.0 0.00 0.00 0.00 54 1013.5
20260831190434 83 163 1.0 0.0 0.00 0.00 0.00 54 1013.3
20260831190404 83 163 1.0 0.0 0.00 0.00 0.00 54 1013.3
20260831190353 82 163 1.0 0.0 0.00 0.00 0.00 55 1013.3
20260831190334 83 163 1.0 0.0 0.00 0.00 0.00 54 1013.3
20260831190319 83 224 0.0 4.0 0.00 0.00 0.00 54 1014.4
20260831190305 83 163 1.0 0.0 0.00 0.00 0.00 53 1013.3
20260831190234 83 163 1.0 0.0 0.00 0.00 0.00 54 1013.3
20260831190215 83 163 1.0 0.0 0.00 0.00 0.00 54 1013.3
20260831190204 82 163 1.0 0.0 0.00 0.00 0.00 55 1013.3
20260831190154 82 163 1.0 0.0 0.00 0.00 0.00 54 1013.3
20260831190037 82 163 1.0 0.0 0.00 0.00 0.00 55 1013.3
20260831190015 82 163 1.0 0.0 0.00 0.00 0.00 55 1013.3
20260831185842 83 141 0.0 0.0 0.00 0.00 0.00 54 1013.5
20260831185834 82 163 1.0 0.0 0.00 0.00 0.00 55 1013.3
20260831185819 82 163 1.0 6.0 0.00 0.00 0.00 54 1014.5
20260831185805 82 163 1.0 0.0 0.00 0.00 0.00 55 1013.3
20260831185736 82 163 1.0 2.0 0.00 0.00 0.00 54 1013.3
20260831185704 82 141 0.0 0.0 0.00 0.00 0.00 54 1013.5
20260831185652 83 141 0.0 0.0 0.00 0.00 0.00 55 1013.5
20260831185515 83 141 0.0 0.0 0.00 0.00 0.00 54 1013.5
20260831185335 83 141 0.0 0.0 0.00 0.00 0.00 55 1013.5
20260831185314 82 260 0.0 3.0 0.00 0.00 0.00 56 1014.5
20260831185235 82 141 0.0 0.0 0.00 0.00 0.00 56 1013.5
20260831185215 81 141 0.0 2.0 0.00 0.00 0.00 57 1013.5
20260831185205 82 141 0.0 0.0 0.00 0.00 0.00 56 1013.5
20260831185134 82 141 0.0 0.0 0.00 0.00 0.00 55 1013.5
20260831185104 82 141 0.0 0.0 0.00 0.00 0.00 55 1013.5
20260831185037 81 141 0.0 0.0 0.00 0.00 0.00 55 1013.5
20260831185017 81 141 0.0 0.0 0.00 0.00 0.00 56 1013.5
20260831184934 81 141 0.0 0.0 0.00 0.00 0.00 56 1013.5
20260831184855 81 141 0.0 0.0 0.00 0.00 0.00 56 1013.5
20260831184845 81 141 0.0 0.0 0.00 0.00 0.00 56 1013.5
20260831184813 81 2 1.0 5.0 0.00 0.00 0.00 57 1014.4
20260831184635 81 295 0.0 0.0 0.00 0.00 0.00 57 1013.5
20260831184605 81 295 0.0 0.0 0.00 0.00 0.00 57 1013.5
20260831184541 81 295 0.0 0.0 0.00 0.00 0.00 58 1013.5
20260831184529 82 295 0.0 0.0 0.00 0.00 0.00 57 1013.5
20260831184435 81 295 0.0 0.0 0.00 0.00 0.00 58 1013.5
20260831184421 82 295 0.0 0.0 0.00 0.00 0.00 57 1013.5
20260831184404 81 295 0.0 0.0 0.00 0.00 0.00 58 1013.5
20260831184334 80 295 0.0 0.0 0.00 0.00 0.00 59 1013.5
20260831184309 80 224 2.0 6.0 0.00 0.00 0.00 59 1014.3
20260831184305 80 295 0.0 0.0 0.00 0.00 0.00 59 1013.5
20260831184235 80 295 0.0 0.0 0.00 0.00 0.00 59 1013.5
20260831184222 82 295 0.0 1.0 0.00 0.00 0.00 56 1013.5
20260831184208 81 295 0.0 0.0 0.00 0.00 0.00 58 1013.5
20260831184158 81 295 0.0 0.0 0.00 0.00 0.00 58 1013.5
20260831183856 82 295 0.0 0.0 0.00 0.00 0.00 56 1013.5
20260831183846 82 295 0.0 0.0 0.00 0.00 0.00 57 1013.5
20260831183804 82 68 0.0 3.0 0.00 0.00 0.00 56 1014.5
20260831183710 81 212 0.0 0.0 0.00 0.00 0.00 57 1013.5
20260831183704 82 212 0.0 0.0 0.00 0.00 0.00 56 1013.5
20260831183634 81 212 0.0 0.0 0.00 0.00 0.00 57 1013.5
20260831183605 81 212 0.0 0.0 0.00 0.00 0.00 57 1013.5
20260831183534 81 212 0.0 0.0 0.00 0.00 0.00 57 1013.5
20260831183517 81 212 0.0 0.0 0.00 0.00 0.00 57 1013.5
20260831183437 81 212 0.0 0.0 0.00 0.00 0.00 57 1013.5
20260831183354 80 212 0.0 0.0 0.00 0.00 0.00 58 1013.5
20260831183350 80 212 0.0 0.0 0.00 0.00 0.00 58 1013.5
20260831183303 81 211 2.0 7.0 0.00 0.00 0.00 57 1014.6
20260831183204 81 212 0.0 0.0 0.00 0.00 0.00 56 1013.5
20260831183135 81 212 0.0 0.0 0.00 0.00 0.00 55 1013.5
20260831183104 82 212 0.0 0.0 0.00 0.00 0.00 55 1013.5
20260831183036 82 212 0.0 0.0 0.00 0.00 0.00 56 1013.5
20260831183008 81 212 0.0 0.0 0.00 0.00 0.00 58 1013.5
20260831182956 81 212 0.0 0.0 0.00 0.00 0.00 57 1013.5
20260831182946 81 212 0.0 0.0 0.00 0.00 0.00 58 1013.5
20260831182805 80 212 0.0 0.0 0.00 0.00 0.00 58 1013.5
20260831182803 80 296 0.0 3.0 0.00 0.00 0.00 58 1014.4
20260831182736 80 212 0.0 3.0 0.00 0.00 0.00 59 1013.5
20260831182705 80 239 1.0 0.0 0.00 0.00 0.00 57 1013.6
20260831182634 80 239 1.0 0.0 0.00 0.00 0.00 57 1013.6
20260831182535 80 239 1.0 0.0 0.00 0.00 0.00 58 1013.6
20260831182518 80 239 1.0 0.0 0.00 0.00 0.00 58 1013.6
20260831182504 80 239 1.0 0.0 0.00 0.00 0.00 57 1013.6
20260831182436 81 239 1.0 0.0 0.00 0.00 0.00 57 1013.6
20260831182405 81 239 1.0 0.0 0.00 0.00 0.00 57 1013.6
20260831182335 81 239 1.0 0.0 0.00 0.00 0.00 57 1013.6
20260831182306 81 239 1.0 0.0 0.00 0.00 0.00 56 1013.6
20260831182258 81 169 2.0 5.0 0.00 0.00 0.00 56 1014.6
20260831182238 81 239 1.0 0.0 0.00 0.00 0.00 57 1013.6
20260831182234 81 239 1.0 0.0 0.00 0.00 0.00 57 1013.6
20260831182209 80 177 2.0 0.0 0.00 0.00 0.00 58 1013.9
20260831182155 81 239 1.0 0.0 0.00 0.00 0.00 57 1013.6
20260831182144 81 239 1.0 0.0 0.00 0.00 0.00 57 1013.6
20260831181953 80 211 2.0 0.0 0.00 0.00 0.00 57 1013.7
20260831181940 80 177 2.0 0.0 0.00 0.00 0.00 58 1013.9
20260831181936 80 239 1.0 0.0 0.00 0.00 0.00 58 1013.6
20260831181926 80 239 1.0 0.0 0.00 0.00 0.00 58 1013.6
20260831181916 81 239 1.0 0.0 0.00 0.00 0.00 57 1013.6
20260831181756 81 239 1.0 2.0 0.00 0.00 0.00 58 1013.6
20260831181753 81 149 4.0 4.0 0.00 0.00 0.00 58 1014.5
20260831181744 81 177 2.0 0.0 0.00 0.00 0.00 58 1013.9
20260831181605 80 177 2.0 0.0 0.00 0.00 0.00 58 1013.9
20260831181534 80 177 2.0 0.0 0.00 0.00 0.00 58 1013.9
20260831181450 80 177 2.0 0.0 0.00 0.00 0.00 58 1013.9
20260831181325 80 177 2.0 0.0 0.00 0.00 0.00 59 1013.9
20260831181315 80 177 2.0 0.0 0.00 0.00 0.00 58 1013.9
20260831181307 80 177 2.0 0.0 0.00 0.00 0.00 58 1013.9
20260831181249 80 220 0.0 3.0 0.00 0.00 0.00 58 1014.5
20260831181134 79 177 2.0 0.0 0.00 0.00 0.00 59 1013.9
20260831181053 79 211 2.0 0.0 0.00 0.00 0.00 58 1013.7
20260831181036 79 177 2.0 0.0 0.00 0.00 0.00 59 1013.9
20260831181005 80 177 2.0 0.0 0.00 0.00 0.00 58 1013.9
20260831180935 80 177 2.0 0.0 0.00 0.00 0.00 58 1013.9
20260831180854 80 177 2.0 0.0 0.00 0.00 0.00 58 1013.9
20260831180844 80 177 2.0 0.0 0.00 0.00 0.00 57 1013.9
20260831180834 80 177 2.0 2.0 0.00 0.00 0.00 57 1013.9
20260831180748 80 125 0.0 4.0 0.00 0.00 0.00 57 1014.6
20260831180535 79 211 2.0 0.0 0.00 0.00 0.00 57 1013.7
20260831180437 79 211 2.0 0.0 0.00 0.00 0.00 57 1013.7
20260831180404 79 211 2.0 0.0 0.00 0.00 0.00 57 1013.7
20260831180334 79 211 2.0 0.0 0.00 0.00 0.00 58 1013.7
20260831180307 79 211 2.0 0.0 0.00 0.00 0.00 58 1013.7
20260831180257 81 211 2.0 3.0 0.00 0.00 0.00 56 1013.7
20260831180243 79 116 4.0 7.0 0.00 0.00 0.00 57 1014.7
20260831180235 80 211 2.0 0.0 0.00 0.00 0.00 57 1013.7
20260831180204 80 211 2.0 0.0 0.00 0.00 0.00 57 1013.7
20260831180146 80 255 0.0 0.0 0.00 0.00 0.00 56 1013.8
20260831180134 80 211 2.0 0.0 0.00 0.00 0.00 56 1013.7
20260831180111 80 211 2.0 0.0 0.00 0.00 0.00 57 1013.7
20260831180035 80 211 2.0 0.0 0.00 0.00 0.00 58 1013.7
20260831180013 80 255 0.0 0.0 0.00 0.00 0.00 58 1013.8
20260831180009 80 211 2.0 0.0 0.00 0.00 0.00 58 1013.7
20260831175958 80 211 2.0 0.0 0.00 0.00 0.00 57 1013.7
20260831175948 80 211 2.0 0.0 0.00 0.00 0.00 56 1013.7
20260831175937 80 211 2.0 0.0 0.00 0.00 0.00 57 1013.7
20260831175927 81 211 2.0 0.0 0.00 0.00 0.00 57 1013.7
20260831175742 81 203 1.0 2.0 0.00 0.00 0.00 56 1014.6
20260831175635 80 255 0.0 0.0 0.00 0.00 0.00 57 1013.8
20260831175603 80 255 0.0 0.0 0.00 0.00 0.00 56 1013.8
20260831175534 80 255 0.0 0.0 0.00 0.00 0.00 57 1013.8
20260831175436 80 255 0.0 0.0 0.00 0.00 0.00 57 1013.8
20260831175410 80 255 0.0 0.0 0.00 0.00 0.00 57 1013.8
20260831175400 80 255 0.0 0.0 0.00 0.00 0.00 58 1013.8
20260831175346 79 255 0.0 0.0 0.00 0.00 0.00 58 1013.8
20260831175239 80 104 2.0 4.0 0.00 0.00 0.00 57 1014.6
20260831175135 80 255 0.0 0.0 0.00 0.00 0.00 57 1013.8
20260831175104 80 255 0.0 0.0 0.00 0.00 0.00 57 1013.8
20260831175036 80 255 0.0 0.0 0.00 0.00 0.00 56 1013.8
20260831175016 80 47 3.0 0.0 0.00 0.00 0.00 59 1013.6
20260831174935 80 255 0.0 0.0 0.00 0.00 0.00 56 1013.8
20260831174910 80 255 0.0 0.0 0.00 0.00 0.00 57 1013.8
20260831174854 79 47 3.0 0.0 0.00 0.00 0.00 60 1013.6
20260831174834 80 255 0.0 0.0 0.00 0.00 0.00 58 1013.8
20260831174805 80 255 0.0 0.0 0.00 0.00 0.00 58 1013.8
20260831174737 80 255 0.0 0.0 0.00 0.00 0.00 58 1013.8
20260831174734 80 255 0.0 3.0 0.00 0.00 0.00 59 1014.6
20260831174705 80 47 3.0 0.0 0.00 0.00 0.00 59 1013.6
20260831174652 79 47 3.0 0.0 0.00 0.00 0.00 59 1013.6
20260831174518 79 47 3.0 0.0 0.00 0.00 0.00 60 1013.6
20260831174334 79 47 3.0 0.0 0.00 0.00 0.00 60 1013.6
20260831174234 79 47 3.0 0.0 0.00 0.00 0.00 61 1013.6
20260831174230 79 59 4.0 5.0 0.00 0.00 0.00 60 1014.6
20260831174135 79 47 3.0 0.0 0.00 0.00 0.00 61 1013.6
20260831174035 78 47 3.0 0.0 0.00 0.00 0.00 61 1013.6
20260831173936 78 47 3.0 0.0 0.00 0.00 0.00 61 1013.6
20260831173906 78 47 3.0 0.0 0.00 0.00 0.00 61 1013.6
20260831173834 78 47 3.0 0.0 0.00 0.00 0.00 62 1013.6
20260831173805 78 47 3.0 0.0 0.00 0.00 0.00 62 1013.6
20260831173740 78 186 2.0 3.0 0.00 0.00 0.00 62 1013.8
20260831173736 78 47 3.0 3.0 0.00 0.00 0.00 62 1013.6
20260831173729 78 89 0.0 4.0 0.00 0.00 0.00 62 1014.5
20260831173704 78 186 2.0 0.0 0.00 0.00 0.00 62 1013.8
20260831173634 78 186 2.0 0.0 0.00 0.00 0.00 62 1013.8
20260831173605 78 186 2.0 0.0 0.00 0.00 0.00 62 1013.8
20260831173542 78 186 2.0 0.0 0.00 0.00 0.00 61 1013.8
20260831173535 78 186 2.0 0.0 0.00 0.00 0.00 63 1013.8
20260831173435 77 186 2.0 0.0 0.00 0.00 0.00 63 1013.8
20260831173408 77 186 2.0 0.0 0.00 0.00 0.00 63 1013.8
20260831173358 77 186 2.0 0.0 0.00 0.00 0.00 63 1013.8
20260831173241 78 269 0.0 0.0 0.00 0.00 0.00 62 1013.7
20260831173237 77 186 2.0 0.0 0.00 0.00 0.00 63 1013.8
20260831173226 77 186 2.0 0.0 0.00 0.00 0.00 62 1013.8
20260831173223 77 204 6.0 8.0 0.00 0.00 0.00 62 1014.7
20260831173216 78 186 2.0 0.0 0.00 0.00 0.00 61 1013.8
20260831173035 78 186 2.0 0.0 0.00 0.00 0.00 61 1013.8
20260831173007 78 186 2.0 0.0 0.00 0.00 0.00 61 1013.8
20260831172954 78 186 2.0 0.0 0.00 0.00 0.00 62 1013.8
20260831172937 78 186 2.0 0.0 0.00 0.00 0.00 61 1013.8
20260831172927 78 186 2.0 0.0 0.00 0.00 0.00 62 1013.8
20260831172719 78 217 3.0 3.0 0.00 0.00 0.00 62 1014.6
20260831172635 77 269 0.0 0.0 0.00 0.00 0.00 63 1013.7
20260831172541 77 269 0.0 0.0 0.00 0.00 0.00 63 1013.7
20260831172535 77 269 0.0 0.0 0.00 0.00 0.00 63 1013.7
20260831172507 77 269 0.0 0.0 0.00 0.00 0.00 63 1013.7
20260831172437 77 269 0.0 0.0 0.00 0.00 0.00 63 1013.7
20260831172427 77 269 0.0 0.0 0.00 0.00 0.00 63 1013.7
20260831172406 77 269 0.0 0.0 0.00 0.00 0.00 63 1013.7
20260831172335 77 269 0.0 0.0 0.00 0.00 0.00 63 1013.7
20260831172318 77 269 0.0 0.0 0.00 0.00 0.00 63 1013.7
20260831172251 77 269 0.0 1.0 0.00 0.00 0.00 64 1013.7
20260831172236 76 269 0.0 0.0 0.00 0.00 0.00 63 1013.7
20260831172227 76 269 0.0 0.0 0.00 0.00 0.00 63 1013.7
20260831172217 76 269 0.0 0.0 0.00 0.00 0.00 64 1013.7
20260831172214 76 191 1.0 4.0 0.00 0.00 0.00 63 1014.6
20260831172207 76 269 0.0 0.0 0.00 0.00 0.00 63 1013.7
20260831171925 77 204 0.0 0.0 0.00 0.00 0.00 64 1013.6
20260831171921 77 269 0.0 0.0 0.00 0.00 0.00 63 1013.7
20260831171911 77 269 0.0 0.0 0.00 0.00 0.00 64 1013.7
20260831171847 77 269 0.0 0.0 0.00 0.00 0.00 65 1013.7
20260831171708 77 117 0.0 3.0 0.00 0.00 0.00 65 1014.4
20260831171705 77 204 0.0 0.0 0.00 0.00 0.00 65 1013.6
20260831171635 77 204 0.0 0.0 0.00 0.00 0.00 64 1013.6
20260831171536 77 204 0.0 0.0 0.00 0.00 0.00 64 1013.6
20260831171515 77 204 0.0 0.0 0.00 0.00 0.00 64 1013.6
20260831171335 77 204 0.0 0.0 0.00 0.00 0.00 64 1013.6
20260831171235 77 204 0.0 0.0 0.00 0.00 0.00 64 1013.6
20260831171210 78 204 0.0 2.0 0.00 0.00 0.00 63 1013.6
20260831171206 77 196 1.0 2.0 0.00 0.00 0.00 63 1014.4
20260831171135 77 204 0.0 0.0 0.00 0.00 0.00 64 1013.6
20260831171106 77 204 0.0 0.0 0.00 0.00 0.00 63 1013.6
20260831171034 77 204 0.0 0.0 0.00 0.00 0.00 63 1013.6
20260831170935 77 204 0.0 0.0 0.00 0.00 0.00 63 1013.6
20260831170910 77 204 0.0 0.0 0.00 0.00 0.00 63 1013.6
20260831170900 78 204 0.0 0.0 0.00 0.00 0.00 62 1013.6
20260831170850 78 204 0.0 0.0 0.00 0.00 0.00 62 1013.6
20260831170718 77 241 2.0 0.0 0.00 0.00 0.00 63 1013.6
20260831170702 77 168 0.0 2.0 0.00 0.00 0.00 64 1014.7
20260831170634 77 241 2.0 0.0 0.00 0.00 0.00 64 1013.6
20260831170543 77 241 2.0 0.0 0.00 0.00 0.00 64 1013.6
20260831170535 77 241 2.0 0.0 0.00 0.00 0.00 65 1013.6
20260831170520 76 241 2.0 0.0 0.00 0.00 0.00 64 1013.6
20260831170435 76 241 2.0 0.0 0.00 0.00 0.00 64 1013.6
20260831170412 77 241 2.0 0.0 0.00 0.00 0.00 64 1013.6
20260831170337 76 241 2.0 0.0 0.00 0.00 0.00 64 1013.6
20260831170305 76 241 2.0 0.0 0.00 0.00 0.00 64 1013.6
20260831170249 76 241 2.0 2.0 0.00 0.00 0.00 66 1013.6
20260831170238 76 241 2.0 0.0 0.00 0.00 0.00 65 1013.6
20260831170225 76 241 2.0 0.0 0.00 0.00 0.00 66 1013.6
20260831170216 76 241 2.0 0.0 0.00 0.00 0.00 65 1013.6
20260831170158 76 256 0.0 4.0 0.00 0.00 0.00 66 1014.5
20260831165925 78 227 2.0 0.0 0.00 0.00 0.00 62 1013.5
20260831165921 77 241 2.0 0.0 0.00 0.00 0.00 64 1013.6
20260831165910 76 241 2.0 0.0 0.00 0.00 0.00 65 1013.6
20260831165848 76 241 2.0 0.0 0.00 0.00 0.00 66 1013.6
20260831165705 76 227 2.0 0.0 0.00 0.00 0.00 66 1013.5
20260831165654 76 211 2.0 6.0 0.00 0.00 0.00 66 1014.6
20260831165634 76 227 2.0 0.0 0.00 0.00 0.00 66 1013.5
20260831165607 76 227 2.0 0.0 0.00 0.00 0.00 66 1013.5
20260831165535 76 227 2.0 0.0 0.00 0.00 0.00 66 1013.5
20260831165505 76 227 2.0 0.0 0.00 0.00 0.00 65 1013.5
20260831165445 78 227 2.0 0.0 0.00 0.00 0.00 62 1013.5
20260831165436 77 227 2.0 0.0 0.00 0.00 0.00 65 1013.5
20260831165426 77 227 2.0 0.0 0.00 0.00 0.00 64 1013.5
20260831165416 78 227 2.0 0.0 0.00 0.00 0.00 63 1013.5
20260831165235 78 227 2.0 0.0 0.00 0.00 0.00 63 1013.5
20260831165204 78 227 2.0 0.0 0.00 0.00 0.00 64 1013.5
20260831165150 77 133 2.0 5.0 0.00 0.00 0.00 64 1014.3
20260831165134 77 227 2.0 0.0 0.00 0.00 0.00 64 1013.5
20260831165121 79 206 3.0 0.0 0.00 0.00 0.00 61 1013.4
20260831165055 77 227 2.0 0.0 0.00 0.00 0.00 64 1013.5
20260831165045 77 227 2.0 0.0 0.00 0.00 0.00 63 1013.5
20260831164911 80 206 3.0 0.0 0.00 0.00 0.00 61 1013.4
20260831164907 78 227 2.0 0.0 0.00 0.00 0.00 62 1013.5
20260831164835 78 227 2.0 0.0 0.00 0.00 0.00 61 1013.5
20260831164824 79 227 2.0 0.0 0.00 0.00 0.00 61 1013.5
20260831164814 79 227 2.0 2.0 0.00 0.00 0.00 61 1013.5
20260831164646 79 250 0.0 3.0 0.00 0.00 0.00 61 1014.5
20260831164608 78 206 3.0 0.0 0.00 0.00 0.00 63 1013.4
20260831164604 79 206 3.0 0.0 0.00 0.00 0.00 61 1013.4
20260831164554 80 206 3.0 0.0 0.00 0.00 0.00 60 1013.4
20260831164544 80 206 3.0 0.0 0.00 0.00 0.00 60 1013.4
20260831164404 80 206 3.0 0.0 0.00 0.00 0.00 61 1013.4
20260831164344 76 206 3.0 0.0 0.00 0.00 0.00 65 1013.4
20260831164339 79 206 3.0 0.0 0.00 0.00 0.00 63 1013.4
20260831164305 79 206 3.0 0.0 0.00 0.00 0.00 63 1013.4
20260831164247 77 206 3.0 4.0 0.00 0.00 0.00 64 1013.4
20260831164240 78 206 3.0 0.0 0.00 0.00 0.00 64 1013.4
20260831164230 78 206 3.0 0.0 0.00 0.00 0.00 64 1013.4
20260831164220 78 206 3.0 0.0 0.00 0.00 0.00 63 1013.4
20260831164142 78 214 1.0 2.0 0.00 0.00 0.00 63 1014.1
20260831164035 78 206 3.0 0.0 0.00 0.00 0.00 64 1013.4
20260831164023 78 206 3.0 0.0 0.00 0.00 0.00 65 1013.4
20260831164011 77 206 3.0 0.0 0.00 0.00 0.00 65 1013.4
20260831163957 76 206 3.0 0.0 0.00 0.00 0.00 65 1013.4
20260831163708 77 212 0.0 0.0 0.00 0.00 0.00 64 1013.3
20260831163657 76 212 0.0 0.0 0.00 0.00 0.00 66 1013.3
20260831163636 77 223 0.0 2.0 0.00 0.00 0.00 64 1014.3
20260831163634 77 212 0.0 0.0 0.00 0.00 0.00 63 1013.3
20260831163547 76 212 0.0 0.0 0.00 0.00 0.00 66 1013.3
20260831163535 77 212 0.0 0.0 0.00 0.00 0.00 64 1013.3
20260831163504 77 212 0.0 0.0 0.00 0.00 0.00 64 1013.3
20260831163435 76 212 0.0 0.0 0.00 0.00 0.00 65 1013.3
20260831163425 76 212 0.0 0.0 0.00 0.00 0.00 66 1013.3
20260831163411 75 212 0.0 1.0 0.00 0.00 0.00 67 1013.3
20260831163405 76 212 0.0 0.0 0.00 0.00 0.00 65 1013.3
20260831163355 76 212 0.0 0.0 0.00 0.00 0.00 66 1013.3
20260831163347 76 212 0.0 0.0 0.00 0.00 0.00 65 1013.3
20260831163337 76 212 0.0 0.0 0.00 0.00 0.00 66 1013.3
20260831163327 76 212 0.0 0.0 0.00 0.00 0.00 67 1013.3
20260831163132 76 127 0.0 5.0 0.00 0.00 0.00 66 1014.4
20260831163055 76 212 0.0 0.0 0.00 0.00 0.00 66 1013.3
20260831163045 76 212 0.0 0.0 0.00 0.00 0.00 65 1013.3
20260831162905 76 212 0.0 0.0 0.00 0.00 0.00 66 1013.3
20260831162855 76 212 0.0 0.0 0.00 0.00 0.00 67 1013.3
20260831162846 76 212 0.0 0.0 0.00 0.00 0.00 67 1013.3
20260831162706 75 214 0.0 0.0 0.00 0.00 0.00 67 1013.5
20260831162635 75 214 0.0 0.0 0.00 0.00 0.00 67 1013.5
20260831162631 75 125 1.0 4.0 0.00 0.00 0.00 68 1014.4
20260831162606 75 214 0.0 0.0 0.00 0.00 0.00 68 1013.5
20260831162535 75 214 0.0 0.0 0.00 0.00 0.00 68 1013.5
20260831162435 75 214 0.0 0.0 0.00 0.00 0.00 67 1013.5
20260831162404 76 214 0.0 0.0 0.00 0.00 0.00 67 1013.5
20260831162337 76 214 0.0 0.0 0.00 0.00 0.00 65 1013.5
20260831162306 77 214 0.0 0.0 0.00 0.00 0.00 64 1013.5
20260831162235 78 214 0.0 0.0 0.00 0.00 0.00 63 1013.5
20260831162215 76 214 0.0 0.0 0.00 0.00 0.00 66 1013.5
20260831162135 77 214 0.0 0.0 0.00 0.00 0.00 64 1013.5
20260831162129 77 100 0.0 4.0 0.00 0.00 0.00 65 1014.3
20260831162036 77 214 0.0 0.0 0.00 0.00 0.00 65 1013.5
20260831161936 77 214 0.0 0.0 0.00 0.00 0.00 65 1013.5
20260831161905 76 214 0.0 0.0 0.00 0.00 0.00 66 1013.5
20260831161855 76 214 0.0 0.0 0.00 0.00 0.00 67 1013.5
20260831161846 76 214 0.0 0.0 0.00 0.00 0.00 67 1013.5
20260831161710 75 91 1.0 0.0 0.00 0.00 0.00 68 1013.4
20260831161635 75 91 1.0 0.0 0.00 0.00 0.00 67 1013.4
20260831161625 76 146 0.0 3.0 0.00 0.00 0.00 67 1014.4
20260831161606 75 91 1.0 0.0 0.00 0.00 0.00 66 1013.4
20260831161534 76 91 1.0 0.0 0.00 0.00 0.00 66 1013.4
20260831161508 76 91 1.0 0.0 0.00 0.00 0.00 65 1013.4
20260831161504 76 91 1.0 0.0 0.00 0.00 0.00 66 1013.4
20260831161435 76 91 1.0 0.0 0.00 0.00 0.00 65 1013.4
20260831161409 76 91 1.0 0.0 0.00 0.00 0.00 65 1013.4
20260831161354 76 91 1.0 0.0 0.00 0.00 0.00 66 1013.4
20260831161345 76 91 1.0 0.0 0.00 0.00 0.00 66 1013.4
20260831161152 77 242 0.0 0.0 0.00 0.00 0.00 63 1013.6
20260831161147 75 91 1.0 0.0 0.00 0.00 0.00 67 1013.4
20260831161134 76 91 1.0 0.0 0.00 0.00 0.00 66 1013.4
20260831161126 76 91 1.0 0.0 0.00 0.00 0.00 66 1013.4
20260831161122 76 190 2.0 5.0 0.00 0.00 0.00 66 1014.2
20260831160835 76 91 1.0 0.0 0.00 0.00 0.00 66 1013.4
20260831160810 76 91 1.0 0.0 0.00 0.00 0.00 66 1013.4
20260831160755 76 242 0.0 0.0 0.00 0.00 0.00 65 1013.6
20260831160738 76 91 1.0 2.0 0.00 0.00 0.00 66 1013.4
20260831160720 76 242 0.0 0.0 0.00 0.00 0.00 66 1013.6
20260831160708 77 242 0.0 0.0 0.00 0.00 0.00 64 1013.6
20260831160658 77 242 0.0 0.0 0.00 0.00 0.00 64 1013.6
20260831160620 77 238 1.0 2.0 0.00 0.00 0.00 63 1014.6
20260831160504 77 242 0.0 0.0 0.00 0.00 0.00 64 1013.6
20260831160445 74 242 0.0 0.0 0.00 0.00 0.00 68 1013.6
20260831160441 77 242 0.0 0.0 0.00 0.00 0.00 63 1013.6
20260831160431 77 242 0.0 0.0 0.00 0.00 0.00 64 1013.6
20260831160421 77 242 0.0 0.0 0.00 0.00 0.00 65 1013.6
20260831160247 76 242 0.0 0.0 0.00 0.00 0.00 66 1013.6
20260831160205 76 242 0.0 0.0 0.00 0.00 0.00 66 1013.6
20260831160134 75 242 0.0 0.0 0.00 0.00 0.00 67 1013.6
20260831160119 75 242 0.0 0.0 0.00 0.00 0.00 67 1013.6
20260831160111 75 124 0.0 3.0 0.00 0.00 0.00 68 1014.3
20260831160036 75 242 0.0 0.0 0.00 0.00 0.00 68 1013.6
20260831160016 74 242 0.0 0.0 0.00 0.00 0.00 69 1013.6
20260831155834 74 242 0.0 0.0 0.00 0.00 0.00 69 1013.6
20260831155805 74 242 0.0 0.0 0.00 0.00 0.00 69 1013.6
20260831155740 74 242 0.0 0.0 0.00 0.00 0.00 69 1013.6
20260831155635 74 36 1.0 0.0 0.00 0.00 0.00 69 1013.4
20260831155610 75 197 3.0 4.0 0.00 0.00 0.00 68 1014.4
20260831155605 74 36 1.0 0.0 0.00 0.00 0.00 68 1013.4
20260831155555 75 36 1.0 0.0 0.00 0.00 0.00 67 1013.4
20260831155536 75 36 1.0 0.0 0.00 0.00 0.00 68 1013.4
20260831155505 75 36 1.0 0.0 0.00 0.00 0.00 68 1013.4
20260831155445 75 36 1.0 0.0 0.00 0.00 0.00 66 1013.4
20260831155435 75 36 1.0 0.0 0.00 0.00 0.00 68 1013.4
20260831155407 75 36 1.0 0.0 0.00 0.00 0.00 68 1013.4
20260831155356 73 204 4.0 0.0 0.00 0.00 0.00 69 1013.4
20260831155352 73 204 4.0 0.0 0.00 0.00 0.00 70 1013.4
20260831155348 75 36 1.0 0.0 0.00 0.00 0.00 67 1013.4
20260831155338 74 36 1.0 0.0 0.00 0.00 0.00 68 1013.4
20260831155327 75 36 1.0 0.0 0.00 0.00 0.00 68 1013.4
20260831155317 75 36 1.0 0.0 0.00 0.00 0.00 67 1013.4
20260831155254 74 36 1.0 0.0 0.00 0.00 0.00 68 1013.4
20260831155238 74 36 1.0 0.0 0.00 0.00 0.00 68 1013.4
20260831155106 75 215 4.0 4.0 0.00 0.00 0.00 66 1014.3
20260831154935 75 36 1.0 0.0 0.00 0.00 0.00 67 1013.4
20260831154837 74 36 1.0 0.0 0.00 0.00 0.00 68 1013.4
20260831154827 74 36 1.0 0.0 0.00 0.00 0.00 68 1013.4
20260831154817 74 36 1.0 1.0 0.00 0.00 0.00 69 1013.4
20260831154654 73 204 4.0 0.0 0.00 0.00 0.00 70 1013.4
20260831154644 73 204 4.0 0.0 0.00 0.00 0.00 71 1013.4
20260831154602 73 192 2.0 3.0 0.00 0.00 0.00 70 1014.3
20260831154505 73 204 4.0 0.0 0.00 0.00 0.00 70 1013.4
20260831154434 73 204 4.0 0.0 0.00 0.00 0.00 70 1013.4
20260831154335 73 204 4.0 0.0 0.00 0.00 0.00 70 1013.4
20260831154243 73 204 4.0 0.0 0.00 0.00 0.00 69 1013.4
20260831154207 74 204 4.0 0.0 0.00 0.00 0.00 69 1013.4
20260831154134 74 204 4.0 0.0 0.00 0.00 0.00 68 1013.4
20260831154104 74 204 4.0 0.0 0.00 0.00 0.00 69 1013.4
20260831154101 74 134 0.0 5.0 0.00 0.00 0.00 69 1014.3
20260831154037 74 204 4.0 0.0 0.00 0.00 0.00 68 1013.4
20260831154010 77 201 5.0 0.0 0.00 0.00 0.00 63 1013.1
20260831154005 74 204 4.0 0.0 0.00 0.00 0.00 69 1013.4
20260831153936 74 204 4.0 0.0 0.00 0.00 0.00 68 1013.4
20260831153906 74 204 4.0 0.0 0.00 0.00 0.00 67 1013.4
20260831153834 75 204 4.0 0.0 0.00 0.00 0.00 66 1013.4
20260831153804 76 204 4.0 0.0 0.00 0.00 0.00 64 1013.4
20260831153738 77 204 4.0 4.0 0.00 0.00 0.00 62 1013.4
20260831153717 75 201 5.0 5.0 0.00 0.00 0.00 65 1013.1
20260831153656 77 201 5.0 0.0 0.00 0.00 0.00 63 1013.1
20260831153645 77 201 5.0 0.0 0.00 0.00 0.00 62 1013.1
20260831153601 77 72 0.0 2.0 0.00 0.00 0.00 63 1014.2
20260831153437 77 201 5.0 0.0 0.00 0.00 0.00 63 1013.1
20260831153404 77 201 5.0 0.0 0.00 0.00 0.00 63 1013.1
20260831153346 77 201 5.0 0.0 0.00 0.00 0.00 64 1013.1
20260831153330 76 201 5.0 0.0 0.00 0.00 0.00 64 1013.1
20260831153205 75 201 5.0 0.0 0.00 0.00 0.00 65 1013.1
20260831153134 75 201 5.0 0.0 0.00 0.00 0.00 65 1013.1
20260831153106 75 201 5.0 0.0 0.00 0.00 0.00 66 1013.1
20260831153058 74 214 0.0 2.0 0.00 0.00 0.00 67 1014.1
20260831153034 74 201 5.0 0.0 0.00 0.00 0.00 66 1013.1
20260831153006 74 201 5.0 0.0 0.00 0.00 0.00 67 1013.1
20260831152935 74 201 5.0 0.0 0.00 0.00 0.00 66 1013.1
20260831152907 74 201 5.0 0.0 0.00 0.00 0.00 66 1013.1
20260831152857 74 201 5.0 0.0 0.00 0.00 0.00 67 1013.1
20260831152847 74 201 5.0 0.0 0.00 0.00 0.00 66 1013.1
20260831152636 75 134 2.0 0.0 0.00 0.00 0.00 64 1013.3
20260831152613 76 134 2.0 0.0 0.00 0.00 0.00 64 1013.3
20260831152605 75 134 2.0 0.0 0.00 0.00 0.00 65 1013.3
20260831152553 75 189 1.0 4.0 0.00 0.00 0.00 64 1014.3
20260831152535 75 134 2.0 0.0 0.00 0.00 0.00 65 1013.3
20260831152505 75 134 2.0 0.0 0.00 0.00 0.00 65 1013.3
20260831152435 76 134 2.0 0.0 0.00 0.00 0.00 64 1013.3
20260831152404 76 134 2.0 0.0 0.00 0.00 0.00 63 1013.3
20260831152335 76 134 2.0 0.0 0.00 0.00 0.00 62 1013.3
20260831152314 76 134 2.0 0.0 0.00 0.00 0.00 63 1013.3
20260831152306 76 134 2.0 0.0 0.00 0.00 0.00 64 1013.3
20260831152049 75 202 0.0 2.0 0.00 0.00 0.00 66 1014.2
20260831152035 75 134 2.0 0.0 0.00 0.00 0.00 65 1013.3
20260831152005 75 134 2.0 0.0 0.00 0.00 0.00 66 1013.3
20260831151935 75 134 2.0 0.0 0.00 0.00 0.00 65 1013.3
20260831151921 75 188 0.0 0.0 0.00 0.00 0.00 64 1013.3
20260831151908 74 134 2.0 0.0 0.00 0.00 0.00 66 1013.3
20260831151835 74 134 2.0 0.0 0.00 0.00 0.00 66 1013.3
20260831151804 74 134 2.0 0.0 0.00 0.00 0.00 66 1013.3
20260831151743 75 188 0.0 0.0 0.00 0.00 0.00 64 1013.3
20260831151736 74 134 2.0 2.0 0.00 0.00 0.00 66 1013.3
20260831151703 74 188 0.0 0.0 0.00 0.00 0.00 65 1013.3
20260831151634 75 188 0.0 0.0 0.00 0.00 0.00 65 1013.3
20260831151612 75 188 0.0 0.0 0.00 0.00 0.00 64 1013.3
20260831151607 74 188 0.0 0.0 0.00 0.00 0.00 65 1013.3
20260831151557 74 188 0.0 0.0 0.00 0.00 0.00 66 1013.3
20260831151548 75 235 0.0 2.0 0.00 0.00 0.00 65 1014.2
20260831151425 75 188 0.0 0.0 0.00 0.00 0.00 65 1013.3
20260831151415 75 188 0.0 0.0 0.00 0.00 0.00 64 1013.3
20260831151233 75 188 0.0 0.0 0.00 0.00 0.00 65 1013.3
20260831151214 75 188 0.0 0.0 0.00 0.00 0.00 65 1013.3
20260831151043 75 105 1.0 2.0 0.00 0.00 0.00 65 1014.2
20260831151034 75 188 0.0 0.0 0.00 0.00 0.00 64 1013.3
20260831151004 75 188 0.0 0.0 0.00 0.00 0.00 65 1013.3
20260831150933 75 188 0.0 0.0 0.00 0.00 0.00 65 1013.3
20260831150903 74 188 0.0 0.0 0.00 0.00 0.00 66 1013.3
20260831150833 74 188 0.0 0.0 0.00 0.00 0.00 66 1013.3
20260831150804 74 188 0.0 0.0 0.00 0.00 0.00 67 1013.3
20260831150734 73 188 0.0 2.0 0.00 0.00 0.00 67 1013.3
20260831150706 73 185 0.0 0.0 0.00 0.00 0.00 67 1013.1
20260831150633 73 185 0.0 0.0 0.00 0.00 0.00 67 1013.1
20260831150537 74 203 0.0 2.0 0.00 0.00 0.00 66 1014.2
20260831150515 73 185 0.0 0.0 0.00 0.00 0.00 67 1013.1
20260831150507 74 185 0.0 0.0 0.00 0.00 0.00 66 1013.1
20260831150436 74 185 0.0 0.0 0.00 0.00 0.00 66 1013.1
20260831150334 73 185 0.0 0.0 0.00 0.00 0.00 67 1013.1
20260831150304 74 185 0.0 0.0 0.00 0.00 0.00 66 1013.1
20260831150242 74 185 0.0 0.0 0.00 0.00 0.00 67 1013.1
20260831150232 73 185 0.0 0.0 0.00 0.00 0.00 67 1013.1
20260831150221 73 185 0.0 0.0 0.00 0.00 0.00 68 1013.1
20260831150034 73 202 0.0 2.0 0.00 0.00 0.00 67 1014.1
20260831150006 73 185 0.0 0.0 0.00 0.00 0.00 67 1013.1
20260831145935 73 185 0.0 0.0 0.00 0.00 0.00 66 1013.1
20260831145904 74 185 0.0 0.0 0.00 0.00 0.00 66 1013.1
20260831145835 74 185 0.0 0.0 0.00 0.00 0.00 65 1013.1
20260831145804 74 185 0.0 0.0 0.00 0.00 0.00 67 1013.1
20260831145734 74 185 0.0 0.0 0.00 0.00 0.00 66 1013.1
20260831145704 74 25 0.0 0.0 0.00 0.00 0.00 65 1013.0
20260831145633 74 25 0.0 0.0 0.00 0.00 0.00 65 1013.0
20260831145603 74 25 0.0 0.0 0.00 0.00 0.00 65 1013.0
20260831145534 74 25 0.0 0.0 0.00 0.00 0.00 66 1013.0
20260831145528 73 185 0.0 1.0 0.00 0.00 0.00 66 1014.1
20260831145516 74 25 0.0 0.0 0.00 0.00 0.00 67 1013.0
20260831145446 73 25 0.0 0.0 0.00 0.00 0.00 66 1013.0
20260831145404 73 25 0.0 0.0 0.00 0.00 0.00 67 1013.0
20260831145334 74 25 0.0 0.0 0.00 0.00 0.00 66 1013.0
20260831145317 74 25 0.0 0.0 0.00 0.00 0.00 66 1013.0
20260831145306 74 25 0.0 0.0 0.00 0.00 0.00 65 1013.0
20260831145235 74 25 0.0 0.0 0.00 0.00 0.00 66 1013.0
20260831145204 74 25 0.0 0.0 0.00 0.00 0.00 66 1013.0
20260831145136 74 25 0.0 0.0 0.00 0.00 0.00 65 1013.0
20260831145104 74 25 0.0 0.0 0.00 0.00 0.00 64 1013.0
20260831145043 75 25 0.0 0.0 0.00 0.00 0.00 64 1013.0
20260831145024 75 113 0.0 0.0 0.00 0.00 0.00 64 1014.0
20260831145009 71 29 0.0 0.0 0.00 0.00 0.00 72 1012.9
20260831145005 75 25 0.0 0.0 0.00 0.00 0.00 63 1013.0
20260831144955 75 25 0.0 0.0 0.00 0.00 0.00 64 1013.0
20260831144944 74 25 0.0 0.0 0.00 0.00 0.00 65 1013.0
20260831144805 74 25 0.0 0.0 0.00 0.00 0.00 67 1013.0
20260831144737 73 25 0.0 0.0 0.00 0.00 0.00 68 1013.0
20260831144705 73 29 0.0 0.0 0.00 0.00 0.00 68 1012.9
20260831144643 69 29 0.0 0.0 0.00 0.00 0.00 74 1012.9
20260831144633 73 29 0.0 0.0 0.00 0.00 0.00 69 1012.9
20260831144608 69 29 0.0 0.0 0.00 0.00 0.00 74 1012.9
20260831144556 72 29 0.0 0.0 0.00 0.00 0.00 70 1012.9
20260831144546 71 29 0.0 0.0 0.00 0.00 0.00 71 1012.9
20260831144519 72 53 0.0 0.0 0.00 0.00 0.00 71 1013.9
20260831144403 71 29 0.0 0.0 0.00 0.00 0.00 72 1012.9
20260831144335 71 29 0.0 0.0 0.00 0.00 0.00 73 1012.9
20260831144319 70 29 0.0 0.0 0.00 0.00 0.00 73 1012.9
20260831144309 70 29 0.0 0.0 0.00 0.00 0.00 74 1012.9
20260831144015 69 50 0.0 2.0 0.00 0.00 0.00 74 1013.8
20260831144004 69 29 0.0 0.0 0.00 0.00 0.00 74 1012.9
20260831143933 69 29 0.0 0.0 0.00 0.00 0.00 74 1012.9
20260831143904 69 29 0.0 0.0 0.00 0.00 0.00 74 1012.9
20260831143833 69 29 0.0 0.0 0.00 0.00 0.00 74 1012.9
20260831143803 69 29 0.0 0.0 0.00 0.00 0.00 75 1012.9
20260831143736 69 29 0.0 1.0 0.00 0.00 0.00 75 1012.9
20260831143707 68 28 1.0 0.0 0.00 0.00 0.00 75 1012.8
20260831143634 68 28 1.0 0.0 0.00 0.00 0.00 75 1012.8
20260831143533 68 28 1.0 0.0 0.00 0.00 0.00 75 1012.8
20260831143515 68 64 1.0 2.0 0.00 0.00 0.00 75 1013.8
20260831143444 67 28 1.0 0.0 0.00 0.00 0.00 76 1012.8
20260831143434 68 28 1.0 0.0 0.00 0.00 0.00 75 1012.8
20260831143351 68 28 1.0 0.0 0.00 0.00 0.00 76 1012.8
20260831143343 68 28 1.0 0.0 0.00 0.00 0.00 76 1012.8
20260831143204 68 28 1.0 0.0 0.00 0.00 0.00 75 1012.8
20260831143137 67 322 0.0 0.0 0.00 0.00 0.00 77 1012.7
20260831143133 68 28 1.0 0.0 0.00 0.00 0.00 75 1012.8
20260831143119 67 28 1.0 0.0 0.00 0.00 0.00 76 1012.8
20260831143011 68 27 2.0 3.0 0.00 0.00 0.00 76 1013.9
20260831142934 67 28 1.0 0.0 0.00 0.00 0.00 76 1012.8
20260831142839 67 322 0.0 0.0 0.00 0.00 0.00 77 1012.7
20260831142834 67 28 1.0 0.0 0.00 0.00 0.00 76 1012.8
20260831142803 67 28 1.0 0.0 0.00 0.00 0.00 76 1012.8
20260831142753 66 322 0.0 0.0 0.00 0.00 0.00 78 1012.7
20260831142744 66 322 0.0 0.0 0.00 0.00 0.00 78 1012.7
20260831142736 67 28 1.0 2.0 0.00 0.00 0.00 76 1012.8
20260831142717 66 322 0.0 0.0 0.00 0.00 0.00 78 1012.7
20260831142713 67 322 0.0 0.0 0.00 0.00 0.00 76 1012.7
20260831142703 67 322 0.0 0.0 0.00 0.00 0.00 77 1012.7
20260831142649 67 322 0.0 0.0 0.00 0.00 0.00 77 1012.7
20260831142523 67 322 0.0 0.0 0.00 0.00 0.00 77 1012.7
20260831142507 67 21 3.0 3.0 0.00 0.00 0.00 77 1013.8
20260831142114 66 82 0.0 0.0 0.00 0.00 0.00 79 1012.8
20260831142035 66 322 0.0 0.0 0.00 0.00 0.00 78 1012.7
20260831142002 66 50 2.0 2.0 0.00 0.00 0.00 78 1013.7
20260831141949 66 322 0.0 0.0 0.00 0.00 0.00 78 1012.7
20260831141816 65 82 0.0 0.0 0.00 0.00 0.00 80 1012.8
20260831141811 65 82 0.0 0.0 0.00 0.00 0.00 80 1012.8
20260831141806 66 322 0.0 0.0 0.00 0.00 0.00 78 1012.7
20260831141756 66 322 0.0 0.0 0.00 0.00 0.00 79 1012.7
20260831141549 66 82 0.0 0.0 0.00 0.00 0.00 79 1012.8
20260831141514 65 82 0.0 0.0 0.00 0.00 0.00 80 1012.8
20260831141502 66 49 2.0 3.0 0.00 0.00 0.00 79 1013.7
20260831141457 65 82 0.0 0.0 0.00 0.00 0.00 81 1012.8
20260831141453 65 82 0.0 0.0 0.00 0.00 0.00 79 1012.8
20260831141442 65 82 0.0 0.0 0.00 0.00 0.00 80 1012.8
20260831141431 65 82 0.0 0.0 0.00 0.00 0.00 79 1012.8
20260831141137 65 82 0.0 0.0 0.00 0.00 0.00 80 1012.8
20260831141126 65 92 0.0 0.0 0.00 0.00 0.00 81 1012.6
20260831141116 65 82 0.0 0.0 0.00 0.00 0.00 80 1012.8
20260831140957 65 346 0.0 2.0 0.00 0.00 0.00 80 1013.6
20260831140935 65 82 0.0 0.0 0.00 0.00 0.00 81 1012.8
20260831140854 65 82 0.0 0.0 0.00 0.00 0.00 81 1012.8
20260831140845 65 82 0.0 0.0 0.00 0.00 0.00 81 1012.8
20260831140700 65 92 0.0 0.0 0.00 0.00 0.00 81 1012.6
20260831140456 64 52 0.0 2.0 0.00 0.00 0.00 81 1013.5
20260831140434 64 92 0.0 0.0 0.00 0.00 0.00 81 1012.6
20260831140333 64 92 0.0 0.0 0.00 0.00 0.00 81 1012.6
20260831140235 64 92 0.0 0.0 0.00 0.00 0.00 81 1012.6
20260831140151 64 79 0.0 0.0 0.00 0.00 0.00 81 1012.4
20260831140133 64 92 0.0 0.0 0.00 0.00 0.00 81 1012.6
20260831140116 64 92 0.0 0.0 0.00 0.00 0.00 81 1012.6
20260831140035 64 92 0.0 0.0 0.00 0.00 0.00 81 1012.6
20260831140006 64 92 0.0 0.0 0.00 0.00 0.00 81 1012.6
20260831135955 64 66 0.0 3.0 0.00 0.00 0.00 81 1013.4
20260831135934 64 92 0.0 0.0 0.00 0.00 0.00 81 1012.6
20260831135841 64 79 0.0 0.0 0.00 0.00 0.00 82 1012.4
20260831135837 64 92 0.0 0.0 0.00 0.00 0.00 81 1012.6
20260831135827 64 92 0.0 0.0 0.00 0.00 0.00 81 1012.6
20260831135817 64 92 0.0 1.0 0.00 0.00 0.00 81 1012.6
20260831135634 64 79 0.0 0.0 0.00 0.00 0.00 81 1012.4
20260831135604 64 79 0.0 0.0 0.00 0.00 0.00 81 1012.4
20260831135533 64 79 0.0 0.0 0.00 0.00 0.00 81 1012.4
20260831135507 64 79 0.0 0.0 0.00 0.00 0.00 82 1012.4
20260831135454 64 80 1.0 2.0 0.00 0.00 0.00 81 1013.4
20260831135433 64 79 0.0 0.0 0.00 0.00 0.00 81 1012.4
20260831135415 64 79 0.0 0.0 0.00 0.00 0.00 81 1012.4
20260831135234 64 79 0.0 0.0 0.00 0.00 0.00 82 1012.4
20260831135151 64 79 0.0 0.0 0.00 0.00 0.00 82 1012.4
20260831135016 64 79 0.0 0.0 0.00 0.00 0.00 82 1012.4
20260831134949 64 50 2.0 2.0 0.00 0.00 0.00 82 1013.4
20260831134934 64 79 0.0 0.0 0.00 0.00 0.00 82 1012.4
20260831134917 64 79 0.0 0.0 0.00 0.00 0.00 82 1012.4
20260831134833 64 79 0.0 0.0 0.00 0.00 0.00 82 1012.4
20260831134810 64 28 2.0 0.0 0.00 0.00 0.00 82 1012.5
20260831134804 64 79 0.0 0.0 0.00 0.00 0.00 82 1012.4
20260831134735 64 79 0.0 1.0 0.00 0.00 0.00 82 1012.4
20260831134634 64 28 2.0 0.0 0.00 0.00 0.00 82 1012.5
20260831134542 64 28 2.0 0.0 0.00 0.00 0.00 82 1012.5
20260831134525 64 28 2.0 0.0 0.00 0.00 0.00 82 1012.5
20260831134450 64 28 2.0 0.0 0.00 0.00 0.00 82 1012.5
20260831134446 64 47 0.0 3.0 0.00 0.00 0.00 82 1013.2
20260831134234 64 28 2.0 0.0 0.00 0.00 0.00 82 1012.5
20260831134204 64 28 2.0 0.0 0.00 0.00 0.00 82 1012.5
20260831134152 64 28 2.0 0.0 0.00 0.00 0.00 81 1012.5
20260831134011 64 108 1.0 0.0 0.00 0.00 0.00 81 1012.2
20260831134006 64 28 2.0 0.0 0.00 0.00 0.00 82 1012.5
20260831133945 64 55 1.0 2.0 0.00 0.00 0.00 82 1013.2
20260831133933 64 28 2.0 0.0 0.00 0.00 0.00 82 1012.5
20260831133904 64 28 2.0 0.0 0.00 0.00 0.00 82 1012.5
20260831133837 64 108 1.0 0.0 0.00 0.00 0.00 81 1012.2
20260831133833 64 28 2.0 0.0 0.00 0.00 0.00 82 1012.5
20260831133804 64 28 2.0 0.0 0.00 0.00 0.00 81 1012.5
20260831133735 64 28 2.0 2.0 0.00 0.00 0.00 81 1012.5
20260831133644 64 108 1.0 0.0 0.00 0.00 0.00 81 1012.2
20260831133640 64 108 1.0 0.0 0.00 0.00 0.00 81 1012.2
20260831133627 64 108 1.0 0.0 0.00 0.00 0.00 81 1012.2
20260831133440 64 44 3.0 3.0 0.00 0.00 0.00 81 1013.1
20260831133342 64 108 1.0 0.0 0.00 0.00 0.00 81 1012.2
20260831133336 64 108 1.0 0.0 0.00 0.00 0.00 81 1012.2
20260831133236 64 108 1.0 0.0 0.00 0.00 0.00 81 1012.2
20260831133210 64 343 1.0 0.0 0.00 0.00 0.00 81 1012.2
20260831133149 64 108 1.0 0.0 0.00 0.00 0.00 81 1012.2
20260831133023 64 343 1.0 0.0 0.00 0.00 0.00 81 1012.2
20260831133016 64 108 1.0 0.0 0.00 0.00 0.00 81 1012.2
20260831132935 64 44 1.0 4.0 0.00 0.00 0.00 81 1013.1
20260831132843 64 343 1.0 0.0 0.00 0.00 0.00 81 1012.2
20260831132835 64 108 1.0 0.0 0.00 0.00 0.00 81 1012.2
20260831132826 64 108 1.0 0.0 0.00 0.00 0.00 81 1012.2
20260831132816 64 108 1.0 2.0 0.00 0.00 0.00 81 1012.2
20260831132638 64 343 1.0 0.0 0.00 0.00 0.00 81 1012.2
20260831132634 64 343 1.0 0.0 0.00 0.00 0.00 81 1012.2
20260831132605 64 343 1.0 0.0 0.00 0.00 0.00 81 1012.2
20260831132431 64 35 1.0 4.0 0.00 0.00 0.00 81 1013.0
20260831132314 64 343 1.0 0.0 0.00 0.00 0.00 81 1012.2
20260831132134 64 343 1.0 0.0 0.00 0.00 0.00 81 1012.2
20260831132034 64 343 1.0 0.0 0.00 0.00 0.00 81 1012.2
20260831131934 64 343 1.0 0.0 0.00 0.00 0.00 81 1012.2
20260831131930 64 22 2.0 3.0 0.00 0.00 0.00 81 1013.1
20260831131925 64 344 2.0 0.0 0.00 0.00 0.00 81 1012.4
20260831131904 64 343 1.0 0.0 0.00 0.00 0.00 81 1012.2
20260831131834 64 343 1.0 0.0 0.00 0.00 0.00 81 1012.2
20260831131809 64 344 2.0 0.0 0.00 0.00 0.00 81 1012.4
20260831131804 64 343 1.0 0.0 0.00 0.00 0.00 81 1012.2
20260831131734 64 343 1.0 2.0 0.00 0.00 0.00 81 1012.2
20260831131704 64 344 2.0 0.0 0.00 0.00 0.00 81 1012.4
20260831131633 64 344 2.0 0.0 0.00 0.00 0.00 81 1012.4
20260831131602 64 344 2.0 0.0 0.00 0.00 0.00 81 1012.4
20260831131425 64 44 2.0 3.0 0.00 0.00 0.00 81 1013.3
20260831131305 64 344 2.0 0.0 0.00 0.00 0.00 81 1012.4
20260831131233 64 344 2.0 0.0 0.00 0.00 0.00 81 1012.4
20260831131223 64 344 2.0 2.0 0.00 0.00 0.00 81 1012.4
20260831131137 64 344 2.0 0.0 0.00 0.00 0.00 81 1012.4
20260831131104 64 344 2.0 0.0 0.00 0.00 0.00 81 1012.4
20260831131033 64 344 2.0 0.0 0.00 0.00 0.00 81 1012.4
20260831131021 64 22 2.0 0.0 0.00 0.00 0.00 81 1012.2
20260831131004 64 344 2.0 0.0 0.00 0.00 0.00 81 1012.4
20260831130933 64 344 2.0 0.0 0.00 0.00 0.00 81 1012.4
20260831130921 64 24 2.0 3.0 0.00 0.00 0.00 81 1013.2
20260831130907 64 344 2.0 0.0 0.00 0.00 0.00 81 1012.4
20260831130858 64 344 2.0 0.0 0.00 0.00 0.00 81 1012.4
20260831130655 64 41 2.0 0.0 0.00 0.00 0.00 81 1012.1
20260831130648 64 22 2.0 0.0 0.00 0.00 0.00 81 1012.2
20260831130517 64 22 2.0 0.0 0.00 0.00 0.00 81 1012.2
20260831130436 64 22 2.0 0.0 0.00 0.00 0.00 81 1012.2
20260831130416 64 50 0.0 3.0 0.00 0.00 0.00 81 1013.1
20260831130404 64 22 2.0 0.0 0.00 0.00 0.00 81 1012.2
20260831130334 64 22 2.0 0.0 0.00 0.00 0.00 81 1012.2
20260831130236 64 22 2.0 0.0 0.00 0.00 0.00 81 1012.2
20260831130215 64 22 2.0 0.0 0.00 0.00 0.00 81 1012.2
20260831130207 64 22 2.0 0.0 0.00 0.00 0.00 81 1012.2
20260831130029 64 22 2.0 0.0 0.00 0.00 0.00 81 1012.2
20260831130005 64 22 2.0 0.0 0.00 0.00 0.00 81 1012.2
20260831125947 64 41 2.0 0.0 0.00 0.00 0.00 81 1012.1
20260831125934 64 22 2.0 0.0 0.00 0.00 0.00 81 1012.2
20260831125915 64 43 1.0 4.0 0.00 0.00 0.00 81 1013.3
20260831125836 64 22 2.0 0.0 0.00 0.00 0.00 81 1012.2
20260831125809 64 41 2.0 0.0 0.00 0.00 0.00 81 1012.1
20260831125803 64 22 2.0 0.0 0.00 0.00 0.00 81 1012.2
20260831125744 64 22 2.0 3.0 0.00 0.00 0.00 81 1012.2
20260831125729 64 41 2.0 0.0 0.00 0.00 0.00 81 1012.1
20260831125450 64 41 2.0 0.0 0.00 0.00 0.00 81 1012.1
20260831125410 64 25 2.0 3.0 0.00 0.00 0.00 81 1013.3
20260831125317 64 41 2.0 0.0 0.00 0.00 0.00 82 1012.1
20260831125306 64 41 2.0 0.0 0.00 0.00 0.00 81 1012.1
20260831125234 64 41 2.0 0.0 0.00 0.00 0.00 82 1012.1
20260831125134 64 41 2.0 0.0 0.00 0.00 0.00 82 1012.1
20260831125039 64 29 1.0 0.0 0.00 0.00 0.00 82 1012.1
20260831125034 64 41 2.0 0.0 0.00 0.00 0.00 82 1012.1
20260831124951 64 41 2.0 0.0 0.00 0.00 0.00 82 1012.1
20260831124906 64 2 1.0 2.0 0.00 0.00 0.00 82 1013.1
20260831124806 64 41 2.0 0.0 0.00 0.00 0.00 82 1012.1
20260831124735 64 41 2.0 2.0 0.00 0.00 0.00 82 1012.1
20260831124722 64 29 1.0 0.0 0.00 0.00 0.00 82 1012.1
20260831124714 64 29 1.0 0.0 0.00 0.00 0.00 82 1012.1
20260831124534 63 29 1.0 0.0 0.00 0.00 0.00 82 1012.1
20260831124504 63 29 1.0 0.0 0.00 0.00 0.00 82 1012.1
20260831124433 64 29 1.0 0.0 0.00 0.00 0.00 82 1012.1
20260831124402 64 78 0.0 2.0 0.00 0.00 0.00 82 1013.0
20260831124334 64 29 1.0 0.0 0.00 0.00 0.00 82 1012.1
20260831124254 64 69 0.0 0.0 0.00 0.00 0.00 82 1012.2
20260831124250 64 29 1.0 0.0 0.00 0.00 0.00 82 1012.1
20260831124042 64 69 0.0 0.0 0.00 0.00 0.00 82 1012.2
20260831124037 64 29 1.0 0.0 0.00 0.00 0.00 82 1012.1
20260831123934 64 29 1.0 0.0 0.00 0.00 0.00 82 1012.1
20260831123856 64 60 2.0 2.0 0.00 0.00 0.00 82 1012.9
20260831123847 64 29 1.0 0.0 0.00 0.00 0.00 82 1012.1
20260831123838 64 29 1.0 0.0 0.00 0.00 0.00 82 1012.1
20260831123828 64 29 1.0 2.0 0.00 0.00 0.00 82 1012.1
20260831123534 64 69 0.0 0.0 0.00 0.00 0.00 82 1012.2
20260831123443 64 69 0.0 0.0 0.00 0.00 0.00 82 1012.2
20260831123434 64 69 0.0 0.0 0.00 0.00 0.00 82 1012.2
20260831123356 64 66 0.0 1.0 0.00 0.00 0.00 82 1013.1
20260831123334 64 69 0.0 0.0 0.00 0.00 0.00 82 1012.2
20260831123234 64 69 0.0 0.0 0.00 0.00 0.00 82 1012.2
20260831123204 64 69 0.0 0.0 0.00 0.00 0.00 82 1012.2
20260831123146 64 44 0.0 0.0 0.00 0.00 0.00 81 1011.9
20260831123134 64 69 0.0 0.0 0.00 0.00 0.00 82 1012.2
20260831123113 64 69 0.0 0.0 0.00 0.00 0.00 82 1012.2
20260831122934 64 69 0.0 0.0 0.00 0.00 0.00 82 1012.2
20260831122904 64 69 0.0 0.0 0.00 0.00 0.00 81 1012.2
20260831122855 64 87 0.0 1.0 0.00 0.00 0.00 82 1013.0
20260831122843 64 44 0.0 0.0 0.00 0.00 0.00 81 1011.9
20260831122838 64 69 0.0 0.0 0.00 0.00 0.00 82 1012.2
20260831122826 64 69 0.0 0.0 0.00 0.00 0.00 82 1012.2
20260831122816 64 69 0.0 1.0 0.00 0.00 0.00 81 1012.2
20260831122634 64 44 0.0 0.0 0.00 0.00 0.00 81 1011.9
20260831122534 64 44 0.0 0.0 0.00 0.00 0.00 81 1011.9
20260831122448 64 44 0.0 0.0 0.00 0.00 0.00 81 1011.9
20260831122351 64 50 0.0 0.0 0.00 0.00 0.00 81 1012.9
20260831122305 64 44 0.0 0.0 0.00 0.00 0.00 81 1011.9
20260831122233 64 44 0.0 0.0 0.00 0.00 0.00 81 1011.9
20260831122203 64 44 0.0 0.0 0.00 0.00 0.00 81 1011.9
20260831122144 64 50 0.0 0.0 0.00 0.00 0.00 81 1011.9
20260831122133 64 44 0.0 0.0 0.00 0.00 0.00 81 1011.9
20260831122107 64 44 0.0 0.0 0.00 0.00 0.00 81 1011.9
20260831122034 64 44 0.0 0.0 0.00 0.00 0.00 81 1011.9
20260831122005 64 44 0.0 0.0 0.00 0.00 0.00 81 1011.9
20260831121933 64 44 0.0 0.0 0.00 0.00 0.00 81 1011.9
20260831121923 64 50 0.0 0.0 0.00 0.00 0.00 81 1011.9
20260831121846 64 53 0.0 2.0 0.00 0.00 0.00 81 1012.7
20260831121840 64 50 0.0 0.0 0.00 0.00 0.00 81 1011.9
20260831121836 64 44 0.0 0.0 0.00 0.00 0.00 81 1011.9
20260831121825 64 44 0.0 0.0 0.00 0.00 0.00 81 1011.9
20260831121816 64 44 0.0 0.0 0.00 0.00 0.00 81 1011.9
20260831121633 64 50 0.0 0.0 0.00 0.00 0.00 81 1011.9
20260831121622 64 72 1.0 0.0 0.00 0.00 0.00 80 1012.2
20260831121600 64 50 0.0 0.0 0.00 0.00 0.00 81 1011.9
20260831121407 64 72 1.0 0.0 0.00 0.00 0.00 80 1012.2
20260831121357 64 50 0.0 0.0 0.00 0.00 0.00 81 1011.9
20260831121345 64 50 0.0 0.0 0.00 0.00 0.00 81 1011.9
20260831121342 64 52 1.0 1.0 0.00 0.00 0.00 81 1013.0
20260831121209 64 50 0.0 0.0 0.00 0.00 0.00 80 1011.9
20260831121034 64 50 0.0 0.0 0.00 0.00 0.00 80 1011.9
20260831120934 64 50 0.0 0.0 0.00 0.00 0.00 80 1011.9
20260831120854 64 72 1.0 0.0 0.00 0.00 0.00 80 1012.2
20260831120850 64 50 0.0 0.0 0.00 0.00 0.00 80 1011.9
20260831120841 64 50 0.0 0.0 0.00 0.00 0.00 80 1011.9
20260831120837 64 62 0.0 3.0 0.00 0.00 0.00 80 1013.1
20260831120831 64 50 0.0 1.0 0.00 0.00 0.00 80 1011.9
20260831120534 64 72 1.0 0.0 0.00 0.00 0.00 80 1012.2
20260831120517 64 72 1.0 0.0 0.00 0.00 0.00 80 1012.2
20260831120434 64 72 1.0 0.0 0.00 0.00 0.00 80 1012.2
20260831120402 64 72 1.0 0.0 0.00 0.00 0.00 80 1012.2
20260831120331 64 75 1.0 2.0 0.00 0.00 0.00 80 1012.9
20260831120204 64 72 1.0 0.0 0.00 0.00 0.00 80 1012.2
20260831120133 64 72 1.0 0.0 0.00 0.00 0.00 80 1012.2
20260831120116 64 72 1.0 0.0 0.00 0.00 0.00 79 1012.2
20260831120035 64 72 1.0 0.0 0.00 0.00 0.00 79 1012.2
20260831115944 64 62 0.0 0.0 0.00 0.00 0.00 79 1011.9
20260831115935 64 72 1.0 0.0 0.00 0.00 0.00 80 1012.2
20260831115834 64 72 1.0 0.0 0.00 0.00 0.00 80 1012.2
20260831115826 64 91 1.0 2.0 0.00 0.00 0.00 80 1013.0
20260831115804 64 72 1.0 0.0 0.00 0.00 0.00 80 1012.2
20260831115735 64 72 1.0 2.0 0.00 0.00 0.00 80 1012.2
20260831115711 64 62 0.0 0.0 0.00 0.00 0.00 79 1011.9
20260831115704 64 62 0.0 0.0 0.00 0.00 0.00 80 1011.9
20260831115633 64 62 0.0 0.0 0.00 0.00 0.00 80 1011.9
20260831115623 64 62 0.0 0.0 0.00 0.00 0.00 80 1011.9
20260831115613 64 62 0.0 0.0 0.00 0.00 0.00 79 1011.9
20260831115434 64 62 0.0 0.0 0.00 0.00 0.00 79 1011.9
20260831115345 65 62 0.0 1.0 0.00 0.00 0.00 79 1011.9
20260831115340 64 62 0.0 0.0 0.00 0.00 0.00 79 1011.9
20260831115327 64 62 0.0 0.0 0.00 0.00 0.00 79 1011.9
20260831115323 64 22 0.0 2.0 0.00 0.00 0.00 79 1012.9
20260831115134 64 62 0.0 0.0 0.00 0.00 0.00 79 1011.9
20260831115034 64 62 0.0 0.0 0.00 0.00 0.00 79 1011.9
20260831115004 64 62 0.0 0.0 0.00 0.00 0.00 79 1011.9
20260831114933 65 62 0.0 0.0 0.00 0.00 0.00 79 1011.9
20260831114907 65 31 0.0 0.0 0.00 0.00 0.00 79 1012.1
20260831114853 65 62 0.0 0.0 0.00 0.00 0.00 79 1011.9
20260831114845 65 62 0.0 0.0 0.00 0.00 0.00 79 1011.9
20260831114822 65 50 0.0 3.0 0.00 0.00 0.00 79 1013.0
20260831114703 65 31 0.0 0.0 0.00 0.00 0.00 79 1012.1
20260831114633 65 31 0.0 0.0 0.00 0.00 0.00 79 1012.1
20260831114544 64 31 0.0 0.0 0.00 0.00 0.00 80 1012.1
20260831114534 65 31 0.0 0.0 0.00 0.00 0.00 79 1012.1
20260831114453 65 31 0.0 0.0 0.00 0.00 0.00 79 1012.1
20260831114321 65 76 0.0 2.0 0.00 0.00 0.00 79 1013.0
20260831114305 65 31 0.0 0.0 0.00 0.00 0.00 79 1012.1
20260831114238 64 31 0.0 0.0 0.00 0.00 0.00 79 1012.1
20260831114234 65 31 0.0 0.0 0.00 0.00 0.00 79 1012.1
20260831114222 64 76 0.0 0.0 0.00 0.00 0.00 79 1011.9
20260831114214 65 31 0.0 0.0 0.00 0.00 0.00 79 1012.1
20260831114033 64 31 0.0 0.0 0.00 0.00 0.00 79 1012.1
20260831114005 64 31 0.0 0.0 0.00 0.00 0.00 80 1012.1
20260831113934 64 31 0.0 0.0 0.00 0.00 0.00 80 1012.1
20260831113909 64 31 0.0 0.0 0.00 0.00 0.00 79 1012.1
20260831113901 64 31 0.0 0.0 0.00 0.00 0.00 79 1012.1
20260831113818 64 33 0.0 2.0 0.00 0.00 0.00 79 1012.6
20260831113534 64 76 0.0 0.0 0.00 0.00 0.00 79 1011.9
20260831113434 64 76 0.0 0.0 0.00 0.00 0.00 79 1011.9
20260831113336 64 76 0.0 0.0 0.00 0.00 0.00 80 1011.9
20260831113317 64 32 0.0 2.0 0.00 0.00 0.00 79 1013.0
20260831113234 64 76 0.0 0.0 0.00 0.00 0.00 79 1011.9
20260831113207 65 71 1.0 0.0 0.00 0.00 0.00 79 1011.9
20260831113134 64 76 0.0 0.0 0.00 0.00 0.00 79 1011.9
20260831113103 64 76 0.0 0.0 0.00 0.00 0.00 79 1011.9
20260831113035 65 76 0.0 0.0 0.00 0.00 0.00 79 1011.9
20260831113022 65 71 1.0 0.0 0.00 0.00 0.00 79 1011.9
20260831112946 65 76 0.0 0.0 0.00 0.00 0.00 79 1011.9
20260831112856 65 71 1.0 0.0 0.00 0.00 0.00 79 1011.9
20260831112851 65 76 0.0 0.0 0.00 0.00 0.00 79 1011.9
20260831112841 65 76 0.0 0.0 0.00 0.00 0.00 79 1011.9
20260831112830 65 76 0.0 0.0 0.00 0.00 0.00 79 1011.9
20260831112812 65 89 0.0 0.0 0.00 0.00 0.00 79 1013.1
20260831112651 65 71 1.0 0.0 0.00 0.00 0.00 79 1011.9
20260831112434 65 71 1.0 0.0 0.00 0.00 0.00 79 1011.9
20260831112422 65 71 1.0 0.0 0.00 0.00 0.00 79 1011.9
20260831112348 65 71 1.0 0.0 0.00 0.00 0.00 79 1011.9
20260831112307 65 64 0.0 2.0 0.00 0.00 0.00 79 1013.0
20260831112134 65 71 1.0 0.0 0.00 0.00 0.00 79 1011.9
20260831112044 65 71 1.0 0.0 0.00 0.00 0.00 79 1011.9
20260831112031 65 71 1.0 0.0 0.00 0.00 0.00 79 1011.9
20260831111846 65 49 1.0 0.0 0.00 0.00 0.00 79 1012.2
20260831111834 65 71 1.0 0.0 0.00 0.00 0.00 79 1011.9
20260831111804 65 71 1.0 0.0 0.00 0.00 0.00 79 1011.9
20260831111802 65 40 1.0 2.0 0.00 0.00 0.00 79 1012.9
20260831111739 65 49 1.0 0.0 0.00 0.00 0.00 79 1012.2
20260831111735 65 71 1.0 2.0 0.00 0.00 0.00 79 1011.9
20260831111718 65 49 1.0 0.0 0.00 0.00 0.00 79 1012.2
20260831111633 65 49 1.0 0.0 0.00 0.00 0.00 79 1012.2
20260831111614 65 49 1.0 0.0 0.00 0.00 0.00 79 1012.2
20260831111549 65 79 0.0 0.0 0.00 0.00 0.00 78 1012.1
20260831111534 65 49 1.0 0.0 0.00 0.00 0.00 79 1012.2
20260831111520 65 49 1.0 0.0 0.00 0.00 0.00 79 1012.2
20260831111258 65 66 0.0 1.0 0.00 0.00 0.00 79 1013.0
20260831111035 65 49 1.0 0.0 0.00 0.00 0.00 79 1012.2
20260831111019 65 79 0.0 0.0 0.00 0.00 0.00 78 1012.1
20260831111009 65 49 1.0 0.0 0.00 0.00 0.00 79 1012.2
20260831110959 65 49 1.0 0.0 0.00 0.00 0.00 78 1012.2
20260831110834 65 49 1.0 0.0 0.00 0.00 0.00 78 1012.2
20260831110824 65 89 0.0 0.0 0.00 0.00 0.00 77 1012.3
20260831110804 65 49 1.0 0.0 0.00 0.00 0.00 78 1012.2
20260831110754 65 43 0.0 2.0 0.00 0.00 0.00 78 1013.0
20260831110745 65 79 0.0 0.0 0.00 0.00 0.00 78 1012.1
20260831110739 65 49 1.0 2.0 0.00 0.00 0.00 78 1012.2
20260831110727 65 79 0.0 0.0 0.00 0.00 0.00 78 1012.1
20260831110717 65 79 0.0 0.0 0.00 0.00 0.00 78 1012.1
20260831110704 65 79 0.0 0.0 0.00 0.00 0.00 78 1012.1
20260831110519 65 79 0.0 0.0 0.00 0.00 0.00 78 1012.1
20260831110504 65 79 0.0 0.0 0.00 0.00 0.00 78 1012.1
20260831110249 65 47 0.0 1.0 0.00 0.00 0.00 78 1013.2
20260831110049 65 79 0.0 0.0 0.00 0.00 0.00 78 1012.1
20260831110026 65 89 0.0 0.0 0.00 0.00 0.00 77 1012.3
20260831110013 65 79 0.0 0.0 0.00 0.00 0.00 78 1012.1
20260831105848 65 89 0.0 0.0 0.00 0.00 0.00 77 1012.3
20260831105834 65 79 0.0 0.0 0.00 0.00 0.00 77 1012.1
20260831105822 65 79 0.0 0.0 0.00 0.00 0.00 77 1012.1
20260831105812 65 79 0.0 0.0 0.00 0.00 0.00 77 1012.1
20260831105800 65 89 0.0 0.0 0.00 0.00 0.00 77 1012.3
20260831105747 65 85 0.0 2.0 0.00 0.00 0.00 77 1013.2
20260831105643 65 89 0.0 0.0 0.00 0.00 0.00 77 1012.3
20260831105630 65 89 0.0 0.0 0.00 0.00 0.00 77 1012.3
20260831105618 65 89 0.0 0.0 0.00 0.00 0.00 77 1012.3
20260831105334 65 89 0.0 0.0 0.00 0.00 0.00 77 1012.3
20260831105321 65 89 0.0 0.0 0.00 0.00 0.00 77 1012.3
20260831105306 65 89 0.0 0.0 0.00 0.00 0.00 77 1012.3
20260831105243 65 89 0.0 2.0 0.00 0.00 0.00 77 1013.2
20260831105233 65 89 0.0 0.0 0.00 0.00 0.00 77 1012.3
20260831105215 65 89 0.0 0.0 0.00 0.00 0.00 77 1012.3
20260831105143 65 89 0.0 0.0 0.00 0.00 0.00 77 1012.3
20260831105130 65 89 0.0 0.0 0.00 0.00 0.00 77 1012.3
20260831105008 65 89 0.0 0.0 0.00 0.00 0.00 78 1012.3
20260831104954 65 89 0.0 0.0 0.00 0.00 0.00 77 1012.3
20260831104738 65 89 0.0 2.0 0.00 0.00 0.00 77 1013.3
20260831104634 65 58 1.0 0.0 0.00 0.00 0.00 77 1012.3
20260831104604 65 58 1.0 0.0 0.00 0.00 0.00 77 1012.3
20260831104533 65 58 1.0 0.0 0.00 0.00 0.00 77 1012.3
20260831104434 65 58 1.0 0.0 0.00 0.00 0.00 77 1012.3
20260831104334 65 58 1.0 0.0 0.00 0.00 0.00 77 1012.3
20260831104235 65 50 0.0 1.0 0.00 0.00 0.00 77 1013.5
20260831104204 65 58 1.0 0.0 0.00 0.00 0.00 77 1012.3
20260831104133 65 58 1.0 0.0 0.00 0.00 0.00 77 1012.3
20260831104038 65 58 1.0 0.0 0.00 0.00 0.00 77 1012.3
20260831103941 65 50 0.0 0.0 0.00 0.00 0.00 76 1012.3
20260831103934 65 58 1.0 0.0 0.00 0.00 0.00 76 1012.3
20260831103834 65 58 1.0 0.0 0.00 0.00 0.00 76 1012.3
20260831103804 65 58 1.0 0.0 0.00 0.00 0.00 76 1012.3
20260831103735 65 58 1.0 1.0 0.00 0.00 0.00 76 1012.3
20260831103704 65 50 0.0 0.0 0.00 0.00 0.00 76 1012.3
20260831103633 65 50 0.0 0.0 0.00 0.00 0.00 76 1012.3
20260831103614 65 50 0.0 0.0 0.00 0.00 0.00 76 1012.3
20260831103434 65 50 0.0 0.0 0.00 0.00 0.00 76 1012.3
20260831103335 65 50 0.0 0.0 0.00 0.00 0.00 76 1012.3
20260831103325 65 50 0.0 0.0 0.00 0.00 0.00 75 1012.3
20260831103305 65 50 0.0 0.0 0.00 0.00 0.00 76 1012.3
20260831103234 65 50 0.0 0.0 0.00 0.00 0.00 76 1012.3
20260831103230 66 45 0.0 2.0 0.00 0.00 0.00 76 1013.2
20260831103216 65 50 0.0 1.0 0.00 0.00 0.00 75 1012.3
20260831103204 65 50 0.0 0.0 0.00 0.00 0.00 76 1012.3
20260831103134 65 50 0.0 0.0 0.00 0.00 0.00 75 1012.3
20260831103042 65 44 0.0 0.0 0.00 0.00 0.00 74 1012.2
20260831103036 65 50 0.0 0.0 0.00 0.00 0.00 75 1012.3
20260831103015 65 44 0.0 0.0 0.00 0.00 0.00 74 1012.2
20260831103007 65 50 0.0 0.0 0.00 0.00 0.00 75 1012.3
20260831102955 65 50 0.0 0.0 0.00 0.00 0.00 75 1012.3
20260831102729 66 62 0.0 1.0 0.00 0.00 0.00 75 1013.3
20260831102706 65 44 0.0 0.0 0.00 0.00 0.00 75 1012.2
20260831102657 65 44 0.0 0.0 0.00 0.00 0.00 75 1012.2
20260831102535 65 44 0.0 0.0 0.00 0.00 0.00 74 1012.2
20260831102521 66 44 0.0 0.0 0.00 0.00 0.00 74 1012.2
20260831102514 65 44 0.0 0.0 0.00 0.00 0.00 74 1012.2
20260831102335 65 44 0.0 0.0 0.00 0.00 0.00 74 1012.2
20260831102236 65 44 0.0 0.0 0.00 0.00 0.00 74 1012.2
20260831102224 66 50 1.0 1.0 0.00 0.00 0.00 74 1013.2
20260831102217 66 66 1.0 0.0 0.00 0.00 0.00 73 1012.2
20260831102207 65 44 0.0 0.0 0.00 0.00 0.00 74 1012.2
20260831101918 66 44 0.0 0.0 0.00 0.00 0.00 74 1012.2
20260831101833 66 44 0.0 0.0 0.00 0.00 0.00 74 1012.2
20260831101805 66 44 0.0 0.0 0.00 0.00 0.00 74 1012.2
20260831101738 66 44 0.0 0.0 0.00 0.00 0.00 74 1012.2
20260831101720 66 58 0.0 2.0 0.00 0.00 0.00 74 1013.3
20260831101652 66 66 1.0 0.0 0.00 0.00 0.00 73 1012.2
20260831101634 66 66 1.0 0.0 0.00 0.00 0.00 74 1012.2
20260831101604 66 66 1.0 0.0 0.00 0.00 0.00 73 1012.2
20260831101554 66 66 1.0 0.0 0.00 0.00 0.00 74 1012.2
20260831101545 66 66 1.0 0.0 0.00 0.00 0.00 74 1012.2
20260831101344 66 66 1.0 0.0 0.00 0.00 0.00 73 1012.2
20260831101329 66 66 1.0 0.0 0.00 0.00 0.00 73 1012.2
20260831101215 66 70 2.0 2.0 0.00 0.00 0.00 73 1013.0
20260831101135 66 66 1.0 0.0 0.00 0.00 0.00 73 1012.2
20260831101122 66 52 1.0 0.0 0.00 0.00 0.00 73 1012.3
20260831101036 66 66 1.0 0.0 0.00 0.00 0.00 73 1012.2
20260831100938 66 52 1.0 0.0 0.00 0.00 0.00 72 1012.3
20260831100934 66 66 1.0 0.0 0.00 0.00 0.00 73 1012.2
20260831100842 66 52 1.0 0.0 0.00 0.00 0.00 72 1012.3
20260831100838 66 66 1.0 0.0 0.00 0.00 0.00 73 1012.2
20260831100827 66 52 1.0 0.0 0.00 0.00 0.00 72 1012.3
20260831100822 66 66 1.0 0.0 0.00 0.00 0.00 73 1012.2
20260831100758 66 66 1.0 1.0 0.00 0.00 0.00 73 1012.2
20260831100711 66 62 1.0 2.0 0.00 0.00 0.00 73 1013.0
20260831100613 66 52 1.0 0.0 0.00 0.00 0.00 72 1012.3
20260831100603 66 52 1.0 0.0 0.00 0.00 0.00 72 1012.3
20260831100413 66 52 1.0 0.0 0.00 0.00 0.00 72 1012.3
20260831100403 66 52 1.0 0.0 0.00 0.00 0.00 72 1012.3
20260831100207 66 47 0.0 2.0 0.00 0.00 0.00 72 1013.1
20260831100104 66 52 1.0 0.0 0.00 0.00 0.00 72 1012.3
20260831095915 66 52 1.0 0.0 0.00 0.00 0.00 72 1012.3
20260831095736 66 52 1.0 2.0 0.00 0.00 0.00 71 1012.3
20260831095705 66 47 2.0 2.0 0.00 0.00 0.00 71 1013.3
20260831095634 66 62 1.0 0.0 0.00 0.00 0.00 71 1012.1
20260831095534 66 62 1.0 0.0 0.00 0.00 0.00 71 1012.1
20260831095503 66 62 1.0 0.0 0.00 0.00 0.00 71 1012.1
20260831095434 66 62 1.0 0.0 0.00 0.00 0.00 72 1012.1
20260831095403 66 62 1.0 0.0 0.00 0.00 0.00 72 1012.1
20260831095333 66 62 1.0 0.0 0.00 0.00 0.00 72 1012.1
20260831095243 67 62 1.0 0.0 0.00 0.00 0.00 71 1012.1
20260831095234 66 62 1.0 0.0 0.00 0.00 0.00 72 1012.1
20260831095200 66 46 1.0 1.0 0.00 0.00 0.00 71 1013.1
20260831095134 66 62 1.0 0.0 0.00 0.00 0.00 71 1012.1
20260831095104 66 62 1.0 0.0 0.00 0.00 0.00 71 1012.1
20260831095034 67 62 1.0 0.0 0.00 0.00 0.00 71 1012.1
20260831094934 67 62 1.0 0.0 0.00 0.00 0.00 71 1012.1
20260831094921 67 44 0.0 0.0 0.00 0.00 0.00 70 1012.1
20260831094914 67 62 1.0 0.0 0.00 0.00 0.00 71 1012.1
20260831094735 67 62 1.0 1.0 0.00 0.00 0.00 71 1012.1
20260831094706 67 44 0.0 0.0 0.00 0.00 0.00 71 1012.1
20260831094656 67 44 0.0 1.0 0.00 0.00 0.00 70 1012.1
20260831094634 67 44 0.0 0.0 0.00 0.00 0.00 70 1012.1
20260831094604 67 44 0.0 0.0 0.00 0.00 0.00 70 1012.1
20260831094534 67 44 0.0 0.0 0.00 0.00 0.00 70 1012.1
20260831094502 67 44 0.0 0.0 0.00 0.00 0.00 70 1012.1
20260831094329 67 44 0.0 0.0 0.00 0.00 0.00 70 1012.1
20260831094152 67 50 0.0 2.0 0.00 0.00 0.00 70 1012.9
20260831094134 67 44 0.0 0.0 0.00 0.00 0.00 70 1012.1
20260831094035 67 44 0.0 0.0 0.00 0.00 0.00 70 1012.1
20260831094005 67 44 0.0 0.0 0.00 0.00 0.00 70 1012.1
20260831093934 67 44 0.0 0.0 0.00 0.00 0.00 70 1012.1
20260831093906 67 54 0.0 0.0 0.00 0.00 0.00 70 1012.2
20260831093856 67 44 0.0 0.0 0.00 0.00 0.00 70 1012.1
20260831093846 67 44 0.0 0.0 0.00 0.00 0.00 70 1012.1
20260831093704 67 54 0.0 0.0 0.00 0.00 0.00 70 1012.2
20260831093647 67 50 0.0 1.0 0.00 0.00 0.00 70 1012.9
20260831093633 67 54 0.0 0.0 0.00 0.00 0.00 70 1012.2
20260831093621 67 67 1.0 0.0 0.00 0.00 0.00 69 1012.1
20260831093534 67 54 0.0 0.0 0.00 0.00 0.00 70 1012.2
20260831093515 67 54 0.0 0.0 0.00 0.00 0.00 70 1012.2
20260831093456 67 54 0.0 0.0 0.00 0.00 0.00 69 1012.2
20260831093450 67 54 0.0 0.0 0.00 0.00 0.00 70 1012.2
20260831093325 67 54 0.0 1.0 0.00 0.00 0.00 69 1012.2
20260831093313 67 54 0.0 0.0 0.00 0.00 0.00 70 1012.2
20260831093303 67 54 0.0 0.0 0.00 0.00 0.00 69 1012.2
20260831093252 67 54 0.0 0.0 0.00 0.00 0.00 70 1012.2
20260831093143 67 62 1.0 1.0 0.00 0.00 0.00 70 1013.0
20260831093137 67 54 0.0 0.0 0.00 0.00 0.00 69 1012.2
20260831093125 67 54 0.0 0.0 0.00 0.00 0.00 70 1012.2
20260831092955 67 54 0.0 0.0 0.00 0.00 0.00 69 1012.2
20260831092704 67 67 1.0 0.0 0.00 0.00 0.00 69 1012.1
20260831092639 67 63 1.0 2.0 0.00 0.00 0.00 68 1013.0
20260831092634 67 67 1.0 0.0 0.00 0.00 0.00 68 1012.1
20260831092534 67 67 1.0 0.0 0.00 0.00 0.00 68 1012.1
20260831092443 67 67 1.0 0.0 0.00 0.00 0.00 68 1012.1
20260831092435 67 67 1.0 0.0 0.00 0.00 0.00 69 1012.1
20260831092426 67 67 1.0 0.0 0.00 0.00 0.00 68 1012.1
20260831092414 67 67 1.0 0.0 0.00 0.00 0.00 69 1012.1
20260831092234 67 67 1.0 0.0 0.00 0.00 0.00 68 1012.1
20260831092205 67 67 1.0 0.0 0.00 0.00 0.00 68 1012.1
20260831092135 67 67 1.0 0.0 0.00 0.00 0.00 68 1012.1
20260831092053 67 29 0.0 0.0 0.00 0.00 0.00 67 1012.0
20260831092049 67 67 1.0 0.0 0.00 0.00 0.00 68 1012.1
20260831091834 67 67 1.0 0.0 0.00 0.00 0.00 68 1012.1
20260831091820 67 29 0.0 0.0 0.00 0.00 0.00 67 1012.0
20260831091805 67 67 1.0 0.0 0.00 0.00 0.00 67 1012.1
20260831091738 67 67 1.0 1.0 0.00 0.00 0.00 67 1012.1
20260831091726 67 29 0.0 0.0 0.00 0.00 0.00 67 1012.0
20260831091714 67 29 0.0 0.0 0.00 0.00 0.00 67 1012.0
20260831091634 67 72 0.0 2.0 0.00 0.00 0.00 67 1013.1
20260831091535 67 29 0.0 0.0 0.00 0.00 0.00 67 1012.0
20260831091452 67 29 0.0 0.0 0.00 0.00 0.00 67 1012.0
20260831091314 67 29 0.0 0.0 0.00 0.00 0.00 67 1012.0
20260831091133 67 29 0.0 0.0 0.00 0.00 0.00 67 1012.0
20260831091130 67 50 0.0 1.0 0.00 0.00 0.00 67 1012.9
20260831091118 67 50 0.0 0.0 0.00 0.00 0.00 67 1012.0
20260831091104 67 29 0.0 0.0 0.00 0.00 0.00 67 1012.0
20260831091033 67 29 0.0 0.0 0.00 0.00 0.00 67 1012.0
20260831090946 67 29 0.0 0.0 0.00 0.00 0.00 67 1012.0
20260831090836 67 29 0.0 0.0 0.00 0.00 0.00 67 1012.0
20260831090804 67 29 0.0 0.0 0.00 0.00 0.00 67 1012.0
20260831090754 67 29 0.0 0.0 0.00 0.00 0.00 67 1012.0
20260831090625 67 43 0.0 1.0 0.00 0.00 0.00 67 1012.9
20260831090546 67 50 0.0 0.0 0.00 0.00 0.00 67 1012.0
20260831090435 67 50 0.0 0.0 0.00 0.00 0.00 67 1012.0
20260831090404 67 50 0.0 0.0 0.00 0.00 0.00 67 1012.0
20260831090334 67 50 0.0 0.0 0.00 0.00 0.00 67 1012.0
20260831090320 67 50 0.0 0.0 0.00 0.00 0.00 66 1012.0
20260831090235 67 50 0.0 0.0 0.00 0.00 0.00 67 1012.0
20260831090141 68 44 0.0 0.0 0.00 0.00 0.00 67 1012.0
20260831090135 67 50 0.0 0.0 0.00 0.00 0.00 67 1012.0
20260831090121 68 29 0.0 2.0 0.00 0.00 0.00 67 1013.0
20260831090110 67 50 0.0 0.0 0.00 0.00 0.00 67 1012.0
20260831090033 67 50 0.0 0.0 0.00 0.00 0.00 67 1012.0
20260831090015 68 44 0.0 0.0 0.00 0.00 0.00 65 1012.0
20260831085949 67 50 0.0 0.0 0.00 0.00 0.00 66 1012.0
20260831085825 67 50 0.0 0.0 0.00 0.00 0.00 66 1012.0
20260831085815 68 50 0.0 0.0 0.00 0.00 0.00 67 1012.0
20260831085646 67 44 0.0 0.0 0.00 0.00 0.00 67 1012.0
20260831085620 67 44 0.0 0.0 0.00 0.00 0.00 65 1012.0
20260831085616 68 50 0.0 2.0 0.00 0.00 0.00 66 1012.9
20260831085535 67 44 0.0 0.0 0.00 0.00 0.00 66 1012.0
20260831085510 68 44 0.0 0.0 0.00 0.00 0.00 65 1012.0
20260831085444 67 44 0.0 0.0 0.00 0.00 0.00 66 1012.0
20260831085433 67 44 0.0 0.0 0.00 0.00 0.00 66 1012.0
20260831085319 68 37 0.0 0.0 0.00 0.00 0.00 65 1012.1
20260831085311 67 44 0.0 0.0 0.00 0.00 0.00 66 1012.0
20260831085306 67 44 0.0 0.0 0.00 0.00 0.00 66 1012.0
20260831085253 67 44 0.0 0.0 0.00 0.00 0.00 65 1012.0
20260831085111 68 89 0.0 2.0 0.00 0.00 0.00 65 1013.0
20260831084934 68 44 0.0 0.0 0.00 0.00 0.00 65 1012.0
20260831084921 68 37 0.0 0.0 0.00 0.00 0.00 64 1012.1
20260831084911 68 44 0.0 0.0 0.00 0.00 0.00 65 1012.0
20260831084902 68 44 0.0 0.0 0.00 0.00 0.00 65 1012.0
20260831084607 68 45 1.0 1.0 0.00 0.00 0.00 65 1013.0
20260831084604 68 37 0.0 0.0 0.00 0.00 0.00 64 1012.1
20260831084539 68 37 0.0 0.0 0.00 0.00 0.00 64 1012.1
20260831084534 68 37 0.0 0.0 0.00 0.00 0.00 65 1012.1
20260831084505 68 37 0.0 0.0 0.00 0.00 0.00 65 1012.1
20260831084433 68 37 0.0 0.0 0.00 0.00 0.00 64 1012.1
20260831084415 68 37 0.0 0.0 0.00 0.00 0.00 64 1012.1
20260831084353 68 37 0.0 0.0 0.00 0.00 0.00 65 1012.1
20260831084345 68 37 0.0 0.0 0.00 0.00 0.00 65 1012.1
20260831084215 68 37 0.0 0.0 0.00 0.00 0.00 64 1012.1
20260831084205 68 37 0.0 0.0 0.00 0.00 0.00 65 1012.1
20260831084103 68 27 0.0 1.0 0.00 0.00 0.00 64 1013.0
20260831083904 68 37 0.0 0.0 0.00 0.00 0.00 64 1012.1
20260831083834 68 37 0.0 0.0 0.00 0.00 0.00 64 1012.1
20260831083804 68 37 0.0 0.0 0.00 0.00 0.00 64 1012.1
20260831083735 68 37 0.0 0.0 0.00 0.00 0.00 64 1012.1
20260831083724 68 54 1.0 0.0 0.00 0.00 0.00 63 1012.1
20260831083635 68 54 1.0 0.0 0.00 0.00 0.00 63 1012.1
20260831083559 68 37 0.0 1.0 0.00 0.00 0.00 63 1013.1
20260831083534 68 54 1.0 0.0 0.00 0.00 0.00 63 1012.1
20260831083522 68 54 1.0 0.0 0.00 0.00 0.00 63 1012.1
20260831083433 68 54 1.0 0.0 0.00 0.00 0.00 63 1012.1
20260831083349 68 54 1.0 0.0 0.00 0.00 0.00 63 1012.1
20260831083204 68 54 1.0 0.0 0.00 0.00 0.00 62 1012.1
20260831083149 68 54 1.0 0.0 0.00 0.00 0.00 63 1012.1
20260831083054 68 28 0.0 1.0 0.00 0.00 0.00 63 1013.0
20260831083005 68 54 1.0 0.0 0.00 0.00 0.00 63 1012.1
20260831082934 68 54 1.0 0.0 0.00 0.00 0.00 63 1012.1
20260831082836 68 54 1.0 0.0 0.00 0.00 0.00 63 1012.1
20260831082804 68 54 1.0 0.0 0.00 0.00 0.00 63 1012.1
20260831082734 68 54 1.0 1.0 0.00 0.00 0.00 63 1012.1
20260831082633 68 31 1.0 0.0 0.00 0.00 0.00 63 1012.1
20260831082553 68 48 0.0 2.0 0.00 0.00 0.00 64 1013.1
20260831082533 68 31 1.0 0.0 0.00 0.00 0.00 63 1012.1
20260831082521 69 31 1.0 0.0 0.00 0.00 0.00 64 1012.1
20260831082435 68 31 1.0 0.0 0.00 0.00 0.00 63 1012.1
20260831082334 68 31 1.0 0.0 0.00 0.00 0.00 63 1012.1
20260831082306 68 31 1.0 0.0 0.00 0.00 0.00 63 1012.1
20260831082234 69 31 1.0 0.0 0.00 0.00 0.00 63 1012.1
20260831082154 69 44 0.0 0.0 0.00 0.00 0.00 64 1012.1
20260831082150 69 31 1.0 0.0 0.00 0.00 0.00 63 1012.1
20260831082048 69 348 0.0 2.0 0.00 0.00 0.00 64 1013.1
20260831081934 69 31 1.0 0.0 0.00 0.00 0.00 64 1012.1
20260831081903 69 31 1.0 0.0 0.00 0.00 0.00 64 1012.1
20260831081851 68 44 0.0 0.0 0.00 0.00 0.00 65 1012.1
20260831081833 69 31 1.0 0.0 0.00 0.00 0.00 64 1012.1
20260831081803 69 31 1.0 0.0 0.00 0.00 0.00 65 1012.1
20260831081751 69 31 1.0 1.0 0.00 0.00 0.00 64 1012.1
20260831081616 68 44 0.0 0.0 0.00 0.00 0.00 64 1012.1
20260831081544 68 354 0.0 3.0 0.00 0.00 0.00 65 1013.0
20260831081534 68 44 0.0 0.0 0.00 0.00 0.00 65 1012.1
20260831081513 68 44 0.0 0.0 0.00 0.00 0.00 65 1012.1
20260831081334 68 44 0.0 0.0 0.00 0.00 0.00 65 1012.1
20260831081234 68 44 0.0 0.0 0.00 0.00 0.00 66 1012.1
20260831081203 68 44 0.0 0.0 0.00 0.00 0.00 66 1012.1
20260831081133 68 44 0.0 0.0 0.00 0.00 0.00 67 1012.1
20260831081040 68 97 1.0 2.0 0.00 0.00 0.00 67 1013.2
20260831081034 68 44 0.0 0.0 0.00 0.00 0.00 67 1012.1
20260831081014 68 45 1.0 0.0 0.00 0.00 0.00 68 1012.0
20260831080933 68 44 0.0 0.0 0.00 0.00 0.00 67 1012.1
20260831080904 68 44 0.0 0.0 0.00 0.00 0.00 67 1012.1
20260831080833 68 44 0.0 0.0 0.00 0.00 0.00 67 1012.1
20260831080804 68 44 0.0 0.0 0.00 0.00 0.00 67 1012.1
20260831080735 68 44 0.0 0.0 0.00 0.00 0.00 68 1012.1
20260831080648 68 45 1.0 0.0 0.00 0.00 0.00 68 1012.0
20260831080540 68 44 0.0 1.0 0.00 0.00 0.00 68 1012.7
20260831080503 68 45 1.0 0.0 0.00 0.00 0.00 68 1012.0
20260831080435 69 45 1.0 0.0 0.00 0.00 0.00 68 1012.0
20260831080406 68 45 1.0 0.0 0.00 0.00 0.00 68 1012.0
20260831080335 68 45 1.0 0.0 0.00 0.00 0.00 68 1012.0
20260831080303 68 45 1.0 0.0 0.00 0.00 0.00 68 1012.0
20260831080233 69 45 1.0 0.0 0.00 0.00 0.00 68 1012.0
20260831080206 69 29 0.0 0.0 0.00 0.00 0.00 69 1011.8
20260831080133 69 45 1.0 0.0 0.00 0.00 0.00 68 1012.0
20260831080107 69 45 1.0 0.0 0.00 0.00 0.00 68 1012.0
20260831080035 69 55 1.0 2.0 0.00 0.00 0.00 69 1013.0
20260831080033 69 45 1.0 0.0 0.00 0.00 0.00 68 1012.0
20260831080002 69 45 1.0 0.0 0.00 0.00 0.00 68 1012.0
20260831075933 69 45 1.0 0.0 0.00 0.00 0.00 69 1012.0
20260831075854 69 29 0.0 0.0 0.00 0.00 0.00 69 1011.8
20260831075850 69 45 1.0 0.0 0.00 0.00 0.00 68 1012.0
20260831075842 69 45 1.0 0.0 0.00 0.00 0.00 68 1012.0
20260831075832 69 45 1.0 1.0 0.00 0.00 0.00 68 1012.0
20260831075703 69 29 0.0 0.0 0.00 0.00 0.00 68 1011.8
20260831075632 69 29 0.0 0.0 0.00 0.00 0.00 69 1011.8
20260831075533 69 29 0.0 0.0 0.00 0.00 0.00 69 1011.8
20260831075530 69 43 0.0 2.0 0.00 0.00 0.00 69 1012.9
20260831075513 69 29 0.0 0.0 0.00 0.00 0.00 69 1011.8
20260831075347 69 29 0.0 0.0 0.00 0.00 0.00 69 1011.8
20260831075208 69 23 0.0 0.0 0.00 0.00 0.00 68 1011.6
20260831075133 69 29 0.0 0.0 0.00 0.00 0.00 69 1011.8
20260831075109 69 23 0.0 0.0 0.00 0.00 0.00 69 1011.6
20260831075045 69 29 0.0 0.0 0.00 0.00 0.00 69 1011.8
20260831075026 69 45 1.0 2.0 0.00 0.00 0.00 69 1012.7
20260831075003 69 29 0.0 0.0 0.00 0.00 0.00 68 1011.8
20260831074941 69 23 0.0 0.0 0.00 0.00 0.00 69 1011.6
20260831074934 69 29 0.0 0.0 0.00 0.00 0.00 69 1011.8
20260831074909 69 23 0.0 0.0 0.00 0.00 0.00 69 1011.6
20260831074902 69 29 0.0 0.0 0.00 0.00 0.00 69 1011.8
20260831074852 69 29 0.0 0.0 0.00 0.00 0.00 68 1011.8
20260831074842 69 29 0.0 1.0 0.00 0.00 0.00 68 1011.8
20260831074526 69 15 0.0 2.0 0.00 0.00 0.00 69 1012.6
20260831074433 69 23 0.0 0.0 0.00 0.00 0.00 69 1011.6
20260831074408 69 23 0.0 0.0 0.00 0.00 0.00 69 1011.6
20260831074350 69 23 0.0 0.0 0.00 0.00 0.00 69 1011.6
20260831074134 69 23 0.0 0.0 0.00 0.00 0.00 69 1011.6
20260831074034 69 23 0.0 0.0 0.00 0.00 0.00 69 1011.6
20260831074025 69 50 0.0 2.0 0.00 0.00 0.00 69 1012.7
20260831074014 69 23 0.0 0.0 0.00 0.00 0.00 69 1011.6
20260831073834 69 23 0.0 0.0 0.00 0.00 0.00 69 1011.6
20260831073803 69 23 0.0 0.0 0.00 0.00 0.00 69 1011.6
20260831073734 69 23 0.0 0.0 0.00 0.00 0.00 69 1011.6
20260831073633 69 62 0.0 0.0 0.00 0.00 0.00 69 1011.7
20260831073532 69 62 0.0 0.0 0.00 0.00 0.00 69 1011.7
20260831073520 69 22 0.0 0.0 0.00 0.00 0.00 69 1012.4
20260831073434 69 62 0.0 0.0 0.00 0.00 0.00 69 1011.7
20260831073347 69 36 0.0 0.0 0.00 0.00 0.00 69 1011.8
20260831073333 69 62 0.0 0.0 0.00 0.00 0.00 69 1011.7
20260831073232 69 62 0.0 0.0 0.00 0.00 0.00 69 1011.7
20260831073217 69 62 0.0 0.0 0.00 0.00 0.00 69 1011.7
20260831073132 69 62 0.0 0.0 0.00 0.00 0.00 69 1011.7
20260831073039 69 62 0.0 0.0 0.00 0.00 0.00 69 1011.7
20260831073026 69 62 0.0 0.0 0.00 0.00 0.00 69 1011.7
20260831073019 69 352 0.0 0.0 0.00 0.00 0.00 69 1012.6
20260831072853 69 62 0.0 0.0 0.00 0.00 0.00 69 1011.7
20260831072845 69 62 0.0 0.0 0.00 0.00 0.00 69 1011.7
20260831072634 69 36 0.0 0.0 0.00 0.00 0.00 68 1011.8
20260831072613 69 36 0.0 0.0 0.00 0.00 0.00 69 1011.8
20260831072552 69 36 0.0 0.0 0.00 0.00 0.00 68 1011.8
20260831072543 69 36 0.0 0.0 0.00 0.00 0.00 68 1011.8
20260831072515 69 5 1.0 2.0 0.00 0.00 0.00 69 1012.2
20260831072404 69 36 0.0 0.0 0.00 0.00 0.00 69 1011.8
20260831072333 69 36 0.0 0.0 0.00 0.00 0.00 68 1011.8
20260831072306 69 36 0.0 0.0 0.00 0.00 0.00 68 1011.8
20260831072251 69 36 0.0 1.0 0.00 0.00 0.00 68 1011.8
20260831072247 69 36 0.0 0.0 0.00 0.00 0.00 69 1011.8
20260831072033 69 36 0.0 0.0 0.00 0.00 0.00 69 1011.8
20260831072012 69 34 0.0 2.0 0.00 0.00 0.00 68 1012.5
20260831072004 69 36 0.0 0.0 0.00 0.00 0.00 68 1011.8
20260831071932 69 36 0.0 0.0 0.00 0.00 0.00 68 1011.8
20260831071922 69 53 0.0 0.0 0.00 0.00 0.00 68 1011.9